GFSSW_925_thetae_000.txt.gz
Theta_e
306 307 307 307 307 307 307 307 307 308 308 308 308 308 308 309 311 314 318 317 320 321 321 327 327 326 324 321 323 318 324 325 324 316 315 314 314 313 315 315 316 315 314 313 313
306 306 307 307 306 307 307 307 307 307 308 308 308 308 308 308 311 316 316 317 319 321 322 324 321 321 319 320 321 321 322 324 320 314 315 314 313 314 317 317 315 314 313 312 313
305 306 306 306 306 307 307 307 307 307 307 307 308 308 308 308 319 317 317 317 317 320 321 323 321 320 322 320 321 320 324 321 319 314 313 313 313 314 316 317 314 313 313 312 312
303 304 305 305 306 306 306 306 306 306 307 307 307 308 308 310 314 320 321 320 320 319 322 321 319 320 319 319 320 322 320 319 319 317 312 313 313 317 315 315 315 312 312 311 312
303 303 304 305 306 306 306 306 306 306 306 306 307 308 309 316 315 316 319 317 321 320 322 320 320 319 320 320 320 321 319 317 316 312 314 313 315 316 316 316 314 311 312 312 311
304 302 302 303 303 304 305 305 305 305 306 306 307 308 311 312 311 313 315 317 321 322 322 321 320 318 320 320 321 320 317 317 314 314 314 315 315 317 316 315 314 312 312 312 312
304 303 303 301 300 300 302 304 305 305 306 306 307 309 316 308 311 319 322 322 321 322 320 322 321 320 320 321 319 317 319 316 316 314 315 314 315 316 316 314 313 312 312 312 312
304 305 303 301 300 298 298 303 305 306 307 307 308 315 311 311 312 311 312 314 315 323 322 322 322 320 321 320 318 318 316 317 317 314 315 314 316 315 314 314 313 312 312 312 312
305 305 303 302 301 300 298 302 305 306 311 313 315 316 311 313 316 312 312 315 317 322 322 321 319 318 318 318 318 316 320 318 318 314 315 314 316 315 314 314 314 312 313 313 313
306 305 304 303 302 300 299 302 306 313 315 313 317 313 308 309 314 318 315 317 320 319 320 320 316 317 314 316 320 320 319 318 318 318 315 315 314 314 316 315 315 312 313 313 314
306 306 305 304 303 302 300 304 309 315 319 312 309 309 312 315 315 318 319 320 320 319 319 318 318 318 317 317 318 319 319 319 320 318 316 316 315 316 315 314 314 312 312 313 314
305 305 305 304 303 301 300 303 305 305 310 311 311 313 314 314 315 314 320 319 319 320 318 318 319 318 317 318 318 317 318 318 317 317 315 317 316 315 315 315 314 312 312 313 313
306 305 304 304 303 302 302 306 304 305 310 314 312 314 314 314 315 315 318 319 320 319 318 319 320 319 319 319 319 318 319 318 318 318 315 315 315 315 315 315 316 312 312 312 313
309 306 304 304 303 301 301 303 304 306 315 315 315 315 314 315 316 315 319 320 320 320 318 319 319 320 319 320 319 320 318 319 318 318 318 315 317 315 316 316 318 312 311 312 312
307 308 304 303 303 302 301 301 304 307 309 311 316 316 313 315 315 316 317 319 320 321 319 322 319 320 320 320 318 320 319 318 318 317 316 317 315 315 319 320 317 315 312 311 311
305 307 305 303 302 302 302 301 307 316 318 314 316 316 315 315 315 315 317 318 318 319 319 321 318 318 320 319 318 319 318 315 315 314 316 315 316 315 316 319 318 317 312 312 311
302 306 306 303 302 302 302 305 315 317 313 313 314 315 316 316 315 316 317 317 318 320 320 319 319 319 319 320 316 316 314 317 317 317 320 317 317 316 317 317 318 319 314 312 312
302 303 307 304 303 303 302 309 317 314 313 313 313 315 316 315 316 315 315 318 316 318 319 321 322 319 318 319 319 314 314 316 318 316 315 318 321 320 318 320 320 319 315 312 312
303 303 307 305 303 303 303 312 312 313 313 313 313 315 316 316 316 316 315 316 317 317 321 320 321 319 318 318 318 317 315 314 315 317 319 318 320 322 325 324 321 316 314 313 313
303 304 306 305 304 303 303 308 313 313 312 313 314 313 315 315 316 316 315 315 315 317 317 318 321 319 319 317 316 317 315 317 313 319 320 318 322 325 322 325 323 319 314 313 312
304 306 306 305 304 303 303 303 307 313 313 312 312 313 314 314 315 315 316 316 316 317 317 316 319 320 319 321 319 318 319 318 313 314 317 318 321 320 325 327 327 321 314 313 313
304 306 304 304 305 305 305 304 307 309 313 313 312 311 313 313 314 315 317 316 316 317 317 316 317 319 325 322 322 318 318 320 319 319 319 318 321 321 326 327 327 323 315 312 313
305 305 303 304 308 306 304 305 304 306 312 312 312 313 312 314 315 315 316 315 315 317 316 316 316 318 318 329 326 326 325 320 321 321 327 327 322 322 326 326 325 322 314 313 313
298 304 303 304 304 304 305 305 304 304 307 309 311 312 312 314 313 315 318 316 316 316 324 319 315 318 321 319 327 328 330 326 323 325 324 327 326 325 327 328 325 319 314 313 313
298 302 304 306 306 304 302 303 305 304 306 308 311 312 312 313 313 313 313 314 314 317 320 315 317 317 317 317 324 322 326 328 325 323 325 324 327 325 325 327 325 318 313 313 313
300 303 303 302 305 306 305 305 304 305 303 307 309 311 310 312 311 313 313 313 314 309 315 317 318 316 318 318 319 321 322 327 326 324 327 324 325 324 326 328 327 319 315 314 314
297 300 304 304 306 307 307 306 307 306 306 306 308 308 308 310 308 307 307 308 309 310 308 317 322 321 321 325 324 324 321 327 326 325 324 327 324 324 329 329 327 324 316 315 315

GFSSW_925_thetae_006.txt.gz
Theta_e
305 305 305 306 306 307 307 307 307 307 306 307 307 308 308 308 309 313 317 316 317 321 327 330 328 327 328 330 331 330 330 330 331 331 331 330 328 324 322 322 322 323 323 322 321
303 304 304 305 305 305 306 306 306 306 307 307 307 307 308 309 312 315 314 313 315 318 325 328 329 328 330 330 330 329 327 328 329 330 331 330 328 327 323 323 323 322 321 319 319
302 301 302 303 304 304 304 305 305 306 305 305 305 306 307 308 317 317 316 315 314 316 322 326 327 329 329 329 329 327 327 326 327 329 328 327 327 325 324 324 324 323 323 321 320
305 306 306 304 303 301 302 304 305 305 305 305 306 306 307 314 315 323 319 319 315 320 321 325 326 328 328 329 327 327 325 326 327 327 325 326 326 324 323 324 324 323 323 323 322
306 306 305 304 301 299 299 300 301 304 303 305 305 306 312 316 313 313 320 320 320 321 320 323 326 326 327 328 327 326 325 326 327 326 324 324 324 323 323 323 322 322 322 323 323
307 306 306 305 304 301 299 299 299 301 304 304 305 306 314 313 313 312 313 316 317 322 321 321 325 326 326 327 327 326 326 326 326 324 323 323 324 321 324 323 323 322 323 323 322
307 307 307 306 305 304 302 300 299 299 302 303 304 311 314 313 312 316 321 323 320 320 322 320 323 325 325 327 326 327 326 326 325 324 324 322 324 323 324 323 323 323 323 322 322
307 307 307 307 306 306 304 301 299 299 300 302 305 315 314 312 312 313 313 317 322 322 322 323 322 325 325 327 326 325 326 327 327 323 322 322 325 324 324 323 324 324 323 322 322
309 307 306 306 305 305 305 303 299 299 301 306 316 318 315 313 313 313 314 314 314 317 318 323 324 325 326 327 328 327 327 328 328 325 324 323 326 325 324 323 324 324 324 323 323
307 308 307 306 305 305 304 303 309 314 317 317 318 319 315 315 314 315 315 313 317 317 324 325 326 326 327 328 330 328 327 326 327 326 324 325 325 324 324 324 325 325 325 323 323
304 305 307 308 306 305 305 305 313 321 318 315 317 314 314 313 314 315 317 315 317 324 325 326 326 328 327 328 328 326 326 327 327 326 325 327 327 325 325 324 325 326 326 324 324
303 304 305 307 307 305 305 308 309 307 312 314 316 317 315 315 317 316 318 317 319 323 325 327 327 327 327 327 327 327 328 328 327 326 325 326 325 325 325 324 325 326 327 325 325
302 303 303 305 307 306 306 307 306 307 312 312 313 315 316 316 317 318 319 318 319 322 325 327 326 327 327 327 328 327 328 328 328 327 325 325 325 326 325 324 325 326 326 326 325
303 302 303 306 306 307 307 305 305 306 314 314 314 314 315 315 316 316 319 319 321 322 324 326 326 327 327 328 327 328 326 326 326 327 326 326 328 325 325 324 325 327 326 326 325
301 303 302 305 308 307 306 305 305 309 318 318 317 316 315 316 316 315 317 321 320 321 325 326 327 327 327 326 325 326 325 326 326 326 327 326 327 325 323 324 323 323 328 327 326
298 303 302 304 307 307 306 305 308 318 318 316 318 317 317 316 316 317 317 319 321 321 324 325 325 326 326 324 324 324 325 326 326 326 328 326 325 323 322 323 323 324 328 328 325
299 301 303 305 305 306 306 307 315 317 317 317 319 319 318 318 317 318 317 317 320 324 326 325 326 326 325 324 324 325 326 329 330 329 328 326 323 323 323 323 324 325 326 328 325
300 299 304 303 302 305 306 309 315 315 317 317 317 319 320 319 318 318 318 318 319 322 324 325 326 326 325 323 325 325 327 327 329 329 328 325 325 323 323 325 328 329 330 329 326
301 300 304 304 303 303 308 311 313 315 317 317 316 320 320 320 319 319 319 318 318 322 323 326 326 325 325 324 324 326 327 326 327 327 327 325 325 325 324 326 328 330 329 328 326
302 301 304 304 304 303 308 311 310 312 314 316 318 318 321 320 319 320 320 319 318 320 323 325 327 324 325 324 324 325 325 326 327 329 330 326 326 324 324 326 333 332 331 328 326
301 304 303 304 305 305 309 308 309 311 313 316 317 318 318 321 320 321 320 319 319 318 322 324 326 326 324 326 325 325 326 326 326 326 328 329 327 326 325 329 331 334 331 329 327
302 304 305 305 305 305 308 308 307 308 309 310 315 318 318 319 321 321 321 320 319 319 321 324 325 328 325 324 324 325 325 327 328 329 327 327 327 325 327 330 334 336 332 329 327
303 304 304 305 306 307 307 308 309 308 308 311 313 317 318 319 321 321 321 319 318 319 321 324 324 326 324 327 326 324 324 325 327 328 328 328 327 327 329 332 335 336 332 328 328
304 304 305 303 305 307 307 308 309 308 308 308 309 312 317 319 320 321 321 320 318 319 326 326 325 326 327 327 325 327 324 325 327 330 328 328 327 326 327 330 334 335 332 329 328
303 304 304 308 304 307 306 308 309 309 308 308 311 312 318 319 319 320 321 320 319 322 324 327 328 324 323 323 325 325 324 325 326 327 328 326 326 326 327 328 330 335 332 329 327
304 305 301 305 305 306 306 306 307 307 308 308 310 310 315 318 320 319 320 321 321 321 322 328 326 324 325 322 322 324 324 325 325 326 326 326 326 327 326 327 332 334 332 330 328
300 300 302 305 306 306 306 307 306 307 307 308 308 310 312 316 316 317 318 319 320 323 325 326 326 326 326 322 322 326 324 325 326 326 326 327 326 326 326 329 332 334 332 331 330

GFSSW_925_thetae_009.txt.gz
Theta_e
302 303 303 304 305 305 306 306 306 306 306 306 306 307 308 308 309 318 318 318 319 322 329 331 330 330 330 330 330 331 333 333 332 331 332 331 332 330 328 327 326 325 325 325 325
301 301 302 302 303 303 305 306 306 306 306 306 306 307 307 307 314 317 317 317 316 318 329 330 331 330 331 330 330 331 332 330 329 329 330 330 330 330 329 328 326 325 325 323 323
305 303 301 301 300 301 301 304 305 306 306 306 306 306 307 308 319 318 320 316 315 316 323 329 329 331 331 330 331 331 332 330 327 327 328 329 328 329 328 328 327 326 325 325 324
308 307 305 304 300 300 299 301 302 304 305 306 305 306 306 313 316 324 318 316 314 318 321 323 328 329 332 332 330 331 330 328 326 326 328 328 328 328 327 327 326 325 323 324 325
308 308 307 306 305 302 300 299 299 299 301 304 304 305 311 318 317 318 318 319 318 318 321 324 327 329 331 331 330 330 329 328 326 327 328 328 327 327 326 325 325 324 323 323 324
308 307 307 307 307 307 306 303 301 299 299 302 304 304 316 314 314 314 320 324 326 322 322 323 326 328 328 329 328 329 329 327 327 327 328 327 328 326 326 325 323 324 324 324 323
309 307 307 307 307 307 307 306 304 301 300 299 300 310 315 315 314 315 314 315 316 319 324 322 322 325 327 327 327 329 328 328 328 327 328 327 327 327 326 326 325 324 325 324 325
308 309 307 307 306 306 305 305 305 302 300 299 300 312 316 313 314 313 315 320 321 322 319 322 322 323 327 327 327 328 329 330 329 328 327 326 328 328 327 326 326 326 326 325 325
306 308 309 308 306 306 306 306 305 303 302 301 311 316 316 315 315 313 314 315 315 318 322 322 324 323 325 327 328 329 330 330 329 328 328 327 328 328 327 327 326 326 326 326 325
303 304 306 306 308 307 306 306 306 308 315 315 314 320 318 316 315 315 315 315 317 318 322 321 325 325 326 328 329 330 331 330 329 329 329 328 328 328 328 327 327 326 327 327 326
303 303 304 305 306 308 307 310 314 320 317 316 317 316 316 316 314 316 316 317 317 318 318 322 326 327 327 328 328 329 330 329 329 329 329 329 329 329 329 328 327 326 326 328 328
304 303 303 304 304 306 308 312 313 311 316 320 320 319 317 316 318 316 318 318 317 319 319 326 328 326 327 327 328 329 330 329 329 329 330 330 330 329 327 326 327 326 326 328 329
300 303 303 302 303 306 310 311 310 310 313 314 315 317 318 317 317 318 318 319 318 318 322 326 327 326 326 327 329 329 329 329 329 329 330 329 329 327 327 327 326 326 327 328 329
299 300 303 303 305 309 311 310 309 309 314 316 316 316 316 317 318 317 318 320 319 318 322 325 326 327 326 328 328 330 328 328 328 329 330 328 329 328 327 326 326 326 327 328 329
303 297 302 303 306 311 310 308 308 311 319 320 319 317 318 317 318 317 317 320 320 319 321 323 325 327 327 327 328 328 327 327 328 329 329 328 329 328 327 326 325 325 326 328 330
305 300 300 304 305 307 309 308 309 318 318 319 320 319 318 317 318 319 318 319 320 320 321 322 325 326 327 327 328 327 327 326 327 328 330 328 329 328 326 325 324 325 326 330 330
305 304 300 305 308 307 308 310 314 316 317 319 320 320 319 318 318 319 318 318 322 321 323 322 324 326 327 328 327 325 326 328 331 332 331 328 328 328 325 324 324 326 327 331 330
303 304 300 303 306 306 308 312 315 315 318 320 320 320 320 320 319 319 319 319 321 322 323 324 325 326 327 328 327 325 326 328 331 332 331 329 329 328 325 324 325 326 330 332 330
303 304 302 303 305 305 309 314 314 315 317 319 320 321 321 321 321 320 321 320 321 323 324 325 326 325 327 327 326 326 327 326 329 328 329 329 329 327 324 325 327 329 332 333 331
305 303 303 303 305 305 308 310 310 312 313 317 319 320 322 321 321 321 322 322 320 321 323 326 327 326 326 326 326 326 326 328 328 331 333 330 329 327 326 326 332 333 334 332 330
304 305 304 303 305 307 307 310 309 310 312 314 316 319 321 323 322 322 322 322 322 321 322 324 328 327 327 328 326 325 326 328 329 328 330 332 329 328 327 327 330 334 334 331 330
302 308 305 305 308 308 307 307 308 309 310 312 312 314 318 322 323 322 323 323 322 322 321 325 328 330 328 327 327 326 325 328 329 331 329 330 330 327 326 326 330 333 334 330 329
306 307 306 306 310 310 307 307 306 309 309 310 312 313 316 320 324 323 323 322 322 322 324 327 328 332 330 328 327 327 325 326 329 331 331 330 330 327 328 328 329 332 333 330 329
303 310 307 307 306 308 310 308 307 308 308 310 311 312 313 317 321 324 323 322 322 321 327 329 330 330 331 331 327 327 325 326 328 332 330 330 329 329 328 328 331 331 333 331 329
305 307 306 308 307 307 307 309 309 307 309 310 310 312 314 319 322 323 323 323 322 323 326 331 333 328 327 326 326 327 326 325 327 328 330 330 329 329 328 328 329 332 333 332 330
305 305 304 307 305 306 307 307 307 307 309 310 310 311 313 317 321 323 322 324 324 322 322 332 333 328 327 325 326 327 327 326 325 326 327 328 329 328 327 327 329 333 333 333 331
304 303 304 303 307 307 306 307 307 307 307 309 310 311 311 313 315 317 319 322 326 323 328 328 330 331 328 325 324 327 327 326 326 324 326 328 328 328 327 327 328 331 332 333 332

GFSSW_925_thetae_012.txt.gz
Theta_e
304 302 302 302 302 303 304 304 305 305 306 306 306 306 307 307 308 316 320 316 317 318 322 330 330 332 332 333 332 332 333 334 334 332 331 330 331 331 331 329 328 327 325 326 327
307 306 305 304 302 301 301 302 303 304 305 306 306 306 306 307 312 316 316 318 318 319 323 330 333 333 333 332 331 331 333 333 332 331 329 329 329 330 329 330 330 327 326 325 325
308 308 308 307 306 304 301 300 300 301 303 305 306 306 306 307 317 316 321 319 317 318 320 326 330 333 333 332 331 331 333 331 332 331 328 328 328 328 328 328 328 327 326 326 324
308 308 308 308 307 307 306 304 301 300 300 303 305 306 306 311 314 322 317 318 317 318 320 321 326 331 333 333 332 332 331 331 331 330 328 327 327 329 328 328 327 326 325 326 327
309 309 308 308 307 308 307 307 305 303 300 299 302 304 309 314 315 316 317 318 316 318 319 321 324 330 331 331 331 333 332 330 330 329 328 327 328 329 328 327 326 325 324 325 326
308 308 309 308 307 307 307 307 306 305 303 300 299 302 313 313 312 313 315 324 321 319 318 321 323 324 327 329 330 331 331 329 329 329 328 327 328 328 328 327 325 324 324 325 325
305 306 308 309 308 307 307 307 306 306 305 301 300 309 312 312 313 315 316 318 322 323 321 320 321 324 326 328 329 329 330 328 329 329 328 328 328 328 327 327 327 326 326 326 326
304 305 307 308 309 308 307 307 307 307 306 304 306 310 312 312 313 312 314 315 316 317 321 324 324 323 324 325 327 328 328 328 328 329 329 329 329 328 328 328 329 327 327 327 328
305 304 304 304 306 306 307 308 308 306 308 309 311 310 310 313 314 314 315 315 319 321 321 321 320 324 324 324 326 328 329 328 329 329 329 329 329 328 328 329 330 329 329 328 329
303 305 304 304 304 305 306 307 308 309 310 314 310 313 316 319 315 316 316 315 316 317 318 319 322 324 325 325 327 329 328 328 330 330 329 329 329 329 329 329 331 331 330 330 329
303 302 304 303 304 304 306 310 314 318 312 317 317 314 317 319 318 316 316 317 316 317 317 319 325 326 327 328 325 327 327 329 331 330 330 331 333 330 330 330 331 331 331 332 332
304 301 302 303 303 303 305 310 313 313 315 316 317 317 315 317 317 316 317 317 317 316 317 319 325 323 325 326 325 326 328 329 329 329 328 329 330 330 330 331 330 329 330 332 333
306 304 297 302 303 304 306 309 311 313 313 314 316 321 320 318 319 318 317 318 318 317 317 319 319 322 324 327 326 327 329 330 329 329 328 329 331 331 330 330 329 329 328 329 333
304 305 302 300 305 310 312 311 313 311 313 312 315 315 317 321 321 319 319 318 319 318 318 318 319 321 326 326 326 329 328 328 329 329 329 328 333 333 330 330 328 326 329 330 333
305 304 304 299 306 308 311 311 310 311 319 318 316 318 317 320 320 320 319 319 320 319 318 318 320 320 327 327 327 328 328 328 329 330 330 328 330 329 330 331 328 326 326 331 333
305 304 305 300 304 306 308 310 311 315 315 317 321 318 318 318 320 320 320 319 319 319 320 319 320 323 324 327 327 327 328 328 328 328 332 329 330 330 330 327 326 325 327 331 332
304 304 305 304 305 308 308 311 314 315 314 318 320 320 319 319 318 319 320 320 321 321 323 320 320 322 324 326 327 327 332 330 333 330 331 328 330 331 331 327 325 325 328 333 333
303 304 305 306 303 305 307 312 315 311 313 319 320 321 321 321 319 319 320 320 320 321 321 323 321 321 324 326 327 329 331 331 331 332 330 331 331 329 327 326 325 325 329 334 333
303 305 306 306 304 304 308 312 310 311 312 314 316 318 322 321 321 320 322 322 321 322 323 324 322 323 323 326 327 329 330 328 329 328 330 330 332 330 328 325 325 327 333 336 334
305 305 305 306 304 306 310 310 309 309 310 311 314 317 320 322 322 322 323 322 321 321 324 325 327 324 323 326 327 330 328 328 328 332 334 329 330 329 329 326 329 334 335 337 334
305 306 304 305 304 308 310 307 308 308 308 309 311 314 316 317 321 322 322 322 321 321 322 326 330 327 326 328 328 328 329 328 330 328 332 334 331 335 332 331 337 335 336 336 333
304 306 306 305 308 307 310 308 307 307 307 308 309 311 314 316 319 321 324 324 322 323 323 325 328 331 327 326 327 328 329 330 331 334 330 332 331 332 332 330 330 336 336 333 332
304 306 306 307 308 308 309 307 307 307 306 307 308 310 313 315 318 322 324 324 323 324 326 326 329 334 331 330 329 329 329 329 334 335 336 330 331 332 330 328 330 335 335 332 332
303 309 309 308 308 309 309 308 308 308 309 307 308 309 313 315 316 319 322 325 323 324 327 329 329 330 334 332 331 332 329 327 329 335 330 330 330 332 330 328 329 333 335 332 332
306 309 308 309 308 308 308 309 307 307 308 308 308 309 311 314 316 319 321 320 324 326 329 332 329 331 329 328 328 328 328 327 329 330 331 331 330 331 332 330 330 334 335 333 331
307 307 306 306 306 305 305 309 307 306 307 309 311 310 311 314 314 318 318 321 323 325 329 334 330 329 327 326 328 328 328 327 327 326 327 329 331 330 331 331 331 334 334 333 332
304 305 305 306 306 308 308 307 308 308 308 307 309 310 311 312 312 313 314 316 318 322 327 334 332 332 331 328 327 331 329 329 328 327 329 329 331 330 330 329 330 336 335 334 333

GFSSW_925_thetae_015.txt.gz
Theta_e
309 309 308 308 307 305 302 301 302 303 305 306 306 306 306 306 307 309 317 313 314 314 324 328 326 329 329 330 331 331 331 332 331 331 330 327 326 327 327 328 328 325 324 326 326
309 308 308 308 308 308 306 304 301 300 301 303 305 306 306 306 307 313 311 312 317 317 316 327 329 329 329 331 331 331 329 331 330 329 329 327 325 325 327 327 328 327 325 326 326
309 309 309 308 308 308 307 307 306 304 301 300 301 305 305 306 317 313 319 319 316 318 318 320 327 330 331 331 332 330 330 329 329 329 328 329 324 324 326 327 327 325 324 324 324
307 309 310 309 308 308 307 307 307 307 306 303 300 300 304 307 309 319 317 316 317 317 319 319 320 324 330 333 331 332 330 330 330 329 329 327 326 326 325 326 326 324 324 322 322
305 306 307 308 309 308 308 307 307 306 306 305 304 300 305 313 312 312 315 318 317 318 320 319 318 319 322 328 331 331 331 330 330 329 326 327 327 327 325 326 326 323 323 323 321
305 305 305 306 308 309 309 308 307 307 307 306 307 307 312 310 309 311 312 314 319 318 319 318 319 319 320 324 329 329 328 328 329 329 326 327 327 326 325 326 323 323 322 321 320
304 305 305 304 306 308 309 308 308 308 308 307 310 311 310 309 311 313 314 313 315 321 319 318 318 319 321 321 322 323 325 326 328 327 326 326 328 326 326 325 325 323 321 321 322
301 302 305 305 304 304 305 306 306 307 307 307 311 311 310 307 310 310 311 311 313 319 322 321 319 318 319 320 322 322 323 327 326 326 326 325 328 326 325 325 326 325 324 323 322
305 301 301 305 305 304 304 304 304 306 307 309 312 311 307 308 309 309 311 312 313 314 320 323 323 319 320 322 321 322 323 324 326 326 326 327 328 327 326 325 326 326 325 324 323
306 306 302 298 303 304 303 303 304 308 310 312 312 310 309 312 311 313 312 313 315 316 317 315 316 316 317 320 324 322 323 325 326 327 325 327 329 327 326 325 325 325 326 326 325
306 306 305 302 298 303 304 305 310 314 313 314 314 310 315 314 316 317 315 315 315 315 314 318 316 317 321 320 323 322 324 325 327 327 327 330 330 329 328 327 327 325 325 327 326
305 306 306 305 297 300 303 305 308 310 312 313 312 313 312 313 315 318 316 316 315 314 314 314 314 315 321 322 322 326 324 324 325 326 330 329 330 328 329 327 326 326 325 325 327
304 305 305 305 301 299 305 305 308 306 312 313 313 314 315 316 315 316 317 315 316 314 314 314 315 316 321 323 324 325 326 325 325 326 327 327 327 328 329 327 327 326 325 326 327
304 304 305 305 302 304 307 309 309 310 313 310 312 313 314 317 319 317 317 316 316 316 315 314 314 317 318 322 323 324 326 325 326 327 328 328 327 328 327 326 326 326 324 327 326
304 304 305 305 303 302 306 307 309 312 313 312 312 314 313 319 320 321 318 318 315 316 316 316 314 316 317 320 321 323 326 325 326 327 327 327 326 326 327 327 326 325 323 327 327
303 304 305 305 306 302 305 308 309 313 313 312 316 315 314 318 320 321 319 318 316 317 317 317 317 316 316 318 321 324 325 326 326 327 328 328 327 327 327 328 324 325 327 328 327
303 304 304 306 306 304 304 308 314 315 310 311 316 315 315 316 319 321 320 318 318 316 318 318 317 317 317 318 319 325 324 326 328 327 327 326 326 325 326 327 323 327 329 327 327
303 303 304 305 305 306 305 311 312 309 309 310 310 311 313 317 317 319 320 319 318 317 316 318 319 318 318 318 321 321 325 326 330 331 328 327 327 327 327 326 324 328 328 328 327
303 304 305 305 306 306 306 310 310 308 307 309 308 310 314 313 317 317 319 319 318 317 317 317 318 320 319 319 319 323 326 324 326 328 326 326 330 328 325 323 323 330 330 327 327
304 304 305 305 306 306 307 309 306 307 307 308 308 308 309 310 315 316 318 318 319 318 317 319 320 320 319 319 320 321 325 327 325 327 328 328 329 332 327 324 329 333 330 329 327
304 306 304 305 306 306 308 307 307 306 306 307 307 307 308 310 311 314 318 320 320 319 317 318 322 324 320 319 319 320 324 325 322 322 326 328 329 327 324 328 331 332 331 329 327
304 306 304 305 307 307 308 306 307 307 307 307 307 307 307 310 311 315 317 321 320 320 318 317 322 322 325 321 320 322 324 324 325 328 325 326 330 326 329 331 331 333 331 328 325
305 305 303 306 307 307 306 307 306 307 307 308 309 309 307 310 315 316 318 318 319 320 319 318 319 324 326 323 322 323 325 325 325 325 328 330 329 327 327 329 333 331 330 328 325
303 305 307 306 305 307 308 307 307 307 307 307 308 309 307 308 311 313 316 316 317 321 328 322 318 319 326 326 324 324 327 325 326 327 327 330 327 330 327 328 330 331 329 327 326
304 306 307 308 307 307 307 306 306 306 306 305 307 309 309 309 310 313 314 315 316 320 316 322 319 323 321 324 325 326 327 326 326 328 328 327 328 327 326 326 329 330 328 327 326
303 306 305 304 306 306 306 306 305 306 307 306 307 309 310 310 311 313 314 314 316 315 314 317 322 320 322 324 323 326 327 326 326 325 327 326 326 326 328 325 328 330 329 328 327
304 304 305 305 305 307 307 308 307 307 307 308 308 308 309 311 310 312 311 311 312 313 313 317 329 322 322 322 324 324 327 326 326 325 324 325 325 327 329 326 326 330 329 328 327

GFSSW_925_thetae_018.txt.gz
Theta_e
311 310 309 309 309 308 307 306 304 302 301 302 303 305 305 305 306 307 310 310 312 313 315 326 327 327 328 328 329 328 331 333 332 330 330 328 326 324 326 327 325 323 324 325 324
309 309 310 309 309 309 308 307 307 307 305 302 301 302 304 304 306 310 310 311 311 311 317 325 328 327 326 328 328 329 331 334 333 329 328 327 325 324 324 323 326 325 325 325 324
306 307 309 309 310 309 308 308 307 307 307 306 304 301 301 304 313 312 317 316 318 311 315 316 326 327 327 328 328 330 334 332 331 328 327 327 328 325 325 324 324 324 325 323 322
307 307 308 308 309 307 308 309 308 307 307 306 306 305 300 305 308 314 317 314 317 315 319 318 317 320 328 330 329 331 331 331 331 329 329 328 328 326 325 324 324 323 325 323 322
305 307 307 306 306 306 308 309 309 308 308 307 307 307 306 313 308 312 316 312 318 318 320 318 316 317 318 323 329 331 331 331 330 329 328 328 327 326 325 325 323 323 324 323 322
300 301 304 306 307 305 305 307 308 308 308 308 308 310 310 306 306 308 309 311 315 320 321 318 316 317 316 318 320 323 326 329 329 328 327 327 327 325 326 325 323 322 322 321 320
306 305 299 300 305 307 305 305 304 305 306 306 310 312 311 308 304 308 311 311 311 314 318 319 318 318 316 317 318 318 320 321 322 323 324 324 325 325 325 324 322 320 320 320 320
307 306 305 303 299 303 305 304 303 304 306 308 311 312 312 308 306 306 307 307 309 313 316 318 318 315 315 315 318 319 319 321 322 322 324 323 327 324 323 324 323 322 320 319 318
306 306 306 306 305 301 299 302 303 303 305 308 311 311 310 306 308 307 306 308 309 310 311 316 317 316 317 316 317 318 321 321 321 321 323 324 325 324 324 325 324 323 322 321 320
305 305 305 306 305 304 298 300 302 305 307 309 311 312 310 310 309 309 309 309 310 313 313 314 319 320 314 317 322 322 320 321 322 323 323 323 323 324 325 324 323 322 323 323 322
305 304 304 305 305 305 301 300 305 311 309 312 311 310 312 310 313 314 311 310 312 313 313 314 319 318 321 318 319 321 321 321 322 323 324 324 325 326 326 324 322 321 322 323 323
304 304 305 305 305 304 303 303 304 307 307 308 311 311 310 310 312 313 314 313 312 313 313 313 315 316 315 316 317 318 320 322 322 322 322 323 326 326 325 325 323 323 323 323 325
303 303 303 304 305 303 302 304 307 306 308 310 310 312 312 312 313 313 314 315 313 312 313 313 315 318 317 316 320 320 320 321 325 324 323 323 325 326 326 326 325 324 322 324 326
303 303 303 304 305 303 301 305 304 305 311 312 312 313 313 313 316 314 315 316 315 312 313 313 314 316 317 315 315 321 322 322 324 326 326 324 327 323 324 324 324 322 322 324 324
303 303 304 304 305 304 303 303 305 307 310 308 309 312 312 314 317 317 316 315 316 315 313 313 313 314 314 314 315 320 322 323 324 326 323 324 324 323 323 325 324 323 324 324 323
303 303 304 304 305 304 305 305 305 310 312 309 309 309 312 313 314 320 317 315 316 315 314 314 314 313 313 315 315 318 321 321 322 323 325 324 325 327 324 325 325 322 325 324 324
302 303 303 304 304 305 305 303 311 314 309 309 308 307 309 314 314 317 319 316 317 316 314 315 315 315 314 313 316 317 318 322 323 326 328 324 326 327 323 324 324 325 326 325 325
303 302 303 303 303 304 305 307 313 308 308 307 307 308 310 308 310 316 319 317 315 314 314 315 317 316 316 315 314 314 317 322 327 327 326 324 325 325 323 323 323 327 326 326 325
303 304 304 304 304 305 306 310 307 308 306 307 307 308 308 308 309 311 317 319 316 316 315 314 316 318 317 317 315 315 315 318 322 325 324 324 325 325 325 325 327 326 327 326 325
304 303 303 304 304 305 307 307 307 306 306 306 307 307 308 307 308 310 313 317 318 316 315 315 316 317 317 316 316 315 319 322 320 326 327 325 326 328 323 327 328 328 326 325 325
303 302 303 305 305 306 307 307 305 304 307 307 307 307 307 307 307 310 311 316 317 318 316 316 316 320 316 317 316 315 316 321 321 322 325 325 325 322 324 322 329 327 326 326 325
303 305 304 305 307 306 305 304 306 305 306 306 307 308 308 309 309 311 312 314 313 314 320 316 314 317 318 317 317 316 316 320 324 324 322 323 323 323 321 328 328 327 327 325 325
302 300 304 304 307 305 304 305 306 306 306 306 307 308 309 310 309 312 314 313 312 314 316 319 316 317 321 319 319 316 317 320 319 321 324 323 323 323 327 328 329 328 327 326 325
302 302 302 302 302 305 306 307 306 306 306 307 306 305 308 309 309 309 310 310 311 312 316 315 318 316 319 321 320 320 318 323 322 323 323 324 325 326 327 331 329 328 327 325 326
300 304 305 303 304 305 305 305 306 306 304 305 305 305 307 308 310 309 309 308 311 313 311 311 319 316 316 318 321 322 320 321 325 323 325 323 324 324 324 331 330 328 326 325 326
298 304 302 302 303 303 304 304 306 307 306 307 307 308 308 309 310 312 309 309 313 312 311 310 316 319 316 317 317 319 321 322 324 324 323 323 325 323 323 330 330 328 327 326 326
303 302 303 304 301 300 302 306 306 308 307 307 308 308 308 308 310 310 311 311 311 311 311 311 316 320 318 318 317 318 319 323 324 324 324 324 321 321 324 327 330 327 327 326 326

GFSSW_925_thetae_021.txt.gz
Theta_e
310 310 310 310 310 310 309 308 308 307 306 305 303 302 302 302 305 307 307 311 311 312 311 320 327 329 327 326 327 324 329 331 330 330 329 327 327 326 324 325 323 322 323 323 323
308 308 309 309 310 310 310 309 308 308 307 307 306 304 302 301 306 309 311 313 313 310 311 326 328 328 325 326 327 328 329 330 328 328 328 327 327 325 324 325 323 324 324 323 322
306 308 308 308 308 309 309 309 309 309 308 308 307 306 304 301 311 307 313 316 317 312 310 320 327 325 326 325 326 327 332 329 328 329 328 327 328 328 325 325 323 323 323 321 320
305 305 305 306 307 307 306 307 309 310 310 308 308 307 306 305 306 311 315 314 316 316 314 316 319 325 327 327 326 330 328 330 330 330 330 330 329 328 328 327 326 322 323 321 320
306 306 305 304 305 306 306 305 306 308 309 309 308 309 309 312 306 310 317 313 320 317 317 316 316 317 318 322 326 329 328 327 328 329 329 329 328 329 329 327 326 321 323 322 321
307 307 307 306 305 305 305 306 305 305 305 308 309 310 310 307 304 306 309 307 309 319 320 316 316 316 316 316 317 320 322 324 325 327 328 327 326 324 325 324 323 321 322 322 321
305 306 306 306 307 306 305 302 304 306 306 307 309 310 310 311 307 304 306 308 307 308 316 318 317 316 314 315 314 315 316 317 319 321 322 322 323 324 323 322 322 320 320 321 321
305 304 305 306 306 307 307 306 302 303 306 307 308 309 311 310 309 309 309 307 306 310 311 314 318 315 315 314 316 317 317 319 320 320 321 321 324 324 323 321 322 322 319 320 320
305 304 304 304 306 306 306 306 305 304 305 307 307 309 310 308 310 309 308 307 307 307 307 313 315 314 314 316 315 315 317 317 318 319 320 321 322 322 322 321 322 322 321 318 320
305 304 304 304 304 305 305 304 303 306 306 307 307 309 309 310 307 308 308 307 307 309 309 310 315 315 312 313 318 317 318 318 319 320 319 320 321 322 322 322 323 322 321 320 319
305 304 304 304 304 304 305 304 301 308 309 309 308 307 309 310 309 311 308 306 308 311 308 311 313 320 318 319 319 319 320 321 321 321 321 321 321 322 322 321 322 321 320 321 320
304 304 304 304 304 304 305 301 304 305 307 307 307 310 310 310 311 311 309 309 310 307 310 312 313 316 321 320 320 318 318 319 320 321 320 320 321 321 321 321 322 323 321 322 325
304 304 303 303 304 304 302 303 304 303 306 308 308 308 309 310 311 312 312 312 310 309 310 311 313 315 320 320 320 319 317 318 319 320 322 322 324 323 323 322 322 322 321 321 323
303 303 303 303 304 303 304 303 304 303 308 309 312 310 310 310 311 310 312 314 312 310 309 309 311 314 315 319 315 316 317 318 319 320 321 322 325 322 322 322 322 320 319 319 323
301 302 303 303 304 304 303 304 305 305 308 306 308 311 311 311 313 312 311 313 315 312 312 311 311 312 315 315 315 317 318 320 321 323 323 324 323 322 321 323 322 320 320 321 322
303 303 303 303 303 303 304 304 304 310 311 308 307 306 310 313 312 314 314 312 313 315 311 311 312 312 313 316 317 315 317 319 319 320 324 322 323 323 322 323 323 322 324 322 322
303 303 303 304 303 304 304 303 309 311 307 307 306 306 307 308 313 313 314 314 313 315 315 313 312 312 313 313 313 313 312 316 319 321 325 321 323 324 322 322 322 322 323 322 323
302 303 303 303 303 303 304 306 309 307 308 307 306 305 307 307 307 309 313 316 314 314 314 314 314 314 313 312 312 313 315 319 323 325 325 322 326 325 322 322 321 321 322 323 324
302 303 302 304 304 303 306 306 306 307 306 307 306 307 307 307 306 308 309 314 315 314 313 314 314 315 315 314 313 312 315 315 319 322 323 323 323 323 323 324 323 325 325 324 325
302 303 302 304 304 305 306 304 305 305 305 307 308 307 307 307 307 308 309 313 316 315 313 314 313 315 315 315 313 312 312 315 315 323 325 324 324 325 324 325 327 327 325 324 324
302 301 302 304 304 305 307 304 305 304 304 306 307 306 306 307 308 308 310 312 313 313 314 314 314 317 315 315 315 312 314 314 313 317 323 324 324 320 322 324 326 325 324 324 325
300 301 302 303 306 305 303 304 304 304 305 305 306 306 307 308 309 307 309 310 311 311 313 313 312 315 315 315 315 314 313 313 319 320 319 321 323 321 320 320 325 324 324 323 323
301 301 302 302 306 306 305 304 304 305 306 306 307 307 307 308 309 309 310 310 309 309 313 314 316 316 314 317 315 315 314 314 313 318 321 324 324 319 322 321 325 323 324 324 323
301 302 301 302 301 304 306 306 306 305 305 304 306 305 305 306 307 309 308 307 307 307 313 311 316 318 316 317 317 316 315 315 315 316 319 322 322 325 326 326 327 325 324 324 324
296 301 303 303 303 304 303 305 305 307 305 303 304 305 306 307 307 308 309 309 308 309 310 309 312 318 319 316 315 319 316 316 318 318 320 321 321 322 325 325 327 325 323 324 324
300 304 301 302 303 302 302 305 306 306 307 307 306 306 307 308 308 310 311 310 309 309 311 308 310 315 321 318 316 316 318 316 317 318 320 321 321 320 322 326 327 326 325 326 325
302 302 302 301 301 299 299 303 305 306 307 307 307 307 307 308 309 309 308 310 310 310 310 310 311 310 319 318 316 316 316 317 318 320 321 322 321 319 323 328 328 326 326 326 326

GFSSW_925_thetae_024.txt.gz
Theta_e
308 308 309 308 308 309 310 310 310 309 309 309 308 307 305 303 303 304 307 309 312 311 311 319 319 327 327 326 326 322 328 329 329 329 328 325 328 324 323 324 322 322 322 321 322
306 306 307 308 308 308 308 308 309 310 310 311 310 308 307 305 305 310 309 310 311 310 311 324 328 327 325 326 326 327 328 329 325 325 326 326 328 327 326 326 326 323 321 323 321
307 307 307 306 306 306 307 308 308 309 310 310 310 310 308 305 307 305 309 311 311 309 309 315 325 325 325 324 326 326 331 328 326 325 327 328 328 329 327 327 327 325 326 322 319
307 307 307 307 307 306 304 306 307 308 308 309 309 309 309 306 303 312 314 319 321 316 311 316 324 324 324 325 325 329 328 328 326 327 328 329 327 329 329 328 327 326 324 321 318
306 307 307 307 307 307 307 305 305 306 307 307 308 309 309 309 306 309 318 307 310 319 313 316 319 323 325 324 325 326 326 326 325 324 326 327 329 329 328 328 326 324 320 320 319
305 305 306 306 307 307 306 306 307 305 304 307 308 309 309 310 308 307 305 305 306 315 317 314 314 316 317 316 318 321 324 322 322 323 323 326 325 325 325 325 322 322 320 320 319
305 305 305 306 306 306 306 306 307 306 307 305 307 308 308 309 309 308 305 307 306 306 309 318 316 315 314 316 313 315 315 314 315 316 318 320 319 321 321 321 321 320 320 319 320
304 304 305 305 306 307 306 306 306 306 307 308 306 307 307 307 308 309 309 308 308 308 306 309 318 315 314 314 315 317 315 317 317 318 317 318 319 319 320 320 321 320 320 318 319
303 304 304 304 305 306 304 305 303 306 308 307 306 306 306 307 309 308 309 309 309 309 306 308 313 314 313 315 314 314 315 314 314 315 317 319 319 319 320 320 320 320 320 320 318
304 304 304 304 304 304 304 304 304 306 306 306 306 306 306 305 309 308 308 309 307 305 306 307 313 314 311 313 313 315 314 315 314 317 316 316 317 319 319 319 319 319 319 319 319
304 304 304 304 304 304 304 303 304 305 307 306 306 306 306 309 309 310 307 308 307 307 305 308 310 316 314 314 314 314 314 315 316 318 319 318 318 319 320 318 318 319 319 319 318
304 304 304 304 303 303 304 300 304 303 305 305 306 307 307 308 308 309 307 307 308 308 307 309 311 312 314 315 316 316 317 318 318 319 319 319 319 319 319 319 318 320 320 319 320
303 302 303 303 302 304 302 302 303 304 304 306 307 307 307 307 309 308 310 308 308 307 307 308 310 312 317 316 318 318 318 318 318 318 317 317 318 318 319 320 319 319 320 319 319
303 304 303 303 303 303 303 302 304 304 307 307 309 308 307 306 309 307 310 310 310 308 308 307 309 311 315 318 318 318 319 320 321 319 318 318 322 319 320 321 320 320 317 317 321
304 304 304 303 303 303 303 303 304 303 308 304 309 309 309 308 308 309 308 310 312 310 308 308 309 309 313 317 319 318 319 320 319 317 319 320 322 322 320 321 321 320 319 317 321
303 303 303 303 302 302 303 303 303 309 309 307 306 306 307 311 311 311 308 308 312 310 309 309 311 310 312 314 317 316 316 315 316 316 319 317 321 320 321 322 321 320 321 322 322
301 301 303 303 302 303 303 302 306 307 306 306 306 306 306 306 311 312 313 308 312 314 312 310 309 311 311 313 314 313 312 313 315 316 319 319 320 319 320 320 320 320 319 321 322
301 301 302 302 303 303 303 304 306 305 306 306 306 305 306 307 306 307 310 312 309 311 314 313 313 311 311 311 314 314 312 314 316 321 322 319 323 322 320 321 320 319 319 322 321
301 301 302 303 303 303 306 304 303 307 306 306 306 307 305 306 306 307 307 314 314 311 312 314 314 313 312 312 313 312 315 312 315 319 321 321 321 321 320 321 320 320 323 323 322
301 301 301 304 304 304 303 303 304 304 304 304 307 306 306 305 305 307 308 311 312 310 310 312 314 313 313 312 312 312 312 314 313 319 323 322 323 323 323 322 325 325 323 322 322
300 300 301 303 304 305 302 303 304 304 304 304 306 306 305 305 306 305 309 311 311 308 311 313 312 315 312 313 311 309 312 311 311 315 319 322 322 319 321 321 324 323 322 322 323
299 297 301 302 305 303 302 304 304 303 304 305 305 305 304 307 308 305 306 307 309 310 309 312 312 315 314 312 313 312 311 311 314 314 315 319 320 319 319 319 321 322 322 321 322
299 299 301 301 304 306 305 305 304 305 305 306 306 305 306 308 307 309 309 309 308 309 309 312 314 315 314 314 313 313 312 312 313 313 316 317 317 318 319 321 319 321 322 322 323
296 300 298 299 301 305 304 304 305 305 305 304 305 305 305 306 306 308 309 308 307 309 311 311 312 317 316 315 313 314 313 312 310 311 318 318 319 321 323 322 323 322 321 322 323
295 299 303 300 300 303 302 303 304 305 305 305 303 304 305 308 308 309 310 310 308 310 312 310 310 313 313 316 317 315 314 313 313 313 315 317 319 320 320 321 323 321 321 323 323
298 300 301 300 301 300 300 305 304 305 304 306 306 306 306 307 308 309 309 311 311 309 311 310 309 311 311 315 317 319 315 314 314 313 313 316 317 316 319 324 324 323 324 324 324
300 301 302 301 301 298 297 303 303 303 304 306 306 306 306 306 307 306 306 308 309 311 311 310 309 309 310 311 315 317 317 315 314 315 315 317 317 318 323 325 324 323 324 325 325

GFSSW_925_thetae_027.txt.gz
Theta_e
308 308 307 306 306 307 308 308 309 309 310 311 311 311 309 307 305 304 305 309 311 310 313 321 323 325 327 327 328 327 331 330 328 329 328 329 330 327 327 330 328 328 329 328 324
308 309 308 308 308 306 305 307 308 308 309 310 311 311 310 308 308 309 307 308 309 309 318 322 322 325 326 328 330 331 332 330 328 327 328 328 328 329 330 330 330 330 329 325 324
307 308 308 308 308 308 307 306 306 307 308 308 309 309 310 308 307 306 312 312 315 308 313 317 320 325 327 329 330 331 333 330 329 328 327 329 329 329 330 330 329 330 330 331 330
306 307 307 307 307 307 308 307 307 307 306 307 308 308 309 308 310 310 312 309 308 321 312 312 321 325 325 328 329 330 330 330 329 329 329 330 329 330 330 330 329 329 330 330 329
305 306 306 306 306 306 306 307 307 308 307 305 307 308 309 310 308 312 319 311 308 320 315 313 320 321 321 324 326 330 329 329 330 330 330 329 329 329 328 328 327 329 329 328 327
304 304 305 305 306 307 306 306 306 306 307 308 307 307 307 308 307 308 308 308 306 316 315 313 316 320 321 322 324 324 327 326 327 328 328 327 326 324 324 325 325 325 324 325 326
304 304 305 305 305 306 306 306 305 303 306 308 307 306 307 306 306 307 308 308 307 306 309 313 315 317 318 319 320 319 322 322 322 322 321 319 319 319 321 321 322 322 324 325 326
303 303 304 305 305 305 305 303 303 304 307 308 308 306 307 305 306 307 307 309 308 308 308 307 313 316 317 316 317 318 319 320 320 319 319 318 320 320 321 322 323 324 324 325 326
304 304 304 305 305 305 303 303 302 306 307 308 308 305 307 305 306 308 309 308 310 310 308 308 310 315 316 318 319 318 320 319 319 317 318 320 320 320 321 322 323 324 324 324 325
304 304 303 303 304 304 303 302 306 306 306 306 306 306 304 306 308 308 309 309 310 310 309 309 312 313 313 317 320 319 318 318 318 317 317 318 319 320 322 322 323 324 325 325 326
304 304 303 303 304 303 303 303 307 307 304 307 306 307 305 305 307 307 309 310 310 308 310 310 311 316 315 314 316 319 319 321 318 318 318 321 322 323 323 323 323 324 325 326 328
304 304 304 304 303 303 302 303 303 303 306 305 305 306 306 306 307 306 307 310 310 309 310 310 312 314 316 315 314 314 316 317 318 318 320 322 322 322 322 322 322 324 325 326 328
303 303 304 304 303 303 302 303 303 304 306 306 306 306 307 307 308 308 308 309 309 309 310 312 313 312 313 316 316 316 316 317 319 321 320 321 322 322 322 323 322 323 326 327 327
302 303 303 303 302 302 303 302 303 304 308 306 307 308 308 308 309 308 307 309 309 310 309 311 312 312 312 315 317 318 317 317 318 319 324 321 326 323 322 321 323 325 327 327 326
301 302 302 303 303 302 302 302 303 303 303 304 310 308 308 309 308 310 307 308 311 310 310 310 310 311 313 314 316 317 317 318 318 321 322 322 323 322 323 322 323 322 326 327 325
301 301 302 303 302 302 302 303 303 308 303 306 307 306 307 308 308 309 309 308 310 312 310 312 311 311 312 313 316 317 319 320 321 322 325 324 323 323 321 321 321 323 326 328 328
302 301 301 302 303 302 303 304 306 306 303 307 307 305 306 308 308 308 309 309 310 314 314 312 311 311 311 312 316 319 320 322 323 324 328 321 321 322 321 321 323 325 328 329 329
301 301 302 302 302 302 302 306 305 302 304 305 306 305 305 307 306 306 309 315 308 313 316 315 314 312 312 312 316 319 321 323 325 323 322 320 320 319 322 323 322 325 326 328 329
300 301 302 302 303 302 305 305 302 305 305 305 305 304 306 305 304 306 309 317 312 308 312 316 316 314 312 313 314 318 319 319 320 322 322 321 323 324 325 326 326 325 326 329 330
300 301 302 303 303 304 306 303 303 304 304 304 305 306 305 304 305 305 308 311 313 312 311 314 317 315 313 313 315 317 318 317 319 318 318 322 326 323 327 328 328 328 329 330 329
299 302 301 302 303 304 306 305 304 304 304 305 304 305 304 302 306 306 306 307 311 311 311 313 316 316 314 313 314 315 318 318 318 318 317 319 322 329 328 329 330 331 330 330 329
300 304 300 301 305 304 306 304 304 304 304 305 304 304 305 304 308 307 305 307 309 310 314 313 318 318 316 314 314 314 317 318 317 319 318 321 321 324 328 327 329 330 329 329 329
301 301 300 302 304 305 304 305 305 305 305 306 305 305 306 307 308 308 308 309 308 309 310 314 318 319 318 316 316 315 315 317 318 320 318 318 321 323 324 326 326 330 329 329 329
301 303 304 303 302 303 302 304 305 304 305 306 306 305 306 306 307 307 308 308 308 309 311 312 314 319 318 317 318 316 315 315 317 318 317 317 317 322 323 326 328 328 329 330 330
300 302 303 303 303 301 301 303 305 304 305 305 306 306 307 307 307 308 309 310 309 311 311 312 314 313 314 314 316 319 316 315 316 317 318 317 317 321 321 325 329 328 329 330 330
303 303 302 302 301 301 301 303 304 304 304 304 306 307 306 307 307 308 309 311 313 311 312 312 315 313 316 315 316 318 319 316 315 316 317 318 321 319 322 326 328 329 329 330 330
299 301 303 303 302 302 303 303 303 303 304 305 305 305 307 307 307 307 307 307 308 310 313 312 313 315 317 314 317 319 319 319 317 316 317 318 319 319 322 325 329 330 330 331 331

GFSSW_925_thetae_030.txt.gz
Theta_e
309 309 308 308 309 308 307 305 307 308 309 310 311 311 311 309 308 313 311 310 312 311 314 325 323 324 328 330 331 331 333 333 332 331 331 331 331 331 331 331 330 331 331 331 330
307 308 308 308 308 308 307 308 308 307 307 308 309 308 308 308 312 313 311 308 307 309 312 323 323 322 328 330 331 333 333 332 331 331 331 331 330 330 331 332 331 330 330 330 330
307 307 307 307 308 307 306 307 308 308 308 307 308 308 308 310 313 313 314 310 309 306 310 316 319 321 323 326 330 333 334 332 332 331 331 331 331 330 331 332 332 331 330 330 330
305 306 306 307 307 307 307 307 307 308 308 308 307 307 306 311 312 319 310 308 314 322 313 315 321 321 323 323 328 333 332 332 332 331 331 332 332 331 331 331 330 329 328 328 330
304 305 305 306 306 306 306 306 307 307 305 307 308 307 309 312 311 311 314 313 311 321 316 317 318 323 327 326 325 329 330 330 330 331 332 331 332 332 331 329 329 327 326 327 327
303 304 305 305 306 306 306 306 306 305 306 307 307 307 309 310 309 310 310 311 311 313 320 317 317 321 327 328 327 327 327 327 329 331 331 331 331 330 329 327 326 325 325 325 325
304 304 305 305 305 306 305 305 305 302 305 307 308 309 310 308 307 308 308 309 311 310 316 318 316 320 324 326 326 326 327 327 327 327 328 328 328 327 325 324 324 324 325 325 325
304 304 304 305 305 306 306 304 302 302 306 308 309 309 310 306 306 307 308 310 310 310 310 312 315 318 321 322 322 324 326 327 327 326 325 325 326 326 325 325 325 326 326 326 325
304 304 304 304 305 305 304 302 301 305 306 309 309 310 308 307 307 307 307 309 310 311 312 310 311 316 319 320 324 325 327 328 327 326 324 324 326 326 325 325 326 326 327 326 325
304 304 304 304 305 304 302 303 306 307 308 309 308 308 307 305 307 309 309 311 312 312 314 312 312 315 318 322 328 326 327 327 329 328 322 323 324 325 324 324 327 327 327 326 326
305 304 304 304 305 304 304 305 308 309 307 308 307 309 307 306 306 307 309 312 312 313 315 314 313 316 318 320 323 325 327 328 326 326 325 325 326 326 327 327 328 328 328 327 327
300 301 303 304 303 303 304 306 306 306 307 306 307 306 304 305 306 307 307 311 314 314 314 315 314 317 317 319 319 321 324 326 326 326 326 324 326 327 328 328 328 328 327 327 328
301 301 302 303 302 305 304 305 305 305 308 306 307 307 307 307 307 307 307 308 313 314 314 316 316 315 316 318 319 320 321 323 324 325 324 325 325 327 328 328 328 327 326 326 326
303 303 303 302 304 305 305 305 305 306 309 305 309 310 310 310 311 310 310 308 311 314 314 314 316 316 316 316 319 321 320 320 321 322 323 323 330 329 329 330 329 328 327 326 329
304 304 303 301 304 305 304 304 305 306 304 307 311 309 310 311 310 311 310 310 309 312 314 315 314 316 317 317 317 319 320 320 320 322 324 324 327 329 329 330 329 328 327 326 331
303 303 302 304 303 303 304 304 306 309 305 306 308 308 308 309 310 310 311 312 309 309 314 314 315 315 317 316 317 317 319 321 322 323 327 325 327 330 331 331 330 329 325 325 334
303 301 304 303 304 302 303 305 308 307 304 305 307 307 307 308 309 310 310 313 312 310 311 315 314 314 315 316 317 317 320 324 326 327 328 326 329 330 329 327 329 326 325 332 334
301 303 304 304 304 303 304 307 304 302 303 306 306 305 305 307 307 308 309 315 313 310 311 315 318 315 315 316 317 319 322 324 326 330 330 328 330 330 325 327 327 325 325 333 334
302 305 305 305 304 304 308 307 304 304 305 305 305 304 304 306 305 305 308 309 315 312 312 315 318 316 315 315 318 320 323 322 327 328 327 329 328 325 324 324 324 324 324 332 334
303 305 304 304 304 305 307 306 305 305 305 305 305 304 306 305 305 305 308 310 311 313 315 316 321 318 315 315 317 320 321 324 325 331 331 327 325 326 325 326 326 330 329 331 335
304 307 304 304 303 306 311 307 306 305 306 306 305 305 305 304 304 304 307 309 310 311 313 316 318 320 317 316 317 319 322 323 325 325 329 327 325 324 325 326 330 331 332 335 335
304 308 303 304 308 305 307 305 305 306 306 306 306 306 306 306 307 308 308 309 309 309 314 315 319 322 319 317 318 318 320 323 324 326 323 323 322 327 328 331 329 331 335 335 334
306 305 304 305 309 308 305 304 305 306 306 307 307 306 307 308 308 308 309 309 309 311 314 315 319 323 322 319 317 319 320 322 323 325 325 323 321 324 328 330 331 334 334 334 334
306 308 306 305 304 303 304 305 305 304 306 306 308 307 308 308 307 308 308 311 310 311 311 313 318 322 322 319 318 319 319 321 322 323 323 322 320 325 328 330 332 334 334 334 334
306 307 305 308 305 303 304 304 305 305 305 305 308 308 307 308 308 308 310 309 312 312 313 315 317 319 319 318 318 322 318 318 321 321 321 320 320 320 327 326 331 333 334 335 335
306 305 304 305 304 303 305 306 305 305 305 305 306 306 306 307 308 309 308 309 312 310 315 314 320 318 319 317 318 320 320 318 318 320 320 319 320 320 321 321 327 332 334 335 335
302 303 303 305 304 304 305 305 305 305 306 305 306 307 308 308 308 309 309 309 310 311 313 316 317 319 319 318 318 321 320 320 319 319 319 320 320 320 323 322 326 330 333 335 335

GFSSW_925_thetae_033.txt.gz
Theta_e
308 308 308 308 308 308 309 309 309 309 309 308 309 309 308 306 305 313 317 316 315 314 313 324 326 328 330 330 328 330 332 334 333 333 332 331 332 333 332 332 331 331 331 332 332
307 307 308 308 308 307 307 308 308 309 310 309 308 304 304 304 311 313 314 314 312 310 314 324 326 324 328 333 330 333 336 335 333 333 332 333 332 332 332 332 332 332 332 330 331
306 306 307 307 307 307 307 307 308 308 308 309 309 307 301 307 314 314 315 314 311 309 311 315 323 327 326 326 333 333 335 334 333 332 333 333 333 332 332 333 332 333 332 331 331
305 306 306 306 307 307 307 307 307 307 308 308 308 308 303 311 314 320 309 309 311 313 312 313 316 323 326 328 327 331 332 334 334 333 333 333 332 333 333 333 332 332 332 331 329
304 304 304 306 306 307 306 307 307 307 304 307 308 308 309 312 313 314 312 314 315 318 322 321 318 320 327 327 328 328 328 329 331 332 332 332 333 333 333 333 332 331 331 330 328
304 304 305 306 306 306 306 306 306 304 306 307 308 308 310 311 311 311 312 312 315 316 321 322 321 322 326 328 329 329 330 329 329 329 330 332 332 333 333 333 333 331 330 329 328
304 304 305 305 306 306 305 304 302 301 303 307 308 309 310 310 308 309 310 311 312 314 316 319 322 323 324 326 328 329 331 331 331 330 330 329 331 332 332 332 332 330 328 328 328
304 304 304 304 304 305 304 303 302 302 302 308 309 310 312 308 307 307 308 309 310 311 314 315 318 323 322 324 326 327 330 332 330 330 329 329 332 330 330 331 330 329 328 328 329
305 305 305 304 305 305 305 302 303 303 306 308 311 311 311 308 309 308 308 309 310 312 313 313 315 319 321 322 325 328 331 331 330 330 330 330 331 329 328 329 329 329 328 328 329
304 301 303 304 304 303 302 303 306 306 309 310 310 311 311 308 307 309 310 311 312 313 314 316 315 316 318 322 326 326 328 328 329 329 329 330 330 330 328 328 328 330 328 328 330
304 303 302 302 302 302 304 307 310 312 311 312 310 311 309 308 307 307 308 311 313 314 315 317 316 316 317 319 323 325 326 328 329 329 329 330 331 331 328 327 328 328 329 330 331
303 304 304 304 301 302 306 308 308 307 309 308 307 307 306 306 306 307 306 309 313 315 314 318 318 318 317 318 320 321 323 326 328 329 330 330 330 329 329 328 328 329 331 331 331
303 304 304 304 302 307 307 307 306 307 309 307 307 308 308 308 308 308 308 308 309 315 315 316 319 317 317 318 319 321 323 325 327 328 328 329 330 330 329 329 328 327 328 330 331
304 304 304 303 305 306 306 306 306 306 310 307 309 309 310 310 311 310 309 308 308 310 315 316 315 318 318 318 318 321 321 323 325 326 329 328 331 329 327 327 328 329 331 331 330
303 303 303 302 305 307 306 305 305 306 309 308 310 310 311 311 311 313 312 310 308 309 310 314 316 316 318 319 318 320 321 323 324 324 326 325 326 326 325 327 329 330 331 331 331
303 302 303 306 305 305 305 306 306 310 308 307 309 310 310 311 311 311 312 312 312 309 310 313 315 317 317 318 319 319 320 322 324 325 327 326 326 328 327 328 329 331 332 331 330
302 302 305 306 306 305 305 306 310 309 307 308 309 309 309 308 309 309 311 312 315 312 310 310 313 316 317 317 319 320 321 323 326 328 330 325 327 328 327 328 330 330 331 329 328
302 303 307 306 306 306 306 309 312 306 306 306 306 306 306 305 308 308 308 310 311 313 319 310 311 315 317 317 319 320 321 323 326 328 326 325 329 328 330 330 330 331 329 327 335
304 307 307 306 306 306 308 314 307 307 306 306 305 306 306 305 308 307 307 308 312 314 322 315 310 314 316 317 318 320 323 322 324 326 326 328 330 331 330 330 329 329 330 328 336
306 307 307 306 306 308 309 309 308 307 307 307 308 306 305 306 309 309 307 312 310 309 312 319 318 312 316 317 318 319 321 322 325 327 329 330 331 332 328 327 327 326 326 329 336
307 309 307 307 307 309 311 309 307 306 307 307 308 308 308 307 306 306 305 311 310 310 312 316 321 321 315 319 319 319 321 322 324 325 328 331 333 330 328 328 329 327 328 329 337
308 310 305 306 312 311 311 306 306 307 306 307 308 308 309 309 309 308 310 311 309 310 314 315 320 325 320 319 318 319 321 323 327 328 327 330 331 325 327 328 330 332 331 332 338
309 308 307 306 311 311 307 306 307 306 305 306 307 308 309 310 311 310 310 310 310 311 316 316 321 322 327 323 319 319 320 323 326 328 329 329 331 325 329 331 330 333 335 338 337
309 312 308 308 307 306 308 307 306 306 305 306 306 308 309 309 309 310 310 311 310 312 313 313 318 322 329 325 319 320 320 323 326 328 330 329 325 326 330 333 334 336 337 337 337
308 310 307 309 309 306 306 307 309 308 307 307 307 308 308 309 308 309 311 311 310 311 314 315 319 316 319 324 324 319 320 321 325 326 329 328 326 326 331 333 333 336 336 337 336
309 307 306 306 307 306 307 308 308 307 307 308 308 309 309 310 310 310 310 310 313 311 315 315 322 318 317 319 323 321 320 321 322 325 326 325 325 324 326 326 330 334 336 336 336
305 303 306 305 307 309 309 307 307 306 307 308 308 308 309 309 310 310 310 310 310 311 312 315 320 319 322 320 323 322 322 321 322 324 324 324 322 323 323 324 326 333 335 336 336

GFSSW_925_thetae_036.txt.gz
Theta_e
307 307 308 308 309 309 309 309 309 309 309 310 309 309 306 302 301 310 314 315 317 316 315 325 333 330 332 336 332 327 328 330 331 332 332 332 332 332 332 332 332 332 331 331 331
306 307 307 307 307 308 308 308 308 308 309 309 306 302 304 303 310 312 311 313 316 315 316 318 323 327 330 331 332 330 330 330 331 332 333 333 333 333 333 333 333 333 333 332 332
306 307 307 307 307 307 307 308 308 308 308 309 308 303 301 305 314 314 314 313 313 315 314 318 322 328 327 327 329 333 333 331 332 333 333 333 333 333 334 334 333 333 333 333 333
306 306 307 307 307 307 307 307 308 308 308 308 308 308 303 310 314 315 311 314 313 314 313 314 316 319 329 329 326 327 332 332 332 333 333 333 333 333 333 334 333 334 334 333 333
304 305 305 306 307 306 304 304 306 307 304 303 307 309 309 310 312 313 313 314 314 313 313 316 317 318 320 325 328 328 327 328 331 332 332 332 333 333 333 333 333 333 333 334 333
305 305 305 305 305 305 305 304 303 303 303 305 308 308 310 310 309 311 313 314 314 316 318 319 319 320 322 323 325 328 327 328 329 329 329 330 330 330 331 332 333 333 334 334 334
305 305 305 304 304 304 304 304 304 304 304 307 308 308 310 309 308 310 310 312 314 315 318 319 323 325 325 324 324 326 329 330 330 329 331 331 332 332 331 331 331 333 333 333 333
304 302 301 301 301 301 301 301 301 302 305 307 309 309 310 308 309 309 309 309 309 311 313 314 317 318 323 325 325 326 327 330 329 330 330 331 333 332 331 331 332 331 332 333 333
305 305 304 303 303 302 301 300 300 303 305 307 311 310 312 310 310 310 309 309 309 310 311 313 315 318 319 323 326 327 329 328 329 328 329 331 332 332 332 331 332 332 331 331 331
304 304 304 304 303 303 302 302 307 308 309 311 311 312 313 312 310 310 311 311 310 310 312 314 315 316 318 320 328 327 327 328 329 329 329 330 331 332 332 332 333 332 331 330 330
304 305 305 305 305 303 305 309 309 311 312 315 314 314 312 310 309 308 308 309 312 313 313 313 316 317 317 318 320 325 327 327 328 328 330 330 331 331 332 332 332 333 332 331 332
304 304 305 305 302 302 306 310 309 308 308 308 308 308 307 306 307 308 308 308 309 314 315 314 317 318 317 317 317 319 323 325 326 326 328 329 330 332 332 332 332 333 331 332 332
303 303 304 302 302 307 309 308 307 307 309 308 308 308 308 308 308 308 308 308 307 310 313 314 316 316 318 317 317 319 320 323 324 324 326 327 329 332 331 332 332 331 332 332 332
302 302 301 304 307 307 308 307 306 307 309 308 308 309 309 309 309 309 310 309 308 307 310 314 315 314 317 318 318 321 319 319 321 323 326 324 330 333 332 332 333 332 332 331 331
302 302 303 305 307 308 306 306 307 307 312 310 310 310 312 311 313 314 313 310 308 308 308 309 314 315 315 318 319 320 318 320 321 323 325 324 328 329 330 331 329 330 330 331 332
301 302 304 307 307 307 306 306 307 310 313 311 311 311 312 311 313 313 313 313 312 310 309 308 310 312 316 315 317 319 319 320 321 323 327 328 328 328 329 330 329 330 330 330 333
301 303 304 306 307 306 306 307 311 313 308 309 308 308 308 309 312 311 311 311 314 315 313 312 310 310 311 315 316 317 323 324 325 325 327 326 327 328 329 328 328 329 330 331 333
302 304 307 308 307 307 307 310 313 306 307 306 306 306 305 307 307 307 309 308 309 313 317 318 318 310 311 313 317 318 322 324 324 325 325 323 327 328 329 328 329 332 331 333 333
304 310 309 308 307 307 309 315 309 308 306 306 309 308 307 308 308 308 310 310 310 312 318 317 317 315 311 313 316 318 319 321 325 323 324 325 327 328 328 330 331 330 333 334 340
305 309 310 308 308 308 310 311 308 307 306 307 309 311 310 309 309 310 310 310 311 309 313 312 316 315 317 312 314 318 319 321 324 326 328 326 328 330 333 333 332 333 332 334 341
308 312 309 308 308 311 313 311 308 306 306 308 309 308 311 311 311 309 308 309 311 310 310 312 315 318 318 314 314 318 319 320 325 324 327 329 328 331 335 333 330 332 331 334 341
309 313 308 307 312 313 312 307 306 308 307 306 306 309 310 311 311 312 309 313 311 311 311 313 318 320 318 318 315 319 319 321 324 328 326 326 328 331 329 328 329 331 330 337 340
311 310 310 308 312 313 308 308 308 308 310 308 307 307 310 311 312 313 313 311 311 311 314 315 319 320 319 320 321 320 319 322 325 329 328 326 329 330 328 328 331 333 331 338 340
311 314 311 309 309 309 310 308 308 309 309 308 307 308 311 312 309 310 311 313 311 311 312 313 316 318 323 324 325 325 321 321 324 327 326 328 328 328 328 332 334 337 338 340 339
311 311 310 312 310 308 308 308 309 309 308 307 308 309 309 309 309 310 311 312 311 313 313 314 318 316 315 317 321 323 325 321 323 326 327 328 328 328 332 334 338 340 341 340 339
312 308 307 308 308 309 309 309 310 308 308 308 310 309 308 310 311 312 310 310 310 313 313 313 319 319 318 314 318 321 322 323 321 324 327 329 329 332 334 333 337 338 339 339 339
307 307 307 307 309 311 310 308 308 308 308 308 308 308 310 310 310 310 310 310 310 311 312 314 319 320 320 316 317 321 323 325 324 324 327 330 331 330 329 327 335 338 338 338 338

GFSSW_925_thetae_039.txt.gz
Theta_e
307 307 307 308 308 308 308 308 308 308 306 304 304 304 305 305 302 306 311 309 314 315 316 322 330 330 328 330 332 333 330 325 325 326 328 328 330 331 332 332 331 331 331 330 331
307 307 307 308 307 307 308 308 308 308 308 305 302 301 301 303 307 311 307 307 310 315 315 316 319 327 330 329 334 336 332 328 326 326 327 329 331 331 332 333 332 332 332 332 331
306 307 307 307 307 307 307 304 304 308 308 308 306 301 300 303 312 312 314 314 311 313 315 316 317 319 325 325 329 331 332 329 327 327 328 330 331 332 332 332 332 332 331 330 330
306 307 307 307 307 306 305 304 304 304 304 306 306 304 302 308 310 312 312 312 313 312 315 315 314 315 319 326 325 327 328 331 331 330 329 329 330 332 331 330 329 330 331 332 330
306 307 306 304 303 303 303 303 304 305 304 304 306 308 307 308 309 306 311 314 313 314 314 314 314 314 314 318 326 326 325 325 329 330 329 330 331 331 329 330 329 329 329 328 329
303 302 301 301 301 301 300 300 300 301 302 306 308 308 309 308 305 306 308 310 315 313 313 313 313 314 315 316 317 322 325 327 326 325 325 327 328 328 328 327 328 328 327 327 328
305 304 304 303 302 302 302 301 301 300 304 307 309 309 308 308 302 305 307 307 308 310 315 316 316 316 317 317 319 320 321 322 323 325 326 326 327 328 327 328 328 328 327 327 327
305 303 304 304 305 303 302 302 300 300 304 307 310 309 308 304 306 307 308 309 309 309 309 311 312 313 316 318 321 325 324 324 323 324 325 327 329 327 327 328 328 328 328 327 326
305 305 305 304 304 304 302 301 302 303 306 306 310 310 310 309 309 309 308 308 308 309 310 310 311 312 314 316 318 321 326 324 324 324 325 327 328 327 327 328 328 328 328 328 326
305 305 305 304 304 302 301 306 308 309 310 310 311 312 311 312 311 310 311 310 310 309 309 309 310 311 311 313 320 322 325 325 325 324 325 325 326 326 326 326 327 328 328 328 327
304 302 302 301 301 301 303 307 307 310 311 309 311 314 314 313 313 309 308 309 309 309 307 308 309 312 312 313 316 319 324 325 325 324 324 324 325 326 326 325 325 326 326 327 327
301 301 301 301 304 305 307 309 308 306 306 307 307 307 308 308 308 307 306 306 308 308 312 311 309 311 314 314 315 317 317 318 321 324 324 324 325 326 326 326 326 326 327 327 326
300 301 301 303 307 309 308 307 306 307 305 307 307 307 307 307 308 307 307 306 306 306 307 312 312 312 313 315 316 315 316 316 317 318 319 320 321 322 323 324 326 327 326 326 326
300 301 301 305 307 308 307 307 306 307 306 308 312 310 308 307 307 308 308 307 306 305 306 306 309 314 313 314 316 316 316 316 317 318 319 319 321 320 321 322 324 325 325 325 325
300 301 302 306 306 308 306 306 306 307 311 311 311 310 310 310 312 313 309 308 308 308 306 305 307 309 313 313 314 316 318 317 318 317 317 318 319 320 323 325 326 326 325 325 324
300 301 303 307 308 307 307 307 307 310 312 311 308 307 307 309 310 313 313 312 311 308 307 307 307 307 307 309 314 314 316 317 316 316 317 318 319 320 320 321 324 324 324 324 322
301 302 303 304 308 308 307 307 310 311 307 306 306 307 307 306 308 310 311 313 313 313 311 310 309 308 308 307 309 311 312 314 318 318 319 318 320 321 321 322 324 324 323 324 324
301 305 307 307 309 307 308 308 309 308 306 305 306 309 309 309 309 309 308 308 311 312 313 316 318 315 313 308 307 309 313 314 318 320 319 319 321 320 322 323 323 323 323 325 324
302 307 310 310 308 308 307 310 309 309 306 305 307 309 309 309 309 310 309 310 310 313 315 316 313 312 310 310 309 308 309 314 315 317 319 319 319 319 319 320 322 323 326 326 336
303 307 310 309 308 308 309 311 309 308 307 308 307 310 311 308 311 311 310 311 310 312 312 311 313 310 308 310 315 315 311 315 315 317 320 321 320 320 320 322 324 326 325 335 338
305 311 310 308 308 310 311 311 309 307 308 310 309 307 309 312 312 312 312 311 312 311 310 309 312 312 311 312 316 315 310 310 314 315 319 322 321 320 322 329 325 326 325 338 338
306 312 308 307 310 311 311 308 308 307 309 309 309 307 310 310 311 311 311 311 312 312 311 313 316 318 316 314 314 316 312 310 314 317 318 320 321 320 323 329 326 326 327 337 336
306 310 310 309 311 308 308 307 307 307 310 309 309 310 309 310 312 313 312 312 312 313 312 312 314 318 316 315 315 318 320 315 315 316 318 318 322 319 321 325 327 324 335 337 337
308 312 310 310 309 309 309 309 308 309 309 308 307 308 310 311 309 310 312 312 310 312 313 313 312 315 317 317 317 321 320 320 320 319 318 321 320 320 324 327 328 330 337 337 337
308 310 308 308 307 308 308 309 309 310 307 307 308 308 308 308 308 310 311 310 310 313 313 313 314 314 314 316 316 316 316 317 318 321 320 319 321 319 324 334 332 334 336 336 337
310 308 307 307 307 310 309 310 309 309 308 309 309 309 308 310 310 311 310 310 310 310 313 314 314 315 319 318 316 316 315 316 316 318 321 320 321 323 333 337 337 336 336 337 337
305 306 307 307 308 309 309 310 310 308 308 308 308 309 310 311 310 308 308 308 309 310 310 314 315 319 320 317 317 317 315 314 316 317 320 321 323 329 331 336 335 335 336 336 336

GFSSW_925_thetae_042.txt.gz
Theta_e
307 307 307 307 308 308 307 307 306 303 303 303 307 305 303 303 301 303 308 306 309 312 311 320 324 320 321 324 329 329 331 327 325 326 326 325 328 328 329 330 330 330 329 329 333
307 307 307 307 307 306 305 305 304 303 303 301 301 301 304 301 306 310 305 306 307 311 315 316 316 328 329 328 330 332 335 333 325 325 324 325 325 327 330 330 331 330 330 331 332
307 308 307 307 307 307 306 304 306 307 308 305 303 301 302 302 310 309 312 312 313 307 312 316 315 317 324 327 328 333 337 335 333 328 326 326 327 328 329 330 330 331 330 329 329
306 306 306 306 306 306 305 304 302 304 307 308 308 308 306 306 300 312 310 312 313 313 318 315 313 314 315 321 325 328 332 333 332 330 330 330 329 329 328 329 328 328 329 329 329
306 305 303 302 302 302 302 303 306 306 303 303 307 308 307 307 308 305 305 303 308 316 315 314 313 313 313 314 322 325 327 327 326 326 329 329 329 329 329 329 328 327 326 326 326
304 302 302 302 302 302 302 302 302 304 307 307 307 309 307 306 301 301 304 307 308 310 314 312 312 312 313 314 314 318 321 324 324 323 322 324 326 326 327 326 326 326 325 324 324
303 303 302 301 301 300 300 300 300 300 304 308 308 309 308 307 302 301 303 303 305 306 308 312 313 313 313 315 315 317 317 318 319 319 321 323 324 325 325 325 326 326 325 324 324
304 302 301 301 301 300 300 301 306 307 307 308 310 309 308 306 305 304 304 306 308 309 308 309 310 312 312 313 316 318 319 320 320 321 321 322 324 325 325 325 326 325 326 326 325
304 304 304 305 305 305 302 306 308 308 308 309 310 309 310 309 309 311 308 307 308 308 308 309 309 310 312 314 315 315 322 323 323 322 322 322 324 324 324 325 325 325 325 325 325
304 304 304 303 301 304 305 307 308 310 311 310 310 312 310 312 311 312 310 309 309 308 308 308 306 309 308 312 319 318 319 321 323 324 323 324 323 323 323 324 324 324 324 325 325
302 301 300 300 301 305 307 308 305 304 305 305 306 311 311 310 311 311 310 307 310 308 306 307 305 309 309 312 315 317 320 322 323 323 323 323 324 323 323 322 322 323 323 323 324
299 300 301 301 305 307 308 307 306 305 305 306 305 306 306 306 306 307 307 305 305 306 307 306 307 307 310 312 312 313 315 316 316 316 320 323 323 323 323 323 323 323 324 323 321
300 300 301 304 306 307 307 306 306 306 305 306 309 310 307 307 307 307 307 306 304 304 305 310 309 310 309 310 313 313 313 315 316 316 315 315 316 317 318 318 319 320 322 322 322
301 301 301 303 306 307 307 307 306 306 305 308 309 309 309 307 307 307 307 306 304 304 304 304 305 307 310 309 311 313 314 314 314 314 315 315 316 316 317 318 318 318 320 318 320
300 301 301 303 306 306 307 307 307 305 307 308 309 308 308 308 309 311 311 307 306 305 304 305 305 306 308 309 312 311 314 315 315 315 314 315 314 316 317 318 318 318 319 320 321
301 301 302 305 305 307 307 307 307 305 308 308 307 308 308 309 310 312 313 309 309 306 306 306 305 305 305 306 307 308 312 313 314 313 316 315 315 316 316 316 317 320 321 320 319
301 302 304 303 306 308 307 304 304 306 307 306 306 307 308 308 309 311 311 313 314 315 311 307 307 306 307 306 306 306 306 311 313 316 317 315 315 317 316 317 316 317 319 319 319
302 303 308 309 308 308 307 304 306 308 308 308 307 308 308 308 308 309 309 311 311 311 313 314 315 314 312 309 306 304 305 310 313 317 317 316 317 316 316 316 317 317 319 320 318
303 306 307 310 307 308 303 303 308 309 309 309 308 309 309 308 309 310 310 310 311 311 312 314 314 310 309 308 308 309 306 306 310 312 313 316 316 317 317 317 317 317 319 319 323
304 306 309 309 308 308 304 309 309 308 309 309 310 309 310 309 310 309 311 311 312 312 309 310 311 310 309 309 307 310 311 308 308 314 315 316 318 318 317 317 317 317 317 325 335
306 306 310 309 308 303 302 308 307 307 307 309 310 310 309 310 310 310 311 310 312 313 310 309 310 310 311 310 307 313 313 310 308 310 315 315 316 316 317 316 317 320 320 336 337
303 307 309 308 305 302 305 308 307 307 308 309 308 309 310 309 310 311 313 311 311 312 313 312 312 314 310 309 311 313 314 313 309 309 313 315 315 316 315 315 318 320 336 337 337
302 304 309 308 310 305 305 308 308 307 309 310 309 309 308 309 309 311 310 311 311 311 312 311 310 311 310 312 313 315 317 318 315 308 310 314 316 315 316 316 318 324 336 337 336
304 308 303 302 303 305 306 309 309 308 309 307 307 307 308 308 308 308 308 310 309 310 313 311 312 312 310 312 313 315 317 316 317 319 312 312 313 315 316 316 316 328 335 337 336
302 306 304 303 305 304 306 307 309 310 307 306 308 308 308 309 309 309 310 309 309 310 313 314 315 313 312 313 314 315 316 315 316 317 319 319 319 317 317 315 316 328 335 337 337
302 304 304 306 305 307 306 309 312 310 309 308 309 308 307 309 311 311 310 309 309 308 310 310 314 314 315 313 315 317 317 316 314 315 316 316 318 318 318 328 330 335 337 337 337
302 304 304 306 305 306 308 309 310 309 309 309 308 308 309 310 309 309 308 308 307 307 307 312 314 314 314 316 318 318 316 315 314 315 318 319 318 319 329 334 334 336 337 337 337

GFSSW_925_thetae_045.txt.gz
Theta_e
307 308 308 307 307 307 308 308 308 308 308 308 309 308 306 304 300 301 305 303 306 309 309 314 323 321 322 325 327 324 327 327 326 325 325 322 323 325 327 329 328 328 329 328 331
307 306 306 307 307 307 306 306 307 307 308 308 308 308 308 304 305 306 302 306 304 304 315 311 315 322 318 322 328 330 329 328 325 325 325 328 325 324 327 327 328 328 328 330 330
307 307 307 307 307 307 306 305 305 305 306 307 308 308 308 305 305 304 311 314 314 310 307 315 315 319 329 327 327 331 334 329 328 329 328 327 327 326 327 326 327 329 328 327 328
307 306 306 306 306 306 306 307 307 307 308 307 307 307 308 305 297 309 308 308 303 305 316 314 313 314 314 324 326 330 332 331 330 330 333 333 331 330 329 327 327 327 328 327 326
306 306 305 305 305 306 306 306 306 307 307 307 307 307 307 305 306 303 302 301 304 312 316 317 313 313 314 314 319 321 326 329 332 332 330 328 329 329 329 328 327 327 328 325 325
303 303 303 303 304 304 301 301 301 303 307 308 308 307 306 307 304 302 301 301 304 305 311 315 311 311 312 312 315 316 319 323 324 323 323 325 325 324 325 326 326 324 324 323 322
302 301 300 300 304 302 302 303 305 306 308 309 309 308 308 308 306 306 306 305 304 303 305 311 313 314 311 313 313 314 315 316 316 317 318 321 322 324 324 323 324 324 324 323 323
303 303 304 304 306 305 304 306 307 308 309 311 309 308 309 307 307 307 308 307 306 305 306 307 308 310 312 312 314 317 317 318 319 318 318 320 324 324 323 323 324 324 323 323 322
304 304 303 305 306 306 305 307 307 309 309 310 309 308 309 310 310 309 309 307 307 307 308 309 308 308 311 312 314 314 320 320 321 320 321 321 324 323 323 323 323 322 323 323 323
304 303 303 303 303 305 307 306 306 309 309 310 310 309 308 306 306 306 306 308 307 307 307 306 305 307 307 312 317 317 317 319 321 322 322 323 322 321 322 322 322 321 322 322 322
300 301 300 301 304 306 307 306 303 304 304 304 305 307 306 306 306 307 306 306 307 307 306 305 305 308 310 312 314 315 317 319 320 320 323 323 323 323 322 320 321 321 321 321 320
299 300 300 302 305 306 306 306 305 305 304 305 305 306 307 307 307 307 306 306 304 306 305 305 307 309 309 309 310 311 312 313 315 316 316 317 320 318 319 321 321 321 321 321 321
300 300 300 302 305 306 306 306 306 305 304 306 306 309 308 307 307 307 306 306 305 303 304 305 307 308 308 308 310 311 312 313 315 315 314 314 316 315 315 315 316 317 317 318 319
300 301 301 302 305 306 306 307 307 305 303 306 309 308 308 307 307 308 307 306 304 303 303 303 304 305 307 307 307 309 311 313 313 313 315 314 317 314 314 314 314 315 316 314 316
301 302 302 302 304 306 307 307 307 304 305 306 307 308 307 307 310 311 310 306 305 305 303 304 304 305 306 307 308 307 308 310 312 313 312 313 312 314 314 314 315 315 315 314 316
302 302 302 304 305 307 306 307 305 303 305 307 307 307 307 308 310 310 311 308 306 305 305 303 304 304 304 305 305 307 308 310 310 311 313 313 313 313 313 313 314 314 314 316 315
302 303 303 305 306 308 307 302 302 306 307 309 308 307 307 308 308 309 310 310 312 310 307 305 305 305 305 304 305 305 304 309 311 312 315 313 313 314 313 315 314 313 313 314 314
304 306 305 309 309 308 306 301 306 308 309 308 308 308 308 308 308 309 309 312 312 313 314 314 313 307 310 305 305 302 303 307 313 316 313 314 316 315 314 315 315 315 313 313 313
306 308 307 310 308 307 300 301 307 308 308 308 309 308 308 308 309 309 310 311 311 312 313 314 315 310 309 307 307 308 304 304 305 308 310 313 314 315 315 314 315 313 313 312 313
305 306 309 309 307 306 302 308 308 306 307 308 310 309 308 308 310 309 310 312 313 312 308 310 309 310 310 309 307 306 308 305 303 309 313 313 314 316 315 314 314 313 313 313 313
305 305 309 308 307 303 307 305 307 307 307 309 310 309 308 308 308 309 311 311 311 312 310 309 309 309 310 309 306 308 312 312 305 306 311 313 314 312 314 314 315 314 314 317 321
300 306 308 307 305 300 302 307 308 308 307 310 309 308 309 309 309 310 311 311 310 310 312 310 310 313 310 307 307 308 312 311 310 310 309 311 312 312 313 311 312 313 314 330 334
301 302 308 306 300 298 303 307 307 308 308 309 308 308 308 308 308 310 310 309 309 311 311 312 309 310 308 311 312 312 312 312 315 312 313 310 311 311 310 311 312 311 319 334 334
304 305 300 299 300 305 305 308 308 308 309 307 306 307 307 307 306 308 308 309 310 310 311 311 312 309 309 310 311 313 313 316 315 315 316 314 312 310 310 313 315 315 331 334 334
300 302 302 301 302 303 304 306 308 311 309 307 306 308 308 309 308 309 309 309 309 309 310 312 315 312 311 312 312 313 313 313 315 315 318 315 315 314 315 315 317 317 319 334 336
298 300 301 302 302 304 304 307 309 308 309 309 309 308 307 307 309 310 309 309 309 308 311 309 309 312 312 313 313 314 314 313 315 316 315 315 315 313 314 315 321 331 329 334 337
300 301 300 300 305 305 305 308 307 308 307 308 309 308 307 307 308 308 308 308 309 309 308 311 312 310 310 312 313 316 317 315 315 315 313 314 314 316 317 318 321 332 330 335 337

GFSSW_925_thetae_048.txt.gz
Theta_e
306 307 307 307 307 307 307 305 303 304 307 308 308 309 309 308 301 303 304 301 303 304 307 310 317 320 323 325 326 321 323 324 326 324 324 322 325 322 323 327 326 327 328 328 329
307 307 307 307 307 307 307 307 308 308 308 308 308 308 308 305 305 306 303 307 311 309 306 312 312 321 317 320 326 328 324 322 323 324 323 325 326 325 324 324 326 327 327 327 329
306 307 307 307 307 307 307 307 307 306 308 308 308 308 308 305 301 298 310 308 304 303 309 312 314 320 316 322 325 329 332 327 324 324 325 326 328 326 327 327 324 327 325 325 326
305 306 306 306 306 307 308 307 307 307 307 307 307 308 307 304 297 306 312 305 301 307 311 316 311 314 319 328 325 331 330 330 327 326 331 331 329 330 327 328 325 326 325 325 325
305 305 305 305 305 305 306 305 306 307 309 308 308 307 306 303 302 301 302 302 302 306 319 316 312 313 313 315 324 327 327 329 331 331 331 330 331 330 329 327 326 326 326 325 324
303 302 300 301 305 305 302 304 306 306 309 309 308 307 306 304 303 304 306 306 307 306 304 314 314 311 312 313 320 317 322 325 324 323 324 325 326 325 325 325 324 323 324 322 321
299 299 299 300 304 304 303 306 306 307 308 312 309 307 307 305 305 307 307 308 308 306 303 304 312 313 311 312 311 313 315 314 315 316 318 322 323 325 324 323 323 323 323 321 320
301 300 300 300 303 304 305 306 307 309 308 308 309 307 308 307 308 309 309 308 307 307 305 303 305 306 310 311 313 315 314 317 318 315 317 321 324 324 323 323 323 323 323 322 320
303 303 300 301 304 304 306 306 306 308 308 309 309 307 307 307 309 306 307 307 306 307 305 306 306 306 310 311 312 313 318 317 318 318 319 319 322 322 322 322 322 321 320 320 319
303 303 301 300 302 305 306 305 305 306 308 309 310 307 304 305 306 307 307 306 307 306 306 306 304 306 307 310 315 314 316 316 318 319 318 319 320 320 321 321 320 319 319 319 320
303 303 302 301 302 305 306 306 303 302 303 304 304 305 305 305 306 307 307 306 305 306 305 304 305 308 310 311 312 313 315 317 318 317 321 320 320 320 319 319 320 321 321 321 321
300 303 302 301 302 305 306 305 305 304 303 304 304 304 304 305 307 306 306 305 304 304 304 304 305 307 309 309 311 311 312 312 313 314 315 315 314 313 315 316 318 320 320 319 319
297 304 303 301 303 305 305 306 305 305 303 304 304 305 307 307 307 306 305 305 304 304 304 303 306 307 307 309 310 309 311 312 314 313 313 313 315 315 315 313 313 314 314 316 318
300 303 304 301 304 304 305 306 307 305 302 303 307 308 307 305 308 308 308 305 304 305 303 301 302 305 306 307 307 308 310 312 313 313 314 313 316 314 314 314 313 313 313 313 313
301 304 304 304 304 305 306 307 306 302 303 306 306 306 306 306 307 310 309 310 305 303 302 302 303 303 305 305 306 307 309 310 311 311 312 312 311 312 311 312 312 312 313 312 310
300 303 304 303 304 306 306 307 304 303 303 307 307 306 306 306 307 309 309 308 307 305 304 302 303 303 303 305 306 307 307 307 309 310 312 311 311 312 311 311 311 311 311 311 311
303 305 303 304 304 306 307 301 302 304 306 308 307 307 307 307 307 308 310 311 313 306 305 305 304 304 304 304 304 304 303 307 310 311 311 311 311 312 311 311 312 312 311 310 310
305 307 306 308 308 307 304 300 305 308 308 307 307 307 307 307 307 308 310 311 313 313 314 310 312 305 305 304 304 302 301 307 312 313 309 312 314 313 312 312 312 312 311 310 310
306 308 308 309 307 307 299 301 307 308 307 307 307 308 307 307 308 307 308 312 313 312 316 315 313 311 308 307 305 306 302 302 303 306 306 310 311 311 312 312 312 312 311 310 309
305 306 308 308 307 304 301 307 307 306 306 307 309 308 308 307 307 307 308 312 312 311 309 309 310 310 310 308 306 305 304 305 301 307 310 310 311 313 312 312 311 312 311 311 311
304 304 307 307 306 301 301 305 306 306 307 309 309 309 308 307 307 308 309 310 311 310 310 309 309 309 308 308 305 307 307 308 303 304 310 311 311 309 311 312 313 311 310 310 321
300 306 306 306 303 294 300 306 307 307 307 308 309 309 308 308 308 308 310 310 309 309 311 310 310 312 310 307 307 306 308 310 310 310 306 307 308 309 310 309 309 309 312 314 331
303 303 306 303 298 296 301 305 306 307 307 309 308 307 307 308 309 307 309 308 308 310 310 310 308 310 308 311 310 311 311 308 311 313 314 309 308 308 308 310 309 311 315 317 333
302 303 299 297 298 303 306 305 307 307 308 307 307 306 308 307 306 307 308 307 307 309 311 311 309 308 307 309 310 310 310 310 313 315 313 313 312 311 311 311 311 312 314 316 331
296 299 303 299 299 300 304 305 308 308 308 307 307 307 309 310 308 307 307 308 308 308 309 310 313 312 311 311 311 311 312 311 312 313 316 314 313 313 312 312 312 312 314 325 330
296 300 299 298 299 304 305 307 308 308 308 307 309 309 309 309 307 309 308 308 309 308 310 310 312 310 311 309 309 312 312 313 312 312 312 313 314 312 312 312 312 313 316 329 329
300 299 300 300 299 300 301 306 306 305 307 307 308 309 308 307 306 306 306 306 308 311 309 312 311 311 309 309 311 309 311 310 312 311 312 313 312 311 311 312 314 314 320 328 330

GFSSW_925_thetae_051.txt.gz
Theta_e
306 307 307 308 307 307 307 307 308 308 308 308 309 309 308 301 299 304 304 302 304 303 303 305 315 320 325 328 327 324 322 322 321 323 321 324 325 327 325 327 327 329 330 329 330
306 306 306 306 307 307 307 307 307 308 308 308 308 308 308 305 306 305 309 311 305 303 312 307 311 321 322 326 328 329 328 324 321 322 324 323 327 327 327 328 329 328 329 329 329
306 306 306 306 306 306 305 306 307 308 308 309 309 308 307 304 302 303 315 310 301 305 311 311 315 315 321 320 326 329 331 326 323 322 323 324 324 326 326 328 329 329 330 330 329
305 306 306 305 306 306 306 306 306 308 309 310 310 308 307 303 301 307 312 304 305 308 313 315 310 316 317 320 322 325 327 328 327 325 325 325 325 325 327 327 328 329 330 330 329
304 304 303 302 300 301 301 302 305 307 309 309 308 307 304 304 302 301 305 307 307 306 306 316 312 310 316 319 320 324 323 326 328 328 327 327 328 328 329 329 329 330 329 329 329
304 304 304 304 303 302 304 305 306 306 307 310 309 307 306 305 303 304 307 309 308 307 307 306 315 312 312 316 320 322 324 323 324 330 331 331 331 331 330 329 329 328 328 328 327
303 303 304 304 304 303 305 306 306 307 309 312 310 307 308 307 305 306 307 309 307 307 308 307 305 312 313 312 315 319 320 321 326 326 328 326 329 329 327 327 327 327 327 327 327
301 301 303 304 301 303 305 306 305 306 307 307 309 307 308 305 307 307 307 308 307 306 306 306 305 306 313 313 314 316 317 320 321 319 322 324 328 327 326 326 326 327 327 326 327
302 303 303 305 303 303 306 305 305 306 309 310 308 308 307 305 307 307 307 308 307 307 306 306 306 305 312 314 314 316 319 320 320 320 320 321 325 325 324 324 326 327 327 326 326
302 302 304 305 302 303 306 304 305 310 310 309 309 309 307 306 306 306 307 307 307 308 308 308 308 309 311 314 316 316 317 318 320 320 320 321 323 324 324 324 325 326 326 326 326
302 302 304 304 301 304 305 305 307 307 305 306 305 306 305 305 306 307 308 307 307 307 309 308 307 309 310 313 314 315 316 317 317 319 320 322 324 323 322 323 323 324 325 326 327
299 302 304 303 301 305 305 306 306 306 308 305 305 305 305 305 307 308 306 307 307 307 307 308 307 307 309 310 313 314 315 317 317 317 319 321 323 323 320 321 323 324 324 325 326
298 302 304 304 302 305 305 306 305 306 307 306 305 305 307 307 308 308 308 308 308 308 307 308 308 307 308 310 312 313 315 316 317 316 317 317 320 320 320 320 320 320 320 321 322
299 304 305 304 304 304 306 306 306 304 307 305 307 307 307 307 307 308 309 309 308 308 307 307 307 306 307 309 311 314 313 313 314 316 319 317 321 321 321 320 320 319 320 320 319
297 304 305 303 303 305 305 305 305 303 305 306 307 306 307 307 307 309 309 310 313 309 305 307 306 305 307 308 310 311 312 314 314 316 316 317 316 318 318 318 318 320 319 319 319
298 305 302 303 304 305 305 306 303 307 305 307 307 307 308 308 307 308 309 310 310 309 309 306 307 305 306 308 308 310 310 310 311 313 315 316 316 317 317 317 317 317 317 317 317
302 306 304 304 306 306 306 303 308 308 306 308 307 307 308 308 307 307 309 312 315 314 308 307 306 306 305 305 306 307 311 313 313 314 315 314 315 316 317 316 315 316 317 317 318
304 307 306 307 307 306 302 305 309 308 308 307 307 308 308 307 307 307 308 312 312 311 315 311 308 307 306 306 306 308 310 311 311 313 312 312 314 314 315 316 316 315 317 317 319
305 307 308 307 307 305 305 310 308 308 307 307 308 308 308 307 307 307 307 311 313 311 313 315 311 311 309 308 307 307 307 309 309 310 312 312 313 313 314 314 315 315 318 320 321
304 305 307 307 306 304 307 308 308 307 307 308 310 309 309 307 308 308 307 310 309 309 311 312 312 311 311 311 308 308 308 308 308 310 310 312 313 313 317 316 316 315 317 319 326
303 309 306 306 305 308 310 308 307 307 307 308 309 310 309 308 308 308 308 308 310 309 309 312 312 310 310 310 309 309 309 309 309 309 311 312 314 316 317 316 316 315 316 317 323
302 311 305 305 309 303 308 306 306 308 307 308 309 310 309 308 308 308 309 308 308 309 309 311 314 313 310 309 309 310 309 310 311 310 310 311 312 315 314 314 315 316 316 316 321
304 304 305 302 309 307 305 306 306 308 307 308 309 308 308 308 310 309 307 307 307 309 310 311 311 312 309 314 312 311 311 309 311 314 313 311 311 313 313 314 315 316 316 316 319
304 308 304 303 302 304 305 306 307 306 307 308 308 308 309 308 308 309 308 307 307 307 310 311 312 311 311 310 311 312 311 311 312 313 313 313 313 313 313 314 315 316 316 316 317
300 303 302 306 303 302 304 304 307 309 308 307 309 308 309 312 309 309 308 308 308 308 309 311 312 311 310 311 311 311 312 312 312 312 314 312 313 313 314 315 315 315 315 315 315
304 303 303 303 301 304 304 306 307 308 306 307 308 308 309 309 309 309 307 308 311 309 309 310 312 312 311 309 309 310 310 310 310 311 312 312 313 312 313 313 314 313 314 316 318
300 299 300 303 303 303 304 304 305 303 306 307 307 308 308 308 307 308 308 308 308 310 311 311 312 311 309 308 308 310 310 311 311 312 312 313 312 312 312 313 314 314 316 318 318

GFSSW_925_thetae_054.txt.gz
Theta_e
307 307 308 307 307 307 307 307 307 308 309 309 309 309 305 304 304 308 308 307 306 303 304 311 310 322 325 327 325 326 326 326 324 321 321 321 323 325 328 331 331 332 334 332 336
306 307 307 307 307 307 306 304 304 307 309 310 311 308 307 307 309 310 310 307 303 306 312 310 311 317 325 327 328 329 329 328 325 323 322 321 323 324 329 330 332 331 332 332 333
306 306 307 306 306 307 307 303 302 305 307 308 309 307 307 307 308 312 315 309 305 307 310 312 310 313 321 324 328 330 331 328 327 325 322 322 323 324 327 331 332 333 333 333 332
306 306 306 306 305 304 304 303 304 305 306 305 306 308 307 308 307 311 313 307 308 307 311 313 313 314 317 322 324 329 329 330 329 327 325 324 324 324 323 326 329 330 332 331 332
305 305 306 305 305 303 304 305 306 306 306 306 306 307 309 309 307 304 306 309 309 309 307 309 315 313 315 318 321 325 326 327 328 328 328 327 327 327 326 326 326 328 329 331 332
304 304 304 305 303 302 304 306 306 306 308 307 309 307 310 309 306 307 308 310 310 309 309 309 311 315 314 315 319 321 323 325 325 327 328 328 329 330 330 328 329 330 331 331 330
303 303 304 305 305 303 304 306 305 306 308 308 307 310 311 308 307 309 310 310 310 310 310 310 309 310 316 316 315 318 321 323 325 326 326 329 331 331 330 330 332 331 330 330 330
300 300 303 304 303 302 304 305 305 306 307 308 308 310 311 307 308 310 309 310 310 310 309 310 309 309 309 313 316 316 318 321 322 324 326 326 331 329 329 330 331 330 330 329 330
298 299 301 304 302 302 305 305 305 306 308 309 312 311 309 308 309 308 309 310 309 309 309 309 309 310 308 311 315 317 318 320 321 323 324 327 329 329 329 329 330 331 330 329 330
300 300 303 305 303 302 305 305 306 311 311 311 311 313 309 308 308 308 309 309 310 310 310 311 310 310 309 309 314 316 317 318 320 321 322 323 327 327 327 328 329 329 329 330 330
302 302 303 304 301 303 307 309 312 311 309 309 309 309 308 308 308 309 309 309 310 311 311 310 311 311 310 310 310 314 317 318 319 320 323 323 325 325 326 326 328 328 329 330 330
303 303 304 305 301 304 308 309 309 308 310 309 308 308 307 308 309 309 309 310 311 311 311 311 311 311 310 309 309 312 315 318 318 319 320 323 324 324 325 326 327 328 328 328 329
302 304 305 305 302 307 309 308 308 308 310 308 308 308 308 308 309 309 310 311 311 311 311 311 311 310 310 309 309 312 314 317 318 319 320 321 323 324 324 325 326 326 326 326 326
301 303 305 303 307 307 309 307 308 308 312 307 309 309 308 308 309 308 310 310 311 313 313 311 311 310 310 309 309 310 311 314 317 319 322 321 324 324 323 324 325 325 325 325 325
299 302 303 303 308 310 309 308 307 308 312 307 308 307 308 309 308 310 309 311 313 313 313 312 309 309 309 309 308 309 310 313 315 318 320 321 323 322 322 323 324 324 324 324 323
300 305 303 306 308 309 308 308 307 313 311 309 308 308 308 308 308 308 308 311 312 313 313 312 312 309 308 308 309 310 310 313 316 317 320 319 321 321 321 322 322 322 322 321 321
302 306 307 306 310 308 308 308 313 313 309 310 309 308 308 309 308 308 308 310 314 315 313 314 312 310 308 309 309 311 311 318 320 320 320 318 319 320 321 320 320 321 319 320 321
303 307 308 309 309 309 308 310 315 310 309 309 308 309 309 309 309 308 309 309 313 314 316 314 316 311 309 309 309 311 312 314 317 316 317 316 318 319 319 320 320 319 319 320 324
305 310 311 310 308 308 311 316 311 309 308 309 309 309 309 308 308 308 308 309 311 311 313 316 313 310 311 309 309 309 310 311 313 314 315 316 317 317 318 318 319 319 319 322 326
306 311 311 308 308 309 311 310 310 309 308 309 311 310 310 310 309 309 308 309 310 309 310 312 317 312 311 312 311 309 310 310 312 314 315 316 317 318 318 318 318 318 319 321 324
308 312 308 307 308 310 314 311 310 309 308 309 310 310 310 310 309 309 308 308 309 309 310 310 313 313 311 313 314 309 310 311 311 311 313 314 316 317 320 320 320 320 320 320 321
308 312 308 306 310 310 309 307 306 309 309 309 310 310 310 309 309 309 309 309 308 309 310 311 312 314 312 310 310 311 313 313 310 313 312 315 319 318 320 320 319 319 320 320 320
308 306 307 306 311 308 306 307 308 309 308 309 310 309 309 309 311 309 309 308 308 309 311 312 312 313 311 312 312 310 310 312 313 315 316 313 316 317 317 317 317 318 319 319 319
307 311 309 306 306 306 307 308 308 307 308 308 310 309 310 311 309 311 309 308 308 308 309 310 313 313 314 312 312 311 312 311 314 315 313 314 314 317 317 316 316 317 319 319 318
306 308 306 311 310 308 308 306 308 309 309 308 309 309 310 311 311 310 310 310 309 309 310 310 313 312 311 311 310 311 310 311 312 313 314 314 313 314 315 316 316 317 317 316 317
307 307 306 306 306 305 306 307 307 308 306 308 310 309 309 310 309 310 309 311 312 310 311 311 315 312 312 310 311 310 310 311 311 311 312 312 312 313 313 313 314 314 315 316 317
303 300 303 306 307 306 307 307 307 306 307 307 308 309 311 310 309 309 309 310 310 311 311 313 313 314 314 310 310 311 310 310 310 311 311 312 312 313 314 314 314 315 315 315 316

GFSSW_925_thetae_057.txt.gz
Theta_e
308 308 308 308 308 308 308 308 307 305 306 305 305 306 306 306 305 313 314 309 308 305 304 311 314 315 322 326 328 328 331 330 327 325 323 322 323 325 327 329 332 335 337 337 339
307 307 308 308 308 308 308 308 307 305 306 305 305 305 305 307 313 313 310 305 305 306 314 313 314 316 324 327 330 330 332 331 328 327 326 324 324 324 325 329 332 335 334 334 339
307 307 307 307 307 307 307 307 307 307 306 306 305 304 305 309 315 318 309 308 305 307 311 313 313 315 318 324 328 330 332 330 329 328 327 326 325 325 324 327 332 334 334 334 336
306 306 307 307 307 306 304 305 306 306 306 306 307 306 307 313 313 317 311 308 308 310 309 314 316 315 315 318 323 328 330 330 330 329 329 327 325 325 325 325 330 334 335 335 335
305 306 305 306 304 302 303 305 306 306 305 307 306 306 312 315 311 307 307 311 312 311 311 311 313 317 316 318 319 323 325 327 329 330 330 329 328 329 327 326 326 330 333 334 334
302 302 304 305 305 302 303 305 306 305 305 306 306 307 315 315 309 310 310 311 312 312 312 312 312 313 316 318 318 320 322 323 326 327 329 330 330 330 330 329 328 326 328 331 332
300 302 303 304 304 301 302 304 305 305 305 307 307 312 315 312 309 310 312 311 311 312 313 312 312 312 313 317 319 318 318 320 322 323 325 328 329 331 330 330 330 329 329 330 332
301 300 302 304 304 301 302 305 305 305 306 307 308 314 315 309 309 310 310 311 311 311 312 311 312 313 313 312 313 316 319 319 319 322 324 326 329 329 329 331 331 331 331 332 333
305 303 301 301 301 301 303 305 305 306 307 308 315 314 313 309 310 309 309 310 310 311 311 311 311 313 313 312 311 312 315 320 319 320 322 324 329 328 328 329 331 332 332 331 332
306 304 304 303 303 301 305 308 309 311 313 314 312 315 313 310 309 308 309 310 311 312 313 312 313 313 313 312 312 311 312 314 318 320 320 322 325 327 328 328 329 331 332 332 331
304 305 305 306 306 302 308 313 315 319 313 312 312 311 309 309 308 309 310 310 311 313 314 314 313 314 314 313 313 313 312 312 316 318 319 321 323 324 326 328 330 330 332 332 332
305 306 304 306 305 304 309 313 311 311 313 312 311 309 309 309 310 311 310 311 312 312 312 312 313 313 313 312 312 312 312 313 313 315 319 321 321 324 324 326 328 329 330 330 331
304 304 303 304 302 308 311 311 310 310 313 311 310 310 310 309 310 310 310 311 311 311 311 313 314 313 312 312 312 313 313 312 313 314 317 320 321 322 323 325 326 327 329 330 330
304 302 304 303 310 310 313 310 310 310 316 312 310 311 310 310 310 310 309 311 311 311 312 313 313 312 312 313 312 312 312 311 311 314 318 320 323 323 323 324 326 326 327 328 329
305 303 303 304 312 313 311 311 310 311 321 311 310 309 310 310 310 310 310 310 310 312 312 314 314 313 313 311 311 312 311 311 311 313 316 319 322 323 323 324 324 326 326 327 328
305 304 305 311 313 311 311 310 311 319 317 310 311 310 310 310 310 310 310 310 310 312 312 312 314 313 313 312 310 310 310 311 311 312 316 317 321 323 324 324 324 325 326 326 327
304 305 308 310 313 310 311 312 318 318 312 312 311 310 310 311 310 310 310 310 310 314 313 313 313 312 313 312 311 310 312 313 314 314 316 318 322 323 324 324 323 324 325 325 325
305 307 311 311 311 311 312 315 319 312 313 311 310 311 312 310 310 310 310 310 313 313 314 314 315 315 313 314 310 311 314 316 319 315 316 318 321 322 322 322 321 322 323 323 322
307 312 312 313 311 310 314 319 316 313 311 311 311 312 311 310 310 310 310 309 310 310 313 314 314 312 314 312 313 312 312 314 317 317 320 319 319 319 321 321 322 322 322 324 326
307 312 314 311 311 311 315 315 312 312 311 312 313 311 312 311 311 311 310 310 309 310 310 312 313 312 313 313 313 314 311 315 313 315 318 318 318 321 320 321 321 322 322 323 324
310 313 312 309 309 314 316 312 311 311 311 312 312 312 312 312 311 311 310 310 310 309 309 310 313 313 313 314 315 313 313 313 315 315 317 319 320 321 321 321 322 322 323 322 323
311 314 311 305 313 313 314 309 307 311 311 311 311 311 311 311 312 312 311 310 310 310 310 311 315 313 312 313 314 313 314 316 319 315 315 316 317 322 322 322 322 323 322 322 322
311 311 309 308 317 316 312 310 309 311 311 311 311 311 311 311 312 312 312 310 310 310 311 313 313 315 311 314 313 312 313 316 316 318 322 318 317 322 323 323 322 322 322 321 321
310 314 312 311 312 313 314 312 310 310 310 311 311 310 311 312 311 313 311 312 311 312 311 311 313 314 316 312 314 316 315 312 315 319 319 315 318 321 321 321 320 319 320 321 320
310 311 310 312 313 311 312 312 310 310 310 310 311 310 311 312 312 312 312 312 311 311 312 313 317 313 313 311 311 311 311 311 311 313 314 315 315 317 319 318 318 318 318 319 318
309 308 307 308 309 309 311 312 311 310 310 310 311 310 310 311 311 312 312 313 315 312 313 314 316 314 314 312 311 311 311 311 311 311 311 313 314 314 315 316 316 316 316 317 318
305 305 305 308 310 309 311 310 309 308 308 309 309 309 310 311 310 312 311 312 312 314 314 314 315 316 316 313 314 312 311 311 311 311 311 312 313 314 314 314 315 317 317 317 318

GFSSW_925_thetae_060.txt.gz
Theta_e
308 308 308 308 309 309 309 309 308 305 304 305 305 304 305 307 305 312 316 310 309 306 305 311 312 314 316 323 324 328 331 332 330 328 327 326 325 324 325 325 327 332 335 338 339
307 308 308 308 308 308 308 308 306 304 305 305 305 305 305 309 313 316 312 306 306 308 312 314 314 315 316 321 323 326 331 331 329 329 329 326 326 325 325 325 326 329 335 335 338
307 307 307 307 308 306 305 304 305 305 305 305 306 306 306 310 318 317 308 304 303 304 311 312 314 315 316 317 322 327 332 330 329 329 329 329 328 326 325 325 325 329 333 335 336
306 306 306 305 303 302 302 303 305 305 305 305 306 306 306 315 317 319 307 309 311 312 313 311 314 315 315 316 317 322 326 329 329 329 329 329 329 328 326 326 326 327 332 335 336
305 305 305 305 305 302 301 302 304 305 305 304 306 307 314 319 314 309 310 311 312 314 313 313 312 314 317 317 317 317 319 322 326 328 330 330 330 330 329 328 327 327 328 336 337
303 305 305 305 304 303 301 302 304 305 304 304 306 307 317 318 311 311 311 312 313 313 313 313 314 313 313 313 317 318 318 319 320 323 326 328 330 330 331 329 329 329 328 329 335
307 306 306 304 303 303 301 302 304 304 304 304 306 313 317 316 310 310 312 312 312 312 313 313 313 314 314 314 314 315 318 319 319 320 322 324 328 329 330 331 331 331 330 330 330
308 305 305 305 304 303 301 303 305 305 305 305 307 314 319 310 310 311 310 311 311 312 312 312 312 313 313 313 313 313 315 317 319 319 320 321 324 326 328 330 331 331 331 331 330
308 306 304 303 304 303 301 304 307 307 306 307 314 317 317 310 311 310 309 310 311 311 311 312 312 312 312 312 313 314 313 313 314 318 319 320 322 324 325 327 330 331 332 332 332
308 305 303 304 305 304 302 306 310 308 314 315 314 315 316 311 310 309 310 311 312 312 314 314 313 314 314 313 312 312 313 313 312 314 315 318 320 322 325 327 328 329 330 333 332
306 305 302 304 304 302 305 314 316 319 318 316 314 314 312 310 310 310 311 311 312 313 314 314 313 315 315 315 315 314 314 314 315 314 314 316 318 322 323 324 325 330 330 330 333
305 305 303 303 303 302 306 315 312 312 313 313 313 312 310 310 310 312 311 312 312 312 312 313 313 313 314 314 314 314 314 314 315 314 314 316 316 318 322 324 325 328 331 331 332
304 305 303 302 302 307 314 312 311 312 314 314 311 311 311 311 311 311 311 311 311 311 311 312 312 313 314 314 314 314 314 314 314 314 314 314 316 317 319 322 324 327 329 330 331
304 304 304 302 310 313 315 313 312 311 315 314 311 312 311 311 311 311 311 311 311 311 311 311 312 312 314 314 313 314 313 313 313 313 313 313 315 319 318 322 324 325 328 330 330
301 304 305 304 311 314 312 312 312 312 326 313 312 311 311 311 311 312 311 311 310 310 310 310 312 312 315 314 315 314 312 312 312 313 313 312 314 315 319 321 324 325 327 329 329
301 304 305 311 313 313 311 312 314 321 323 312 312 311 311 312 312 311 311 311 311 310 310 312 312 314 314 314 315 313 312 311 311 311 312 312 313 314 317 322 324 325 325 327 329
301 305 306 311 313 311 312 315 320 323 314 313 312 311 311 312 312 311 311 311 311 312 312 313 311 313 314 315 315 313 312 313 311 312 315 313 312 314 316 318 322 325 326 327 327
302 307 311 310 312 311 312 317 322 317 314 313 312 312 313 312 311 311 311 311 312 312 313 312 313 313 312 312 314 314 313 314 316 317 320 318 319 315 317 317 321 324 325 327 327
306 313 313 315 313 311 314 323 318 314 313 312 313 314 312 312 312 311 312 311 311 310 312 313 311 311 311 312 314 315 313 313 313 314 318 318 319 317 318 319 320 323 323 324 325
306 313 315 314 311 310 315 318 315 313 312 312 314 313 313 313 312 312 311 311 311 311 311 311 312 309 310 312 313 314 314 316 317 319 319 317 317 318 320 321 322 323 325 326 326
310 316 314 311 309 314 320 316 313 311 310 313 314 313 313 312 312 312 312 312 312 312 312 311 312 314 312 312 312 314 313 313 313 314 315 316 316 319 320 322 323 322 324 326 324
312 315 313 309 313 317 317 312 309 310 312 312 313 313 313 312 312 312 312 313 312 312 312 312 314 314 312 311 315 314 316 317 319 316 318 320 321 318 322 323 323 323 324 324 323
314 313 312 311 319 316 314 314 313 311 311 312 313 313 312 312 312 314 314 312 312 313 314 315 312 315 312 311 315 314 313 314 317 319 317 317 318 320 321 318 317 324 323 322 322
314 316 313 311 313 315 314 314 313 311 311 311 312 312 313 313 312 312 312 312 313 313 314 313 314 314 316 314 316 315 315 314 317 319 316 314 315 318 317 315 319 319 322 322 321
313 313 312 312 311 312 312 313 313 313 312 311 312 312 312 313 312 312 312 311 312 314 313 314 317 315 313 313 313 313 314 315 314 312 311 312 313 315 317 316 319 320 320 319 319
311 309 307 308 311 313 312 314 314 313 312 311 309 311 311 312 311 312 312 312 314 314 314 314 316 315 315 313 312 314 315 312 311 312 310 311 311 313 318 316 318 318 316 317 318
306 306 306 307 311 313 313 311 311 310 310 310 310 311 311 311 312 312 312 313 314 315 317 316 316 316 315 312 313 314 315 315 316 316 315 317 317 317 315 315 317 319 318 318 319

GFSSW_925_thetae_063.txt.gz
Theta_e
308 308 308 308 308 308 308 306 304 303 303 304 305 306 307 306 306 310 313 313 313 309 307 308 311 311 313 315 320 321 328 330 330 329 327 324 324 324 323 323 323 324 331 338 339
307 307 307 307 308 308 307 303 303 304 304 305 305 305 307 307 311 315 314 311 307 306 307 312 312 313 312 315 318 321 323 330 329 328 328 327 327 326 324 323 324 323 333 336 337
306 306 307 307 306 306 305 304 302 304 304 305 304 305 306 309 316 315 309 305 306 306 306 311 311 312 312 313 314 320 322 323 326 327 328 328 328 327 326 323 323 323 325 333 335
305 306 306 301 302 302 303 302 302 303 304 305 304 305 306 314 321 314 308 310 312 312 314 314 310 310 313 312 314 313 317 322 324 326 328 328 327 328 328 326 326 325 325 325 333
308 307 306 302 300 300 301 301 301 303 304 304 304 305 309 318 318 309 311 311 312 313 315 313 311 310 308 312 313 314 315 315 317 319 322 325 327 328 328 328 328 327 327 325 327
307 305 302 300 299 298 301 300 301 303 304 304 304 306 316 320 311 311 311 312 312 312 312 312 311 311 312 310 310 311 312 314 315 315 316 318 321 325 327 328 329 329 327 326 326
309 308 307 303 299 299 302 301 302 304 305 305 305 312 314 314 311 310 311 311 312 312 312 313 312 311 310 310 311 312 311 312 313 315 316 317 319 320 323 326 328 329 329 328 326
309 309 308 307 305 304 303 301 302 306 307 305 306 314 316 315 309 310 310 309 311 311 311 311 312 311 311 310 311 310 309 310 313 315 316 316 317 318 319 324 326 327 329 329 328
308 306 307 307 306 305 304 301 303 306 309 307 312 314 319 310 311 310 309 309 311 311 312 312 311 311 311 309 308 309 310 310 311 312 313 314 317 317 318 320 324 324 327 328 328
305 304 305 305 305 304 303 304 311 312 313 314 314 315 315 312 310 309 309 311 311 311 313 313 310 309 309 309 310 310 309 310 311 311 310 309 311 313 316 318 320 322 323 327 328
302 304 304 304 302 303 304 312 313 315 314 319 319 315 314 312 310 310 311 311 311 312 312 311 310 309 310 311 312 312 313 313 313 313 312 312 313 313 313 313 316 320 323 324 325
304 301 304 304 302 302 303 311 311 311 311 312 312 313 312 310 309 311 311 311 311 309 309 309 309 311 311 312 312 313 313 313 313 313 312 312 312 313 313 313 313 314 319 323 325
305 301 303 305 305 310 309 314 312 312 311 313 314 311 312 310 310 311 311 311 310 309 309 310 310 311 312 311 312 312 312 313 313 313 312 312 313 313 313 312 313 314 315 319 325
305 302 303 305 309 312 313 312 312 311 312 314 310 311 310 310 310 311 311 310 310 310 309 308 308 310 312 312 312 313 314 315 314 311 311 311 312 311 312 312 313 314 314 316 320
304 302 304 303 307 312 311 312 313 312 325 313 311 310 311 310 311 312 311 310 310 309 309 308 308 312 312 313 314 315 314 313 313 311 308 309 309 310 311 312 312 312 314 316 319
304 303 305 312 310 314 312 312 313 319 325 311 312 311 310 311 312 312 311 310 310 309 309 309 310 310 314 313 313 314 315 314 312 308 309 309 309 309 309 310 312 312 313 316 319
305 306 306 307 313 312 311 312 318 325 315 313 312 312 311 311 313 311 311 310 310 311 311 311 310 310 313 313 311 311 315 317 313 310 311 310 313 313 314 313 311 312 313 313 314
306 309 308 309 312 312 310 315 322 319 314 313 312 312 312 313 312 312 311 310 312 311 311 310 310 309 312 310 309 310 313 316 318 314 313 311 313 311 313 314 314 313 313 312 313
306 311 313 315 314 311 311 320 321 315 312 312 312 313 313 313 311 311 311 311 311 311 312 311 313 311 311 309 308 308 312 310 314 315 318 315 313 313 313 315 317 318 316 314 315
305 311 315 314 311 311 313 318 316 311 310 310 313 314 313 312 311 310 311 313 313 312 311 312 314 311 311 311 311 312 311 312 317 317 319 315 315 315 322 321 318 317 318 318 317
308 316 314 311 309 313 317 317 315 311 310 310 312 313 313 312 311 311 311 311 313 312 311 311 312 313 311 311 313 314 315 316 317 318 319 317 314 321 319 318 317 315 316 318 319
309 316 313 309 312 317 317 314 313 314 311 311 312 313 313 313 312 312 312 313 313 312 313 313 314 313 312 310 313 313 313 316 319 317 315 317 317 317 316 316 316 315 317 320 321
310 314 312 311 316 313 314 313 313 312 311 311 311 312 312 313 314 312 313 312 313 313 314 314 313 313 311 310 314 314 312 312 316 317 318 319 316 315 315 314 315 316 319 319 319
311 315 313 311 311 312 312 312 313 313 313 311 312 311 312 313 311 312 311 312 311 311 314 314 313 313 315 313 312 313 313 313 312 314 316 315 314 317 317 315 315 315 316 317 319
312 312 308 309 308 308 312 312 313 315 312 311 311 309 310 313 312 311 310 310 311 312 313 313 316 315 314 314 313 313 313 314 313 312 316 317 317 317 317 316 315 317 318 317 316
307 307 306 306 308 309 313 313 312 312 310 310 310 311 309 310 310 310 310 311 312 311 313 314 316 315 316 314 313 312 313 315 314 313 314 315 318 317 316 316 317 316 316 316 317
306 306 306 307 308 308 310 309 310 309 310 310 309 309 309 309 309 310 309 310 310 311 313 316 316 317 317 313 314 314 312 314 315 315 314 318 317 316 317 317 316 316 316 320 324

GFSSW_925_thetae_066.txt.gz
Theta_e
306 307 307 307 307 307 307 305 302 303 305 305 305 305 305 306 305 308 311 309 313 313 310 307 311 310 311 313 318 320 325 329 328 329 327 326 324 326 325 322 323 323 327 335 336
306 306 306 307 306 305 304 303 302 302 303 305 305 304 304 307 310 313 311 313 310 306 305 310 311 311 310 313 313 320 320 328 328 328 328 327 327 327 327 325 324 323 324 326 333
309 307 307 307 307 307 305 302 301 301 303 304 304 304 305 310 314 317 313 309 305 306 307 309 311 309 311 311 312 317 322 324 323 325 326 327 327 327 328 327 326 323 324 323 326
309 308 307 306 306 306 303 303 301 301 302 303 304 304 305 314 320 315 309 309 311 310 312 314 312 308 312 312 312 312 313 316 321 321 322 323 324 326 327 327 326 327 325 324 325
309 309 309 308 306 306 303 303 302 301 302 303 304 304 310 317 318 311 311 311 310 311 314 314 310 309 308 309 309 311 312 313 313 313 314 318 319 320 319 322 326 327 327 325 325
309 308 308 309 308 306 305 302 302 301 303 305 304 305 314 317 313 311 311 311 311 312 311 311 310 310 310 309 310 309 310 310 310 311 312 314 315 316 317 319 321 324 327 325 325
307 305 304 306 308 307 305 304 303 301 305 307 305 312 313 310 312 311 311 311 310 311 311 312 312 310 309 309 309 309 309 309 310 311 312 314 315 317 317 318 319 321 324 325 326
303 302 303 305 306 306 304 304 303 302 305 308 306 314 312 315 313 309 309 309 310 311 311 311 311 310 310 309 308 308 307 308 310 310 312 314 315 316 316 316 318 320 323 324 325
306 304 301 304 307 305 304 304 303 304 309 310 312 313 317 312 310 309 309 308 310 311 311 312 309 309 309 308 306 306 307 308 309 310 311 311 311 312 314 316 316 317 318 322 324
306 306 301 302 304 302 304 310 313 313 315 314 313 314 313 313 310 310 309 309 310 310 311 312 307 308 306 307 310 309 308 309 311 311 311 310 311 311 312 312 312 312 314 317 322
306 306 304 302 304 303 306 313 306 311 314 315 318 316 317 311 310 309 309 310 310 309 310 308 307 307 307 308 310 310 311 311 312 311 311 311 311 311 312 311 311 311 312 312 315
306 306 303 302 305 305 308 310 311 311 310 311 312 312 313 312 309 309 310 310 310 308 307 307 308 309 309 310 310 310 310 310 312 312 312 311 311 311 311 311 310 311 312 312 312
306 305 303 303 306 310 310 312 311 312 308 311 312 312 312 310 309 309 310 310 309 309 308 308 308 309 308 311 312 311 311 313 314 314 312 310 311 311 311 311 310 310 310 311 312
306 305 304 304 310 309 311 311 312 311 311 316 309 309 309 308 309 310 310 309 309 309 308 307 307 308 311 311 313 313 313 313 314 314 312 310 311 309 309 309 310 310 309 309 309
306 305 305 305 306 309 313 310 312 312 317 314 309 310 309 308 310 311 310 309 308 308 307 307 307 308 311 313 314 314 312 312 314 314 311 311 307 309 308 309 309 308 309 309 310
303 306 306 311 310 312 311 311 313 317 319 311 310 310 309 309 309 310 310 309 309 308 307 307 309 310 313 313 312 311 312 312 310 309 311 310 307 308 308 308 308 309 311 311 309
305 308 307 306 310 312 311 310 314 320 314 312 311 310 310 311 312 311 310 309 307 309 309 310 310 309 312 312 309 308 312 312 314 310 311 309 310 309 310 311 312 313 315 315 315
307 311 309 309 312 312 310 312 319 315 312 312 311 310 312 311 311 311 310 308 311 310 309 310 310 310 310 309 306 306 309 312 317 316 313 312 313 310 309 316 317 316 314 314 313
309 313 314 314 313 311 307 313 319 312 310 310 311 313 313 312 310 310 309 311 311 310 311 310 313 310 310 310 309 310 307 309 314 313 312 312 312 311 319 318 316 315 314 313 313
308 311 314 314 311 311 309 316 315 311 310 309 312 313 313 312 311 309 310 313 313 312 309 311 313 311 311 310 309 311 310 312 312 314 316 315 313 312 319 318 316 314 312 312 312
310 311 315 311 309 309 311 315 315 313 311 310 311 312 311 312 311 311 311 311 312 312 311 311 310 312 310 310 309 311 312 315 313 316 318 318 314 317 318 317 316 314 314 314 315
305 312 313 309 308 309 313 314 311 313 311 310 310 311 313 312 312 312 311 312 312 312 312 312 312 313 312 310 309 310 312 312 310 314 315 314 314 315 315 314 314 315 314 314 315
304 307 312 311 306 307 309 311 311 312 312 311 310 310 311 311 312 313 312 310 312 312 313 313 311 314 310 308 309 312 311 310 312 314 315 316 313 315 316 316 314 316 316 316 318
305 308 303 303 303 307 308 310 311 312 312 311 310 309 308 311 310 311 311 311 309 310 314 313 312 312 313 312 309 312 313 313 313 318 315 314 315 316 317 317 316 316 316 317 319
302 305 304 302 304 305 307 310 312 312 309 308 309 310 308 310 310 310 309 309 309 311 311 310 314 313 313 314 314 314 314 312 312 313 316 314 317 316 316 317 316 317 317 319 319
302 303 302 302 304 305 307 309 309 310 309 309 309 309 308 308 308 309 308 309 311 310 310 310 313 315 315 314 315 316 314 313 311 313 313 313 315 316 315 316 317 318 318 319 321
304 304 301 302 304 304 304 306 307 307 307 307 307 307 307 307 307 306 306 307 308 309 309 311 313 317 315 314 314 315 312 311 314 315 314 315 315 315 316 316 314 315 317 319 317

GFSSW_925_thetae_069.txt.gz
Theta_e
309 308 308 308 308 308 308 308 307 308 308 307 304 304 303 305 307 309 311 305 311 310 312 308 308 310 310 311 316 320 327 329 327 326 325 325 325 324 325 324 325 321 324 329 342
309 310 309 308 307 307 307 307 308 307 306 306 303 303 303 307 311 312 310 309 312 310 305 308 311 309 308 311 313 319 320 327 327 327 327 327 326 326 326 326 326 325 324 328 337
309 309 310 310 309 307 307 307 307 308 306 303 303 303 304 311 313 317 313 311 309 304 308 307 311 309 310 310 311 317 321 324 324 322 323 323 323 323 325 326 326 325 323 323 325
308 309 309 309 309 309 308 307 307 306 304 302 304 304 305 314 319 315 309 307 306 309 312 313 311 309 310 311 310 311 312 313 315 316 318 320 320 321 322 323 324 323 324 323 325
305 306 307 307 308 308 308 308 307 304 301 304 304 304 311 315 317 312 309 308 309 311 313 313 309 308 307 307 308 309 310 310 310 310 311 312 313 314 315 316 317 318 321 324 323
306 304 306 306 308 308 307 308 306 303 301 306 306 307 313 311 311 312 310 310 311 312 311 311 309 309 308 309 309 308 309 309 310 310 310 312 313 314 316 317 317 317 318 320 322
310 307 306 308 305 309 309 306 303 303 302 307 306 312 313 304 311 310 310 310 310 311 310 311 311 310 308 308 308 309 308 307 309 310 311 312 312 313 315 316 316 317 317 319 322
307 306 305 307 306 306 305 302 303 302 302 308 308 313 310 312 315 311 310 309 309 310 310 311 310 309 309 308 307 307 305 304 307 308 309 311 313 314 314 314 316 315 316 317 317
306 306 306 305 303 304 303 305 308 306 307 309 312 312 316 314 310 309 308 308 309 310 310 311 309 308 308 307 306 305 307 308 308 308 308 310 309 310 311 311 312 312 312 313 313
306 306 305 303 302 305 307 312 313 312 313 313 313 313 312 314 310 309 309 309 308 309 309 309 305 306 304 306 309 310 309 308 308 309 310 309 310 310 311 311 311 311 311 312 313
306 306 305 303 303 306 310 311 305 307 314 311 317 314 316 315 311 309 309 310 310 307 307 306 306 306 307 306 308 309 310 309 309 310 309 309 311 311 310 310 310 310 311 311 311
306 306 305 303 304 308 310 310 311 310 310 309 310 313 314 313 311 308 310 309 309 308 307 306 307 307 308 308 309 309 310 310 311 312 312 311 312 312 310 309 309 310 310 310 309
303 303 304 304 306 310 310 311 311 309 308 309 310 311 310 311 311 308 309 309 308 308 308 307 307 307 307 309 311 311 311 311 313 312 311 311 311 310 309 309 309 309 308 308 308
300 302 305 305 310 309 310 310 311 309 311 315 311 311 310 308 308 309 309 309 308 307 307 307 306 308 307 310 312 313 311 312 311 312 313 311 313 310 309 308 308 307 306 306 306
303 304 306 307 308 309 311 310 310 311 315 314 309 309 307 308 309 310 309 308 307 307 306 307 307 307 309 310 312 311 311 310 311 313 313 312 308 310 309 309 307 306 306 307 312
305 306 307 311 309 311 311 310 311 313 315 312 310 310 309 309 309 309 309 308 308 307 307 306 307 308 309 312 311 310 309 309 310 307 311 311 309 311 308 308 307 308 314 314 314
307 310 307 307 309 311 311 309 314 316 313 311 310 309 309 310 310 310 309 309 308 307 308 308 309 308 312 312 307 305 306 307 310 311 311 308 309 309 309 309 311 316 316 314 312
309 313 309 308 311 312 309 310 317 314 311 311 310 309 311 311 310 310 309 308 311 309 307 309 309 310 310 309 308 307 305 306 311 313 310 310 312 310 308 315 317 316 314 313 312
312 314 314 314 314 311 307 312 313 310 309 309 310 312 312 311 310 309 309 311 311 310 310 309 312 310 310 310 309 308 307 306 310 311 311 310 310 310 310 317 316 314 313 311 311
312 313 314 313 312 310 308 315 314 313 311 309 312 312 311 311 311 309 309 312 312 311 308 309 312 310 310 309 308 308 308 311 304 308 313 313 313 312 310 310 315 314 312 312 312
310 311 313 310 308 308 310 313 314 311 311 310 310 310 310 312 311 310 310 311 312 311 310 310 309 311 310 310 308 307 309 312 308 314 315 316 313 309 313 315 314 313 312 312 313
305 311 312 310 309 305 310 311 311 311 311 309 309 310 311 311 311 312 311 310 311 311 311 311 310 313 312 310 308 308 309 309 308 312 312 313 313 310 313 313 313 312 313 313 311
304 306 310 309 304 305 306 310 310 311 311 310 310 309 309 310 312 312 311 310 309 309 311 311 310 314 310 308 308 310 311 310 310 312 314 316 313 311 313 313 314 313 314 313 312
304 305 301 300 301 305 306 308 311 311 311 309 309 308 308 309 309 310 311 310 308 308 311 312 312 314 314 311 308 312 313 311 310 316 313 314 313 312 312 313 314 314 315 317 314
299 303 302 301 301 304 305 307 310 311 308 307 308 309 308 308 308 308 308 307 307 309 309 308 310 311 313 313 313 314 314 315 315 313 313 312 312 312 312 313 314 316 317 318 315
303 302 300 301 303 304 305 308 307 308 308 308 308 307 306 306 307 308 306 306 307 308 309 307 312 314 313 312 313 315 313 313 314 314 313 311 312 311 314 314 316 316 315 317 318
301 301 301 301 302 303 302 306 306 305 306 306 306 305 305 306 306 306 305 305 306 308 308 307 308 311 313 313 313 314 313 312 311 311 313 314 313 314 315 314 312 312 312 315 315

GFSSW_925_thetae_072.txt.gz
Theta_e
309 309 309 309 309 308 307 307 307 308 309 307 304 303 303 304 308 309 309 305 312 305 310 309 307 309 309 309 315 321 329 329 327 325 325 324 326 324 324 324 324 323 323 325 340
309 309 309 309 309 309 309 307 308 308 308 305 302 303 303 308 312 311 310 306 310 311 305 305 309 309 306 309 311 317 321 326 326 325 326 325 325 324 325 323 324 324 324 323 336
307 307 307 308 309 309 309 308 307 308 307 303 302 304 304 311 312 314 313 312 310 305 309 307 311 309 309 309 311 314 319 322 323 321 321 321 320 321 321 322 322 322 321 320 324
310 310 309 309 308 308 309 308 309 307 303 301 304 304 306 314 318 316 310 308 307 308 311 313 310 307 309 310 309 311 312 310 311 311 311 314 314 314 315 317 318 316 315 321 321
310 311 310 309 309 306 308 309 308 306 301 302 306 305 311 312 315 316 309 309 309 310 312 312 308 307 307 308 309 309 309 309 309 309 310 311 312 313 314 314 315 316 315 316 318
310 309 308 310 310 308 308 308 307 303 301 303 307 307 312 307 312 314 310 309 310 312 311 311 309 308 308 308 309 308 308 308 308 309 309 311 312 313 315 315 315 316 315 315 315
309 308 309 310 310 307 307 303 303 303 301 304 306 312 312 302 310 312 311 310 310 311 309 309 310 309 307 308 307 308 307 305 307 309 309 309 310 312 313 314 315 315 314 314 314
309 308 308 309 307 305 305 306 306 303 301 306 307 313 307 310 313 312 310 310 309 308 309 310 310 308 309 307 305 306 303 304 305 307 309 309 310 311 310 311 313 312 312 312 312
308 307 307 307 303 304 306 311 311 307 305 309 312 311 314 313 310 309 309 308 308 309 309 309 308 306 305 306 305 305 307 307 307 307 308 309 309 310 310 311 311 312 311 311 311
308 306 306 305 303 305 308 312 312 312 313 312 312 312 312 315 314 309 308 307 307 308 308 307 303 305 303 304 307 308 309 308 308 308 308 309 310 309 310 310 310 311 311 311 311
304 301 303 304 304 306 310 310 305 306 314 309 313 313 314 313 310 308 308 309 308 306 306 305 306 306 306 306 307 308 309 309 308 308 310 309 310 310 310 309 309 309 310 311 311
304 303 303 304 304 310 310 309 310 309 308 308 308 312 312 313 311 310 309 308 308 307 306 305 306 306 306 306 307 308 309 308 309 310 310 309 311 310 310 309 308 309 309 309 309
304 304 304 304 307 310 310 310 309 308 308 308 309 310 310 311 311 310 307 307 308 307 306 306 307 307 307 308 310 309 310 309 311 311 310 310 310 309 308 308 308 307 307 307 307
304 305 305 307 310 310 310 311 310 309 309 312 310 310 310 308 309 309 308 308 307 307 305 306 306 307 307 309 310 311 309 311 311 310 310 311 313 310 308 308 308 306 305 304 304
304 305 306 307 309 309 311 310 310 309 312 312 308 308 306 307 308 309 308 307 307 307 305 306 307 306 307 308 311 308 310 310 309 310 312 311 310 308 308 308 307 306 304 306 311
306 308 306 311 309 311 311 310 311 310 314 311 309 309 309 308 308 308 308 307 307 306 306 305 305 306 306 309 311 309 308 305 306 306 309 308 310 308 307 307 307 306 308 312 313
309 310 306 308 308 309 311 308 312 314 311 311 310 308 309 310 309 309 309 309 307 308 307 307 308 307 311 310 306 305 304 306 305 307 309 308 309 308 307 308 308 308 312 313 311
311 312 309 309 311 313 309 309 316 312 309 310 309 308 311 310 310 308 308 309 310 307 307 309 310 308 309 308 309 307 306 306 309 312 307 306 309 307 307 307 311 315 313 312 311
313 314 314 313 313 311 306 309 311 310 309 308 309 312 311 310 310 308 308 309 310 309 309 309 312 309 309 309 308 308 306 304 306 308 308 308 308 307 308 309 314 313 312 311 309
312 312 313 311 308 309 308 313 313 312 311 308 310 311 311 310 310 310 309 310 312 310 307 309 311 310 309 309 308 308 306 309 302 307 306 308 310 310 309 309 310 312 310 310 310
310 310 311 310 308 307 309 312 313 311 311 309 309 309 309 310 310 310 310 309 311 310 308 308 309 310 310 310 308 306 307 310 305 305 309 313 309 308 309 308 309 310 310 310 310
305 309 310 310 307 302 308 310 310 310 310 310 308 308 309 310 310 310 310 309 310 309 310 309 307 311 311 308 307 305 307 307 307 311 311 311 312 309 309 309 311 311 311 310 310
304 305 309 307 303 303 303 307 308 310 311 310 310 308 307 309 310 310 311 309 308 308 310 309 309 312 309 306 307 310 309 309 309 310 313 314 311 308 310 311 310 310 312 312 313
301 304 300 298 300 304 305 307 310 310 310 308 308 307 308 308 307 309 310 309 307 307 310 311 309 311 311 308 305 310 311 310 313 315 312 312 311 310 310 310 310 312 313 313 315
298 302 300 299 300 303 304 306 309 310 307 306 307 308 308 308 307 307 307 307 306 307 307 307 310 310 311 312 312 313 313 313 314 313 316 313 312 311 310 310 313 313 315 314 313
301 300 298 299 301 303 304 305 306 307 306 307 307 306 306 305 306 307 306 306 306 306 307 308 310 310 313 312 312 311 310 311 313 313 313 314 314 312 311 312 313 312 312 312 314
299 299 302 301 301 302 301 304 306 304 305 305 305 304 304 304 303 302 302 304 305 306 307 307 308 310 310 309 311 313 312 311 311 311 312 314 312 310 312 313 311 311 312 312 312

GFSSW_925_thetae_075.txt.gz
Theta_e
307 308 308 308 308 308 308 308 307 308 307 307 306 305 304 305 307 311 311 306 310 307 306 307 307 309 309 313 318 325 326 326 326 325 324 326 326 325 326 327 326 326 326 324 323
309 309 309 309 308 308 308 308 307 306 306 306 304 304 305 309 312 313 312 307 310 309 304 306 311 310 310 313 317 322 322 323 326 325 326 325 325 323 324 325 325 325 324 321 320
309 310 310 309 309 309 307 309 307 306 304 303 302 304 305 311 315 315 312 310 310 306 309 307 311 311 310 312 315 318 320 323 325 324 321 322 321 321 324 325 325 323 320 319 321
309 309 310 310 310 310 308 307 308 306 304 302 304 305 307 313 317 316 310 308 307 309 312 313 311 310 312 312 311 314 315 314 319 314 314 316 313 316 319 321 319 317 318 319 320
308 310 310 310 310 310 309 309 306 306 303 301 305 306 310 310 316 315 309 309 309 310 312 312 311 310 311 311 311 312 312 312 312 312 313 313 313 315 317 318 316 316 318 318 319
310 310 310 310 310 310 309 308 308 304 303 302 306 307 311 307 311 313 310 309 310 312 311 312 311 311 311 311 312 311 311 311 311 312 312 312 314 313 315 315 315 316 317 317 318
309 310 310 310 310 308 308 308 307 303 302 303 306 312 311 305 310 312 311 310 310 310 311 310 310 310 310 311 309 310 310 310 310 311 311 312 313 313 313 314 315 319 321 317 316
308 308 308 306 306 305 306 307 309 305 301 305 307 312 310 307 313 313 312 310 309 309 309 309 309 310 311 310 310 310 308 309 309 310 311 311 312 312 312 313 314 314 314 314 315
308 305 304 304 304 304 307 311 309 305 303 308 312 312 315 313 312 309 310 309 307 308 308 308 309 309 310 311 312 310 311 311 312 311 311 312 313 313 313 313 313 314 313 314 314
304 305 304 304 303 304 310 312 312 312 311 312 313 314 314 315 314 310 308 308 308 309 310 310 310 311 310 311 311 311 311 311 311 311 312 312 313 312 312 312 313 313 314 313 314
305 306 304 304 303 308 310 310 310 310 314 311 313 314 314 314 311 308 308 308 309 310 310 309 312 313 311 310 309 310 311 311 311 311 312 312 312 312 312 312 312 312 314 315 314
303 304 305 304 304 310 309 312 310 310 312 310 311 311 312 312 313 312 309 310 310 310 309 309 310 310 309 309 309 310 311 311 311 312 311 311 312 313 313 313 313 312 313 315 314
304 305 305 304 308 310 310 310 309 308 312 311 310 311 311 311 313 312 310 309 310 309 309 310 309 309 309 309 311 311 312 311 311 311 311 312 311 312 312 312 312 313 313 312 311
305 306 305 307 309 309 310 310 309 308 313 312 310 311 311 311 311 311 309 310 309 310 308 309 308 308 309 310 311 311 311 311 311 311 310 311 310 311 311 312 312 312 312 312 310
306 307 305 309 309 310 310 310 309 310 314 312 309 308 308 309 309 310 308 309 310 309 308 309 309 309 309 310 311 310 311 311 311 311 312 311 312 311 312 311 311 312 312 312 312
309 308 307 310 310 309 311 309 311 316 314 312 310 310 311 310 310 310 309 309 308 309 308 309 307 308 309 309 312 311 311 310 310 310 311 310 310 310 311 312 312 311 312 312 315
310 306 307 308 309 311 310 311 318 317 312 312 311 310 310 312 311 311 310 311 310 311 311 309 310 309 311 312 309 310 311 312 311 310 309 311 310 310 311 311 311 310 311 314 316
312 312 312 312 312 313 309 315 321 313 311 311 310 310 311 311 311 311 310 312 312 310 312 312 312 310 310 311 311 311 312 312 313 309 309 309 310 309 310 310 310 311 315 316 315
313 313 313 312 309 309 313 321 317 312 312 312 310 312 313 311 311 311 311 312 312 312 313 315 313 311 310 311 311 310 312 309 312 311 312 310 309 309 310 311 312 313 315 314 314
309 311 312 309 308 309 314 315 314 312 311 311 311 312 312 311 311 312 312 311 312 312 311 312 313 311 311 311 310 311 310 313 315 314 313 309 309 310 310 310 312 312 313 313 314
308 315 310 309 308 313 318 314 314 313 311 312 310 311 311 311 311 312 312 311 312 312 311 311 313 312 312 312 311 311 312 313 313 312 312 311 311 311 311 311 312 312 314 312 313
307 314 309 308 312 307 312 311 309 311 311 312 310 310 311 312 312 312 311 311 312 312 313 312 314 314 312 310 310 310 312 312 314 312 313 313 314 311 311 311 314 313 312 312 316
308 310 308 305 313 309 306 307 308 309 311 311 311 310 309 311 312 312 312 310 311 312 313 314 314 314 311 311 311 312 311 311 312 313 315 316 314 311 312 312 312 312 313 315 315
304 308 305 304 303 305 306 305 310 310 310 309 309 309 310 310 310 312 311 310 308 309 311 312 314 313 313 310 312 312 312 312 313 317 315 314 314 313 313 313 313 313 314 316 315
302 305 303 304 303 304 305 307 308 308 308 308 309 309 309 311 310 310 309 309 308 308 309 311 314 313 312 312 311 311 311 311 313 314 316 315 315 314 314 314 315 314 315 314 314
303 303 302 303 303 305 305 306 308 308 307 308 309 308 308 309 309 310 308 308 308 307 310 311 312 312 313 312 313 314 313 313 313 313 312 314 315 314 314 314 314 314 315 314 314
299 299 304 302 303 304 303 305 307 305 304 306 307 306 307 306 305 306 306 307 307 309 310 311 313 313 311 309 310 312 311 312 311 312 314 316 314 313 314 314 314 315 314 314 314

GFSSW_925_thetae_078.txt.gz
Theta_e
310 310 310 310 309 309 309 308 308 306 307 307 304 302 302 303 305 315 316 311 311 307 306 310 311 312 312 317 320 323 328 326 326 327 327 325 325 325 327 328 328 328 329 328 325
309 310 310 309 309 309 309 308 308 307 306 306 305 302 304 304 315 318 315 307 312 307 309 309 313 313 315 316 319 323 324 324 325 326 327 326 326 327 327 328 329 330 328 326 324
309 310 310 309 309 309 310 310 309 308 308 307 303 304 305 309 320 315 311 306 309 311 310 309 312 313 314 316 318 320 323 321 323 324 326 327 327 325 326 327 328 330 327 325 324
309 309 310 310 309 309 309 309 309 308 308 305 302 306 305 315 320 316 309 309 309 312 315 314 313 313 314 315 316 318 319 321 321 323 324 324 325 324 324 325 324 328 325 323 325
308 309 310 310 309 309 309 309 308 310 306 302 303 307 314 314 317 317 309 309 314 314 313 314 314 313 314 314 315 315 316 316 317 318 318 319 322 322 323 323 318 321 322 322 322
308 308 309 309 308 308 309 310 308 308 305 302 306 305 315 310 313 314 315 314 314 313 313 313 313 314 314 314 314 315 315 315 316 316 316 316 317 318 319 318 317 323 326 324 322
307 307 305 306 307 307 307 308 308 308 303 302 306 313 313 309 313 314 314 313 312 312 312 312 312 312 313 313 313 314 314 315 315 315 315 316 316 317 318 316 316 316 319 323 323
305 304 304 305 306 304 305 309 311 309 302 303 306 314 313 307 312 314 314 313 312 311 311 311 311 313 313 313 313 313 313 313 314 313 314 313 316 317 316 316 316 316 315 318 317
305 306 306 305 304 304 309 311 308 304 302 308 316 316 314 313 313 311 312 311 310 310 311 310 312 313 313 313 314 314 312 313 314 314 314 315 315 316 315 316 316 316 315 315 316
304 305 306 306 304 305 311 313 313 314 314 314 315 318 315 313 314 312 310 310 311 312 313 313 314 314 313 314 313 314 314 313 314 314 314 314 315 315 316 315 316 316 315 315 316
304 306 306 305 304 309 312 313 315 317 316 315 314 315 315 315 313 312 310 310 312 312 313 313 314 315 315 313 312 313 314 314 314 314 313 314 314 315 315 315 315 315 315 316 316
305 305 306 303 306 310 312 314 313 313 316 314 313 314 313 314 313 312 310 311 312 313 312 312 313 313 312 312 312 312 313 314 314 313 313 314 314 314 314 315 315 315 316 316 316
305 306 305 305 309 312 313 312 311 311 317 314 314 313 313 314 314 313 312 312 312 312 312 312 312 311 311 311 312 313 313 313 313 312 313 313 314 314 314 315 315 314 315 315 315
307 306 305 308 312 312 313 312 311 311 318 314 314 314 313 314 313 313 312 312 312 312 312 312 312 311 311 312 312 313 312 312 312 313 314 313 314 314 314 314 314 315 315 315 315
308 306 308 310 314 314 313 311 311 313 321 313 312 312 312 313 312 312 312 312 312 313 312 312 311 311 312 312 312 313 312 312 313 314 314 313 315 314 314 314 315 315 314 314 314
309 307 310 312 313 312 311 312 314 322 319 314 313 313 313 313 313 312 312 312 313 313 313 313 313 312 312 312 312 312 313 313 314 314 315 314 314 312 313 314 315 314 312 313 316
311 306 308 310 313 312 312 316 323 322 315 315 314 313 313 314 314 314 314 315 314 314 314 314 313 312 312 312 313 313 314 315 314 315 315 314 313 313 314 313 313 312 312 313 314
311 313 313 312 312 313 314 320 324 318 316 314 313 314 315 315 315 314 314 314 314 314 315 314 315 313 313 313 314 314 314 315 315 314 313 313 313 314 313 312 312 313 314 315 316
309 315 316 314 311 311 318 323 318 316 314 314 315 315 314 314 313 313 313 314 314 314 315 316 315 314 312 313 313 314 315 314 314 314 315 315 314 313 313 312 312 313 315 314 315
311 315 316 310 310 313 318 317 316 315 314 314 314 313 313 313 313 313 313 313 313 313 314 315 317 314 313 313 313 313 313 314 315 317 317 314 313 313 313 313 313 313 314 314 316
314 316 314 310 311 316 319 315 315 314 315 314 313 313 313 313 313 313 313 313 312 313 314 314 315 314 314 314 313 314 313 313 315 317 318 315 313 315 314 314 314 314 314 315 314
311 312 312 310 313 314 314 313 308 310 310 311 312 313 313 313 314 314 314 313 312 313 314 313 315 316 314 313 313 313 313 314 318 316 316 316 315 315 314 313 314 315 315 315 315
309 311 312 309 313 312 310 308 308 308 309 312 313 313 313 313 314 314 314 312 312 312 313 314 315 316 314 313 314 314 314 313 315 316 318 318 316 314 315 315 315 316 315 315 316
308 311 309 309 308 308 307 307 309 311 312 312 313 312 313 314 314 314 313 312 312 312 312 313 316 315 317 313 314 315 313 313 314 319 317 315 315 315 315 315 316 316 316 317 317
306 309 308 310 308 306 307 307 308 308 309 310 310 312 312 313 312 311 311 311 310 310 311 314 316 314 313 312 312 312 312 312 314 315 316 313 314 316 316 316 316 316 316 316 317
306 305 306 306 306 307 306 307 306 307 308 306 309 308 309 311 310 311 310 310 311 310 310 310 312 312 313 311 310 312 313 313 313 313 313 313 314 314 314 315 315 316 316 316 316
300 302 305 307 307 307 306 304 305 306 305 305 307 308 309 309 309 308 307 307 308 309 309 310 313 314 315 311 311 314 312 312 313 312 313 315 314 314 315 315 316 316 316 316 316

GFSSW_925_thetae_081.txt.gz
Theta_e
310 310 310 310 310 310 310 310 309 309 308 304 303 302 302 304 304 316 320 313 313 309 307 311 313 314 314 318 320 323 325 326 326 326 327 327 327 325 325 325 327 331 331 329 329
310 310 310 310 310 310 310 310 311 310 308 304 303 301 304 305 315 320 317 310 311 306 316 312 313 315 317 318 320 322 325 324 325 326 325 326 327 326 327 327 328 329 330 329 328
310 310 310 310 310 310 310 310 310 310 308 306 302 302 306 309 322 319 307 308 310 312 315 311 313 316 317 318 319 321 323 324 324 324 324 325 327 328 328 328 328 329 330 330 328
309 310 310 311 311 309 309 310 310 309 309 303 301 304 306 316 326 318 308 310 310 317 316 316 314 315 316 317 318 319 320 321 322 322 323 324 327 327 328 328 327 326 327 330 330
308 309 310 310 309 309 309 308 310 310 308 302 301 307 314 319 318 314 309 311 317 315 315 316 316 316 316 317 318 318 319 319 320 319 321 323 325 325 326 326 325 324 323 328 330
306 307 307 307 308 309 308 308 309 309 303 302 303 306 318 316 316 317 317 315 315 315 315 315 316 316 316 316 317 318 318 318 318 318 319 319 320 320 321 324 324 324 322 324 328
305 306 306 307 308 306 305 306 310 310 303 302 306 313 316 315 314 316 315 315 313 313 314 314 314 315 315 316 316 316 316 317 317 318 318 318 318 318 319 321 322 321 320 321 326
305 305 306 307 307 305 305 310 310 310 303 302 307 316 318 311 312 314 315 314 313 312 312 313 313 314 315 316 315 316 315 315 316 317 318 317 318 318 320 320 321 320 320 319 319
305 305 306 307 306 304 310 310 306 304 303 307 316 318 319 311 313 313 314 313 312 312 312 312 312 314 315 315 315 315 315 316 316 316 316 317 317 318 319 319 320 320 320 320 319
305 305 306 307 304 307 311 314 313 316 315 316 317 319 318 314 313 312 313 312 312 314 314 315 315 316 316 314 316 316 317 316 316 317 316 316 317 317 318 319 319 319 320 320 319
306 306 307 304 305 310 313 315 319 323 319 320 317 318 317 315 315 314 313 312 313 314 315 316 316 316 316 317 317 316 316 317 317 317 316 316 317 317 317 317 318 318 319 319 319
305 307 305 303 308 310 312 318 315 315 319 316 315 315 315 315 315 314 313 313 314 315 315 315 315 315 315 316 315 314 314 315 316 316 316 316 316 317 317 317 317 317 318 318 318
307 306 304 306 310 314 315 315 314 314 319 316 315 314 315 314 315 315 314 313 313 315 315 315 316 314 314 314 314 314 315 315 316 316 316 316 316 317 317 317 317 317 317 317 318
308 305 305 310 312 315 316 314 313 315 321 318 315 315 315 315 315 315 314 314 314 315 315 315 315 313 313 313 314 315 315 315 315 315 315 316 317 317 318 317 317 317 317 317 318
307 307 309 311 318 317 315 312 314 317 329 317 315 315 315 315 315 315 314 314 315 315 315 315 315 314 313 314 314 314 314 315 315 316 316 315 316 316 317 317 317 317 317 318 318
309 309 311 314 316 314 313 314 318 326 327 317 315 314 315 315 315 315 314 314 315 315 316 315 315 315 314 314 314 314 314 314 315 316 317 316 317 317 316 317 317 317 316 315 316
308 308 309 313 316 314 315 318 327 326 320 317 316 316 316 316 316 316 316 317 317 317 318 317 316 315 315 314 314 314 316 317 317 317 317 317 316 316 316 315 315 317 316 314 315
302 311 315 313 315 314 317 322 327 321 319 317 316 315 316 316 317 316 317 318 317 317 318 317 317 316 316 316 315 315 317 319 321 319 317 316 317 317 316 316 315 314 314 315 316
304 313 317 318 315 314 318 325 323 321 317 316 315 315 316 316 315 315 315 316 316 316 318 319 317 316 315 316 316 315 316 316 317 317 316 317 316 316 316 315 314 314 315 317 317
310 315 317 316 314 315 320 320 319 317 316 315 316 315 315 315 316 316 316 315 315 314 315 316 318 316 316 316 315 315 315 316 320 320 318 315 315 316 316 316 315 314 315 316 316
316 318 317 314 315 317 320 319 317 316 313 315 315 315 315 315 315 315 315 315 315 314 315 316 317 317 316 315 316 315 316 315 315 317 321 321 318 317 316 316 316 316 316 316 316
314 316 316 313 317 318 316 315 309 311 311 311 313 313 315 314 314 315 315 316 315 314 314 315 317 318 316 316 315 315 315 316 322 318 315 315 315 318 317 316 315 316 317 317 317
313 313 315 310 317 318 315 313 313 311 310 311 313 315 315 315 316 315 315 315 314 315 315 315 317 321 318 316 315 315 315 315 315 316 318 322 320 318 317 317 317 317 317 317 317
310 315 315 314 313 313 314 314 313 312 311 312 313 313 314 314 314 315 315 315 314 314 314 314 316 317 318 315 318 319 318 317 316 322 318 316 316 316 316 316 316 317 317 318 317
310 313 311 314 315 314 313 313 313 313 312 312 312 312 313 314 315 315 314 314 313 315 313 314 314 315 315 314 315 316 315 312 313 315 317 317 314 315 316 314 315 317 317 317 317
307 309 308 309 313 313 312 312 312 310 310 311 311 309 310 311 312 312 312 313 313 313 311 313 319 314 314 312 312 312 313 312 312 312 313 315 317 316 314 313 314 315 316 318 317
302 303 306 310 313 312 312 310 308 308 308 308 308 308 308 308 309 309 310 311 310 309 310 311 312 315 316 313 313 316 314 313 314 313 313 313 313 315 314 315 317 317 317 316 316

GFSSW_925_thetae_084.txt.gz
Theta_e
311 311 311 311 311 311 311 311 310 310 309 305 302 302 302 303 305 314 319 316 316 314 308 309 314 316 315 317 319 320 323 325 324 325 325 326 326 326 326 325 325 327 331 332 331
310 310 311 311 311 311 311 311 310 309 308 302 301 301 301 306 314 317 317 313 309 308 313 315 315 315 316 317 318 320 322 323 323 324 325 326 325 327 327 325 326 326 327 330 331
309 310 310 310 310 310 310 309 310 309 306 302 301 301 303 307 321 321 311 309 310 309 315 315 313 315 317 317 318 319 321 321 323 324 324 324 324 325 327 327 327 327 328 329 331
307 309 309 309 309 310 310 309 309 309 306 301 301 301 306 314 327 315 309 311 311 314 319 318 316 314 316 317 318 318 319 321 322 322 322 323 324 324 326 328 328 328 329 327 328
306 306 307 307 308 309 309 308 308 307 303 301 301 303 313 322 320 312 312 311 313 318 319 318 316 317 316 317 317 318 319 319 319 320 320 320 321 323 324 326 328 327 327 325 325
306 306 308 307 308 308 308 307 307 308 305 302 302 306 316 321 318 314 315 315 317 316 317 316 317 317 316 317 317 318 318 319 319 319 319 319 319 320 323 325 325 327 327 325 324
305 306 306 306 307 307 305 307 310 311 307 302 302 313 316 318 314 317 316 316 316 314 315 315 315 315 316 316 317 317 317 317 318 318 318 319 319 319 319 320 320 321 325 325 323
305 305 306 307 307 306 306 311 309 309 305 302 306 315 318 315 313 315 317 315 314 313 313 313 314 314 315 316 316 315 316 316 317 317 317 318 318 318 319 320 320 320 322 323 322
307 307 307 307 306 305 310 311 307 305 303 304 314 317 321 312 311 314 314 315 315 314 313 313 313 313 314 315 315 316 315 315 315 317 317 317 317 318 318 319 320 321 322 322 322
307 307 307 307 304 307 311 312 316 311 313 315 317 319 319 319 312 314 315 315 314 314 314 315 315 315 315 315 314 315 316 317 317 317 317 316 316 317 318 318 320 320 320 321 322
307 307 306 304 305 309 311 317 320 322 320 323 321 321 319 316 315 315 314 314 314 314 314 316 317 317 317 317 317 318 318 317 317 318 318 317 317 317 318 318 318 320 322 322 322
306 306 303 304 308 310 310 321 317 315 317 319 320 317 316 316 316 315 314 314 314 314 316 316 317 317 316 316 316 317 317 316 315 316 316 316 317 317 317 318 319 319 320 321 322
307 306 304 306 310 311 317 316 315 316 318 320 318 315 315 316 316 316 315 314 314 315 316 316 317 317 316 315 316 316 316 315 315 316 316 317 318 318 317 318 319 319 319 320 321
308 307 306 309 312 317 318 316 314 316 319 323 316 315 316 316 316 316 316 315 315 314 315 316 316 316 315 315 314 314 315 315 316 316 316 316 318 318 318 319 319 319 319 320 319
307 308 309 310 313 318 316 314 314 318 333 319 317 316 316 316 316 316 316 316 315 315 316 316 316 316 316 315 315 315 315 315 315 316 316 316 317 317 318 318 318 320 320 318 318
301 309 310 315 315 318 315 315 319 327 331 319 317 316 315 316 316 316 315 315 315 315 316 316 316 316 316 316 315 315 315 315 315 315 317 316 317 318 318 319 319 319 318 318 318
299 302 309 312 316 315 315 318 327 329 323 321 318 317 316 317 317 317 317 317 317 318 318 318 318 317 317 316 316 315 315 317 318 319 319 318 319 321 321 317 318 319 318 317 315
301 301 306 313 315 316 316 322 327 323 323 320 318 317 316 316 317 317 317 318 317 318 319 318 318 317 317 317 317 317 317 318 320 323 321 319 321 319 319 319 317 317 318 316 315
306 313 313 317 318 316 318 323 323 323 321 319 317 315 316 317 317 317 317 317 316 316 318 319 318 318 318 317 317 318 319 317 318 320 323 321 317 317 319 320 318 316 316 316 316
305 316 317 320 317 316 319 321 320 319 319 317 317 316 317 317 317 317 318 317 317 316 316 316 317 316 316 316 317 317 317 317 318 323 323 317 316 317 319 319 317 315 315 316 317
310 322 319 318 316 316 319 319 319 318 316 314 313 315 316 315 314 315 316 316 316 316 316 316 317 317 316 317 317 317 319 318 317 319 322 321 317 320 319 319 318 318 316 317 317
311 320 317 315 316 318 320 319 315 315 315 314 314 314 314 314 317 317 317 317 315 316 316 317 318 318 319 317 316 317 318 319 323 322 322 320 321 319 318 319 319 319 316 316 318
311 315 317 313 316 318 316 316 315 315 314 313 314 315 315 316 317 317 316 315 315 316 316 317 318 320 318 317 317 320 318 318 319 321 322 324 321 317 320 319 318 318 317 318 318
312 315 318 315 317 316 316 316 314 314 314 314 314 314 315 316 315 315 316 316 316 316 317 315 316 317 319 315 316 318 318 318 318 322 323 320 317 316 318 320 318 317 317 317 319
314 314 314 313 314 314 315 315 315 315 314 312 313 314 314 314 313 313 314 314 314 316 316 315 318 317 316 314 314 313 314 314 318 319 322 318 315 316 317 318 319 317 317 318 316
308 308 309 310 312 315 314 315 315 313 311 310 311 311 311 311 311 311 310 311 312 313 314 316 320 317 315 313 313 312 312 311 311 313 317 313 314 314 316 316 315 316 317 318 318
306 305 306 308 311 314 314 314 315 312 310 309 309 309 309 309 309 309 309 309 310 310 311 311 311 313 313 311 312 316 316 315 313 315 314 316 318 319 319 318 319 318 318 319 318

GFSSW_925_thetae_087.txt.gz
Theta_e
310 310 311 311 311 311 311 311 310 310 310 308 305 303 302 301 304 310 316 318 318 315 316 308 308 311 315 312 313 315 315 318 320 321 321 321 321 322 322 323 324 325 325 328 328
308 310 310 311 310 311 310 310 310 310 309 307 304 303 302 304 309 314 309 317 314 312 308 310 310 312 312 312 312 313 313 315 318 320 320 319 320 321 323 322 323 323 324 325 326
308 308 308 309 309 310 310 310 309 308 308 306 303 302 301 306 316 320 317 315 309 309 308 315 317 311 310 310 311 312 314 315 317 318 319 320 320 320 321 323 323 323 324 326 326
306 307 307 307 308 308 309 310 308 308 305 304 302 301 303 311 323 314 314 308 310 310 314 319 318 310 310 311 313 312 314 316 316 318 318 319 317 318 319 323 325 324 325 326 325
306 306 307 307 307 309 309 308 307 308 308 303 302 302 309 318 318 311 310 311 311 313 317 319 316 313 311 311 312 313 313 315 315 314 315 316 317 317 317 319 326 325 325 325 323
306 306 307 307 307 307 306 306 307 309 310 304 302 303 315 315 318 314 311 312 313 317 318 315 313 312 314 313 312 313 313 314 314 314 315 316 316 315 317 317 319 325 324 322 321
306 307 308 308 307 307 306 307 310 311 310 304 302 311 314 314 317 316 315 316 315 316 314 314 313 312 312 311 312 312 312 313 313 314 314 316 316 316 316 317 317 317 318 322 321
306 308 308 307 307 306 306 310 309 308 307 303 303 314 316 315 314 314 317 316 315 314 313 313 313 311 312 311 312 311 311 311 312 315 315 314 315 316 316 316 316 317 317 317 320
307 307 307 308 307 305 307 311 313 306 304 303 309 315 320 316 313 313 315 316 316 315 314 313 313 311 311 309 309 311 310 311 312 313 314 313 314 316 316 316 316 316 316 317 316
306 307 306 307 305 306 310 311 312 314 315 314 315 318 319 319 314 312 313 314 315 314 313 312 311 311 310 308 310 311 312 312 313 315 314 313 314 314 315 315 315 315 317 319 319
304 306 304 303 305 307 310 316 316 318 318 320 322 319 320 316 314 313 314 314 314 313 312 312 312 312 313 313 313 314 315 316 316 315 313 313 313 314 315 315 314 314 315 316 317
299 306 305 304 307 308 309 315 316 315 315 318 320 321 320 317 316 316 315 313 313 312 312 312 312 314 316 316 315 314 314 314 315 314 314 312 313 313 314 315 315 314 314 314 316
297 307 306 306 309 310 312 318 315 315 315 316 317 319 318 315 315 316 314 314 313 312 312 313 315 316 316 315 315 313 313 314 315 314 314 313 314 314 315 315 314 315 314 315 314
299 303 308 309 312 315 316 317 314 317 316 319 320 317 315 314 315 316 315 314 313 312 312 312 314 315 314 315 314 313 313 314 315 314 313 314 314 314 314 315 315 314 315 315 315
303 300 308 308 310 313 316 315 315 318 331 320 317 315 314 315 316 316 316 315 314 314 313 314 314 314 314 315 315 313 314 313 314 313 311 312 312 313 313 315 315 315 315 314 314
306 301 302 310 313 315 316 315 317 325 332 319 316 315 315 315 316 316 315 315 315 314 313 313 314 314 314 315 315 315 314 312 313 311 313 312 313 314 314 316 318 316 316 316 314
306 304 303 303 313 314 316 315 323 329 325 323 317 316 315 315 316 315 316 314 313 313 314 314 315 315 316 315 314 314 312 313 313 313 315 313 315 314 317 318 317 317 316 315 313
307 307 308 302 309 315 316 319 326 323 323 321 320 318 317 315 315 315 316 316 315 316 317 317 318 317 317 316 316 316 315 316 319 317 317 316 319 317 317 317 317 317 316 314 311
307 308 314 313 315 317 316 321 323 322 320 320 318 317 317 316 315 316 316 317 317 316 317 316 316 316 315 315 315 316 316 315 318 319 320 316 317 317 317 317 317 316 316 313 312
304 309 318 318 319 316 318 320 318 318 318 317 316 314 313 313 315 314 314 316 316 317 315 316 317 316 315 315 314 314 315 316 318 325 325 319 318 316 318 318 317 317 315 314 314
306 317 320 319 316 316 317 317 317 318 315 316 315 315 314 314 313 314 314 316 317 316 315 315 315 317 317 315 316 315 314 316 321 319 323 321 315 317 319 317 316 316 316 314 314
305 316 319 316 317 317 320 319 315 315 315 314 314 314 315 315 315 317 317 317 316 315 316 315 315 318 318 316 315 314 317 318 324 325 322 324 322 317 317 317 316 316 317 315 315
306 312 316 315 315 316 317 315 315 315 316 315 315 315 314 315 316 316 316 315 315 315 316 316 317 318 318 315 314 318 317 317 319 319 321 323 321 318 317 317 316 316 315 316 316
308 316 317 315 315 313 314 316 316 314 315 315 312 311 312 312 314 315 314 313 313 313 319 318 315 318 321 318 315 316 314 314 319 321 320 321 318 316 316 318 316 315 315 316 315
312 312 309 313 310 311 314 315 315 315 315 312 311 311 311 310 310 311 311 310 310 312 313 314 317 317 317 318 317 316 313 312 312 314 319 315 317 315 315 316 313 316 315 315 315
307 307 307 307 311 310 312 315 315 314 314 315 311 310 309 309 309 309 309 309 310 309 308 312 316 317 317 314 312 311 311 311 312 313 313 314 316 316 316 315 316 316 316 318 318
306 305 308 310 310 310 311 313 312 312 312 311 311 309 308 308 308 307 306 306 307 307 307 308 309 309 310 310 311 312 310 312 315 315 318 318 317 317 318 317 316 315 315 317 318

GFSSW_925_thetae_090.txt.gz
Theta_e
309 309 309 310 310 310 310 310 311 310 310 310 309 306 302 301 302 307 311 307 318 310 315 314 307 308 310 311 313 312 312 313 315 318 319 319 319 319 322 325 326 324 325 327 326
307 307 308 308 309 309 310 310 310 310 311 310 309 304 301 303 308 312 306 312 315 315 315 308 308 309 310 311 311 310 309 313 313 315 316 317 318 318 321 321 321 323 323 325 327
307 307 307 308 308 309 310 309 310 310 311 311 309 303 301 306 314 318 320 311 317 312 308 312 315 315 309 310 310 310 310 311 313 314 315 316 317 317 320 320 320 321 322 323 324
306 307 308 308 308 308 308 309 309 310 311 312 307 302 303 311 322 315 319 318 310 309 309 317 317 313 308 309 308 310 311 312 313 313 315 316 316 316 316 316 320 320 321 324 322
307 307 308 308 308 308 307 307 307 307 309 310 304 302 312 315 317 314 314 309 310 312 314 317 318 315 311 309 310 311 311 312 312 313 313 314 314 315 314 317 323 322 323 323 320
307 307 308 309 308 308 307 306 307 309 310 310 303 304 314 310 311 317 310 310 311 312 316 315 316 309 311 312 310 311 311 311 311 311 312 314 314 314 315 315 317 319 320 322 321
307 308 308 309 308 307 306 306 309 309 308 307 302 311 313 308 315 315 311 312 311 315 316 313 311 310 310 310 310 310 310 309 311 312 312 314 313 314 314 314 314 315 318 321 319
305 306 308 308 308 306 306 308 310 308 305 304 302 313 311 308 310 312 313 315 316 315 314 313 312 310 311 309 308 309 309 309 309 312 312 313 313 313 313 314 315 314 314 315 317
298 305 305 306 306 306 307 309 311 313 305 304 309 313 314 317 315 314 314 315 316 315 314 313 312 310 310 308 306 308 308 309 310 311 311 312 311 313 312 313 314 314 314 313 312
297 305 305 303 304 307 309 310 311 313 315 313 313 315 316 319 312 313 312 313 313 313 312 311 308 309 307 306 308 309 310 310 311 313 312 312 310 311 312 312 313 312 313 314 316
299 301 306 305 305 307 309 312 313 316 315 316 319 317 319 318 316 312 312 312 313 312 310 310 309 309 310 309 311 311 311 311 313 314 313 311 310 311 311 312 312 312 311 312 314
305 300 306 306 307 309 309 311 317 314 312 316 318 316 319 319 320 314 314 313 312 310 310 310 309 311 312 313 314 313 312 312 312 313 313 311 311 311 312 312 313 313 312 311 312
309 304 302 308 309 311 312 314 317 317 313 315 317 318 318 319 320 315 313 313 312 311 310 310 311 313 313 313 314 313 312 312 312 313 312 312 311 312 312 313 313 312 311 311 311
308 305 301 308 309 312 311 315 315 315 314 318 317 317 317 315 314 314 314 313 312 312 310 309 310 312 313 313 313 312 312 313 313 313 311 312 313 311 311 311 312 312 310 310 310
308 308 305 301 306 310 315 316 315 317 322 323 317 315 312 313 315 315 315 312 312 312 311 312 312 312 313 313 313 313 313 312 313 311 309 311 310 311 310 312 312 312 311 312 312
308 308 306 304 311 314 313 316 315 323 329 321 315 313 312 313 314 315 314 313 313 312 311 312 312 312 312 313 313 313 313 311 310 308 311 309 310 312 311 311 312 315 314 314 313
307 308 305 305 307 311 314 314 321 326 324 320 318 314 314 314 314 315 314 313 313 312 311 313 312 312 313 313 312 312 310 314 314 314 315 310 311 312 311 313 315 315 314 313 311
307 308 311 312 304 304 315 317 324 322 321 319 317 317 317 314 314 314 314 313 312 312 313 314 316 315 316 315 313 313 312 314 320 317 317 314 315 314 314 314 315 316 314 313 313
308 308 313 317 304 306 314 319 322 322 318 318 317 315 312 313 312 312 313 313 314 314 315 315 316 315 315 315 314 314 314 314 317 320 319 319 318 315 315 315 315 314 313 315 315
305 308 315 317 317 315 315 318 318 316 315 314 315 315 314 314 313 313 313 314 315 315 312 314 315 315 315 315 315 314 314 316 315 326 327 323 320 318 315 316 316 315 313 312 313
304 311 318 318 318 313 313 317 316 316 315 315 314 314 314 314 314 315 316 315 316 314 314 313 313 316 316 316 316 315 315 318 319 318 326 325 318 314 316 315 315 316 316 315 313
303 307 315 316 313 314 317 317 313 315 315 316 316 316 313 314 314 314 315 316 315 314 315 314 315 317 316 315 315 315 316 316 316 320 323 321 321 315 316 317 315 315 316 315 314
304 307 313 314 312 311 312 313 315 314 315 315 316 314 311 313 313 314 315 312 312 312 315 315 315 317 317 314 313 315 317 316 315 316 314 313 315 315 314 315 315 316 315 313 313
304 315 310 310 309 309 310 314 313 314 314 315 314 311 311 310 310 311 310 311 310 310 317 313 315 316 319 318 316 318 317 315 316 317 315 316 316 315 314 316 315 315 314 313 312
306 307 306 309 308 310 311 311 314 315 313 313 314 312 311 310 310 310 310 309 309 309 311 311 315 316 315 316 316 315 316 315 314 313 314 312 313 313 313 316 316 315 314 314 313
307 306 306 307 308 310 311 312 313 312 312 313 314 312 311 311 309 309 309 309 309 308 308 308 311 315 312 312 313 312 309 308 308 309 314 314 315 315 316 316 316 316 316 316 317
305 304 307 310 309 309 309 312 313 311 312 311 311 313 312 311 308 307 306 306 306 307 306 306 308 308 309 308 310 310 310 311 313 316 316 318 316 316 317 315 313 314 313 314 314

GFSSW_925_thetae_093.txt.gz
Theta_e
307 308 307 309 309 309 310 310 310 310 311 311 311 307 303 302 301 307 308 306 313 308 313 314 308 308 310 310 311 310 311 313 316 317 317 316 317 318 318 320 320 324 326 326 324
308 308 308 309 309 309 309 310 310 310 311 311 311 308 304 302 308 310 307 306 311 315 312 312 307 309 307 311 311 309 309 311 312 314 314 314 316 315 317 317 318 319 321 325 324
307 308 308 308 308 309 309 308 309 310 310 311 310 305 303 306 313 317 317 307 315 316 311 311 313 315 310 310 310 309 310 310 312 312 312 313 315 315 317 317 316 317 319 322 323
307 307 308 308 309 309 309 309 309 310 310 310 308 301 305 311 319 316 316 311 316 313 308 316 316 313 307 308 307 310 309 310 311 312 312 312 313 315 315 315 315 317 319 323 323
307 307 308 309 309 309 309 309 310 309 310 311 306 302 311 312 312 313 318 315 309 309 312 316 317 315 314 309 309 309 309 310 310 309 309 311 311 312 313 313 313 318 321 322 320
306 307 308 308 309 308 307 307 307 308 310 310 304 305 313 305 309 316 313 309 310 312 315 315 316 311 310 310 310 310 309 309 309 310 310 311 311 312 313 313 314 314 315 316 320
303 305 306 307 309 308 306 306 308 308 307 309 303 312 312 302 311 316 309 310 310 313 315 316 313 310 309 310 309 310 310 308 309 311 311 311 311 312 312 313 313 313 313 314 316
298 301 305 305 306 306 306 307 309 311 305 304 304 313 310 307 311 312 310 311 313 311 314 315 311 310 309 309 306 308 307 308 308 310 310 311 310 312 311 311 312 312 312 314 314
305 300 305 304 304 306 307 308 309 311 308 304 310 313 313 315 317 313 312 313 315 315 315 315 311 309 308 306 305 305 306 308 309 309 310 310 310 311 310 310 310 310 310 312 311
307 304 303 306 306 307 308 310 310 312 313 312 313 313 314 317 315 315 313 314 314 312 310 311 306 307 305 305 308 307 309 309 310 311 311 310 309 309 310 310 310 309 309 310 311
307 305 301 306 307 308 309 311 311 313 315 315 316 313 316 318 316 311 312 311 312 311 310 309 308 308 308 307 309 310 309 310 310 311 312 310 310 309 309 309 309 309 309 309 310
307 307 304 302 307 309 310 310 314 313 314 313 315 314 315 317 320 319 311 310 310 310 309 308 308 309 309 310 310 310 311 311 311 310 310 310 310 309 310 311 311 311 311 310 309
308 307 308 306 305 309 312 312 314 313 313 312 315 316 317 317 318 319 312 311 310 309 309 308 309 311 311 311 311 311 312 312 312 311 311 311 311 310 310 310 310 310 310 309 309
309 308 307 308 308 310 310 314 314 314 313 316 315 316 316 316 315 318 314 312 311 310 309 308 309 310 310 311 311 310 310 311 312 311 311 310 312 310 310 309 310 309 308 308 308
308 307 307 306 304 308 315 314 315 314 319 321 316 315 314 315 314 314 313 312 311 311 310 311 310 310 311 311 311 311 311 311 312 310 309 310 308 309 309 310 310 309 308 308 308
309 307 306 305 306 307 312 314 315 321 322 321 313 313 314 314 313 314 314 312 312 311 310 311 310 310 311 312 311 312 312 310 307 307 311 310 309 311 309 310 309 310 310 311 311
310 308 306 305 304 310 309 313 319 324 319 319 317 314 313 313 313 313 314 312 312 312 311 312 312 311 312 312 311 312 309 311 312 312 316 312 310 311 310 310 310 310 310 311 310
310 308 308 310 305 306 314 317 323 319 319 317 316 316 316 312 313 314 313 312 312 311 311 312 314 313 314 311 311 311 310 312 317 316 316 314 317 314 311 310 310 311 311 311 310
309 306 312 315 308 310 314 320 318 321 315 315 315 315 313 313 313 312 312 312 313 311 314 314 315 314 314 314 313 313 313 311 314 317 317 316 316 315 314 313 314 314 313 310 310
305 305 315 311 312 314 310 312 318 315 315 314 314 314 313 313 314 314 313 314 316 313 312 313 315 313 315 315 315 314 314 315 314 324 323 320 320 318 315 315 315 314 313 312 311
304 310 314 315 315 312 312 314 316 315 315 316 316 315 314 312 312 313 314 315 315 314 314 313 312 314 315 316 316 315 317 319 319 320 326 325 319 311 315 314 315 313 313 314 312
303 309 312 314 315 311 316 312 313 314 314 315 316 317 316 314 313 313 314 314 312 312 315 315 315 317 316 314 314 315 316 318 323 323 322 322 317 313 312 315 313 313 314 314 314
302 304 312 311 313 310 310 312 312 314 314 315 315 313 311 311 312 312 313 310 311 311 315 313 315 318 316 314 315 317 316 316 316 315 315 317 315 313 311 312 311 311 312 313 314
303 309 305 306 306 309 310 312 313 313 314 314 314 313 313 312 310 312 311 311 310 310 313 312 316 320 321 318 316 318 317 316 317 319 316 316 314 311 310 311 311 313 315 315 315
301 304 305 306 308 308 310 312 314 314 312 312 313 313 314 314 311 312 312 310 310 310 311 312 315 313 313 311 313 315 315 314 314 313 314 312 311 310 314 313 314 314 315 316 315
304 304 304 306 307 308 310 311 312 314 311 313 313 312 311 314 313 313 311 310 308 309 309 307 309 312 310 309 309 310 311 311 310 308 307 311 313 314 314 313 313 313 312 313 312
303 303 305 308 308 309 308 311 310 309 310 312 311 310 311 311 310 308 307 307 307 307 307 306 307 310 310 308 309 310 309 311 310 316 316 316 316 315 314 312 311 311 311 310 310

GFSSW_925_thetae_096.txt.gz
Theta_e
307 308 308 308 308 309 309 309 309 309 310 310 309 310 310 309 304 306 307 305 312 305 312 312 308 307 310 309 310 309 311 313 315 316 316 314 315 314 316 316 316 319 323 324 323
308 308 308 308 308 308 309 309 309 309 310 310 310 308 307 308 308 309 306 305 314 307 311 312 306 306 306 310 309 309 309 312 312 314 315 314 314 314 315 315 315 316 316 322 331
308 308 308 308 308 309 309 309 309 309 310 310 308 305 303 307 310 315 316 306 310 315 311 309 313 312 310 309 309 307 310 310 311 311 311 312 313 313 315 314 314 315 315 317 322
307 308 308 308 309 309 309 309 309 310 311 311 309 303 308 311 315 315 314 307 314 316 308 311 315 308 305 308 308 310 309 309 310 311 310 311 312 312 313 314 313 313 314 317 319
306 307 308 308 308 309 308 308 308 309 311 310 309 303 309 308 306 311 312 309 315 309 309 314 315 312 312 306 308 308 308 309 309 307 308 308 309 310 311 311 311 311 314 320 319
306 306 307 308 308 308 307 307 307 308 309 310 306 309 312 301 306 314 316 311 309 311 313 314 313 310 309 309 309 308 309 308 307 308 308 310 310 310 312 312 312 312 311 312 319
306 305 305 306 307 307 306 306 307 308 308 309 304 311 312 300 309 312 314 309 310 312 314 315 314 309 307 309 308 308 308 307 308 310 310 309 310 311 312 313 312 311 311 311 312
306 304 302 304 304 305 306 306 307 309 306 306 308 313 309 306 310 311 312 310 310 310 313 313 311 308 309 307 305 307 304 307 306 309 309 310 310 310 309 310 310 310 310 310 310
306 305 300 303 305 306 307 308 308 309 310 306 311 311 315 314 315 313 312 311 312 313 313 313 309 306 306 305 304 303 304 306 307 307 309 310 309 310 310 309 309 309 308 308 309
307 306 306 302 304 307 308 310 310 312 313 311 313 311 312 315 316 315 312 312 313 313 309 309 304 305 303 305 305 306 308 308 308 310 309 309 307 307 308 309 308 307 307 307 308
307 308 307 307 303 305 308 310 309 310 314 313 313 310 313 316 317 311 313 311 312 310 309 307 307 307 307 306 308 309 309 309 309 310 310 309 309 309 308 308 307 308 308 309 308
309 309 308 307 307 304 309 310 313 313 313 312 314 313 313 315 316 317 311 310 310 309 308 307 307 307 307 308 308 309 309 309 309 309 309 309 309 308 307 308 308 309 309 309 308
308 309 309 307 307 306 311 312 313 312 313 312 313 314 314 314 315 317 309 309 310 308 307 308 308 309 309 310 310 309 310 310 311 311 309 309 309 309 310 309 309 308 307 308 308
307 308 310 309 306 310 309 313 313 313 313 314 314 316 315 315 316 316 311 311 310 309 307 308 308 309 308 309 308 309 309 311 311 310 310 309 312 309 309 308 308 308 307 306 307
307 308 309 306 306 305 312 312 314 313 318 316 316 315 314 315 314 314 313 311 311 310 309 309 310 309 309 310 309 310 310 310 310 310 309 310 308 308 308 309 308 308 307 307 306
308 309 307 306 305 306 311 312 315 321 318 319 313 314 316 315 314 312 313 311 311 310 309 309 309 309 309 310 310 311 311 309 306 306 309 309 309 311 309 309 309 309 308 307 307
307 309 306 305 305 306 309 313 318 324 317 317 316 315 312 314 314 313 313 312 312 312 311 311 311 310 311 311 311 311 309 310 312 312 315 311 310 310 309 309 309 308 309 310 309
308 307 306 308 307 307 311 317 322 318 315 315 314 315 314 312 312 313 312 312 311 310 310 311 314 312 311 311 310 309 308 311 316 314 314 312 315 313 309 311 312 312 312 311 310
308 308 314 312 310 311 313 319 318 317 315 315 314 314 313 313 312 313 311 312 312 310 312 313 314 313 314 314 312 313 312 311 313 313 315 314 313 314 314 314 313 313 312 311 310
305 306 312 306 312 312 308 310 317 315 316 316 315 314 315 313 313 313 313 314 316 314 312 313 315 313 314 314 314 313 314 316 316 324 322 316 317 316 315 314 314 312 311 310 310
305 311 310 314 313 311 312 313 316 315 315 316 317 318 318 318 313 317 317 314 313 313 312 313 315 317 314 315 315 315 319 318 318 320 323 322 318 313 313 313 314 310 309 308 309
302 309 311 313 314 310 313 312 312 314 314 316 315 316 317 316 314 314 315 314 311 311 315 313 316 320 317 315 315 317 318 317 323 323 324 323 318 312 312 313 312 310 309 308 309
301 302 310 309 312 309 309 312 312 313 314 315 316 313 312 311 314 313 312 310 310 311 313 313 315 318 317 313 316 318 317 317 318 316 318 318 316 310 310 310 308 308 310 311 312
301 306 303 302 304 308 309 312 313 313 313 312 314 313 313 313 311 314 313 312 311 311 313 313 315 316 317 319 316 318 317 317 318 319 316 317 315 312 310 313 312 312 311 311 311
300 302 303 305 306 307 308 310 312 314 311 311 313 313 313 315 312 312 312 312 311 311 310 312 316 315 316 312 313 311 309 311 313 315 314 313 311 310 314 313 313 312 311 310 311
303 303 302 303 307 308 306 309 311 312 310 311 312 313 311 312 311 313 312 311 312 308 309 311 312 312 310 308 309 311 311 310 311 310 310 310 310 313 312 311 310 309 309 307 307
302 302 302 305 309 307 309 310 309 308 308 310 311 310 309 309 308 308 308 308 307 307 306 306 309 308 309 308 308 310 309 309 310 313 313 315 313 309 308 307 307 307 305 304 305

GFSSW_925_thetae_099.txt.gz
Theta_e
308 308 308 308 308 308 308 309 309 309 309 310 310 309 309 309 305 305 307 304 308 307 313 310 308 309 311 312 313 313 318 318 318 319 318 318 318 317 317 317 318 319 319 320 324
307 308 308 308 308 308 308 308 309 309 309 310 309 309 309 309 309 308 304 304 312 308 313 312 308 309 313 313 313 316 317 317 316 317 317 316 316 316 317 318 318 318 319 318 325
308 308 308 308 308 308 309 309 309 309 309 310 311 309 308 312 310 316 316 306 312 307 310 309 310 312 313 312 312 312 316 315 315 316 316 315 315 315 315 316 317 317 318 318 318
308 308 308 308 308 308 309 309 309 309 310 311 311 308 308 311 314 312 315 306 312 313 308 313 316 313 313 314 312 313 313 313 313 313 313 314 314 314 315 316 317 316 316 317 320
310 309 308 308 309 309 309 309 308 309 310 311 310 305 308 308 307 312 312 309 315 313 310 317 316 313 312 310 310 312 312 311 312 311 311 312 313 314 314 316 315 315 315 318 320
310 310 309 308 307 309 307 307 307 308 309 310 309 308 312 303 304 313 308 315 312 309 311 316 315 314 313 312 313 312 312 312 312 312 311 312 314 313 315 315 316 316 317 316 317
307 307 305 305 307 307 307 306 307 308 309 308 307 311 312 304 308 310 314 310 308 312 315 315 314 311 311 312 310 311 312 311 312 314 314 313 314 314 315 315 316 316 316 316 316
307 306 306 303 303 305 306 307 307 308 309 308 309 313 312 306 308 309 315 309 310 311 313 313 309 310 311 309 309 311 310 313 312 311 312 313 315 314 313 314 315 315 315 315 316
308 309 307 306 304 305 306 308 308 308 310 313 312 312 313 313 314 311 313 311 311 311 312 313 310 310 310 311 312 310 312 311 311 312 311 312 314 316 314 314 316 316 315 315 316
308 308 309 307 307 305 305 312 310 312 314 312 313 314 313 315 315 313 312 312 314 314 311 312 311 313 310 312 310 310 310 312 313 314 314 315 315 315 316 315 315 316 316 316 317
308 307 308 310 309 306 305 311 313 314 316 319 316 310 313 315 317 313 311 312 313 313 314 311 314 314 313 312 312 312 312 313 314 314 313 315 315 316 316 316 315 316 317 317 318
305 306 308 310 310 307 306 311 314 314 316 314 315 314 313 314 315 314 312 314 314 314 311 312 313 313 312 311 311 312 313 314 314 314 314 315 316 315 315 315 316 316 317 317 318
305 308 308 310 308 306 309 312 313 312 316 314 314 315 316 315 315 316 312 312 312 312 312 314 313 311 311 312 312 313 314 314 314 315 314 314 315 315 315 314 315 315 316 317 317
306 307 307 308 306 308 308 312 312 312 318 317 316 316 315 315 315 315 311 313 312 313 311 312 313 312 312 312 312 314 313 313 314 315 315 313 316 316 316 316 316 316 317 316 316
306 305 305 305 308 306 311 311 312 314 319 317 316 315 316 317 315 317 312 312 313 312 312 313 312 312 312 313 312 313 312 313 314 315 315 315 316 316 315 315 316 317 317 317 315
305 305 305 306 305 306 310 309 314 321 319 319 316 315 315 316 316 314 316 314 313 313 312 313 311 312 313 312 312 313 314 315 312 313 316 316 316 317 317 317 317 316 315 317 317
306 305 305 306 307 306 308 315 319 323 318 317 315 315 315 316 316 316 314 317 317 316 316 315 315 313 312 314 314 314 315 317 317 318 318 317 317 317 317 316 316 316 318 317 317
308 311 311 309 306 307 312 318 318 318 316 315 314 314 314 314 314 313 314 314 314 314 315 315 316 314 313 314 315 315 316 317 323 321 320 317 318 318 317 315 316 317 317 315 315
309 310 310 308 308 311 316 319 319 317 316 316 315 316 316 315 314 317 318 315 314 313 316 317 316 315 315 315 314 316 316 316 317 318 319 319 318 317 317 317 317 317 315 314 314
306 309 311 312 312 311 313 314 317 315 316 317 319 319 319 319 316 318 317 318 316 315 314 317 318 316 315 315 316 316 316 318 319 322 324 320 320 320 319 318 317 316 315 314 314
305 316 311 312 312 315 317 315 316 315 316 317 318 320 320 321 320 320 320 318 316 314 315 315 317 317 316 317 318 318 319 320 319 321 325 324 321 319 319 316 315 313 313 314 315
305 316 310 312 316 312 314 312 312 314 314 316 317 318 319 318 319 317 318 316 315 313 315 314 317 320 318 316 316 316 318 318 327 327 324 325 323 316 316 314 314 314 315 315 314
308 309 308 309 317 313 313 313 312 314 314 315 315 315 314 314 316 316 314 312 312 312 315 314 319 320 318 316 317 318 318 318 320 318 324 325 321 315 315 315 314 314 315 314 313
307 313 310 309 308 311 312 314 315 312 313 312 314 314 314 316 315 317 314 312 312 312 313 313 316 317 319 317 319 320 319 318 318 323 320 321 318 315 312 312 314 315 314 313 310
306 308 307 311 309 309 309 311 313 313 313 312 313 313 314 314 313 313 312 312 311 311 313 313 317 315 314 315 315 313 312 313 314 315 316 313 312 311 311 314 315 313 312 311 309
309 309 306 308 308 308 308 311 311 312 310 311 311 312 312 313 312 314 311 311 312 310 311 313 313 313 313 311 309 309 309 309 309 310 310 311 312 312 314 312 312 311 310 309 309
301 302 307 306 308 309 309 309 309 308 308 310 311 311 310 310 309 308 307 308 311 311 310 312 312 311 311 309 309 312 312 310 310 310 311 314 315 315 315 314 311 309 308 308 307

GFSSW_925_thetae_102.txt.gz
Theta_e
308 308 308 308 308 308 309 309 309 309 309 310 310 310 310 308 303 311 310 308 309 307 311 312 312 313 314 317 318 319 319 319 319 319 318 320 320 321 320 320 321 323 324 323 321
308 308 308 308 309 309 308 309 309 309 310 309 310 311 309 306 311 311 309 304 308 306 314 312 313 314 316 317 318 319 320 319 319 319 319 319 319 319 318 319 320 322 323 321 321
309 308 308 308 308 309 309 309 309 309 309 310 310 311 308 308 314 317 316 304 308 312 314 315 313 314 315 316 317 318 319 319 319 319 319 318 317 318 317 318 320 321 322 322 322
309 309 308 308 308 309 309 309 309 309 310 311 311 310 304 313 316 316 314 307 306 314 312 313 313 315 316 315 316 316 317 318 318 317 317 317 317 317 318 318 319 318 319 321 322
309 309 309 307 308 308 309 308 308 309 309 310 310 305 312 313 311 320 314 306 317 315 312 314 316 315 316 316 316 315 316 316 316 315 315 316 316 317 317 318 319 319 319 320 320
308 307 309 307 306 307 308 308 308 308 309 310 310 305 313 309 308 319 314 319 318 315 312 316 316 316 316 315 315 316 316 316 316 316 316 316 317 316 317 318 318 319 320 320 320
307 308 307 307 305 305 306 307 307 308 310 310 307 312 313 310 310 319 316 316 313 312 317 317 315 315 316 316 315 315 315 316 316 317 317 317 317 317 318 318 318 318 319 319 319
308 306 307 308 307 304 305 307 307 307 310 309 307 314 316 308 308 316 317 312 311 314 316 315 314 315 315 315 314 315 315 316 317 316 316 315 316 318 318 317 318 318 318 318 319
306 305 306 308 309 307 304 307 310 308 310 310 315 316 316 314 311 313 318 313 312 313 314 314 315 315 315 315 316 316 316 316 315 315 315 314 316 317 317 318 318 319 319 319 319
303 305 307 307 309 309 305 312 310 312 315 314 314 319 319 314 312 314 317 314 315 314 316 316 316 316 315 315 315 315 315 314 314 316 316 316 316 316 317 318 319 319 319 319 319
302 305 307 307 308 309 307 315 320 321 318 320 320 317 316 317 316 315 316 315 316 317 316 315 316 316 316 315 314 314 314 315 316 317 317 318 318 318 319 318 319 319 319 319 319
302 306 306 307 308 308 308 316 318 316 318 318 318 318 316 316 317 316 315 316 317 318 317 316 315 316 316 315 314 314 315 316 317 317 317 318 318 318 319 319 319 319 319 319 319
303 306 306 307 307 308 311 315 315 315 319 317 317 317 318 317 318 318 316 317 317 318 317 317 316 314 315 315 315 315 316 317 317 317 317 318 319 318 318 319 318 319 319 319 319
305 304 305 307 310 310 313 314 314 313 319 319 318 318 317 317 318 317 315 317 315 316 316 316 316 315 315 315 315 316 316 316 317 317 318 318 319 319 319 319 319 319 319 319 319
304 305 305 306 312 314 314 313 314 316 321 321 318 317 316 317 318 318 316 315 316 315 315 316 315 315 316 315 315 315 315 316 316 318 319 319 321 321 321 319 319 320 320 320 320
305 304 304 309 310 311 311 312 316 322 320 319 317 317 316 318 316 317 317 315 316 316 316 316 316 315 317 316 316 316 316 318 319 320 321 320 321 321 321 321 321 320 320 320 321
308 309 308 309 311 308 310 317 323 322 319 319 317 316 317 316 317 317 318 318 318 318 319 318 318 317 316 317 317 317 319 321 322 323 324 322 322 322 321 321 320 320 320 321 319
309 310 309 310 310 311 315 321 322 320 319 317 318 316 316 316 316 317 316 317 318 318 319 319 319 317 317 317 318 319 320 322 324 325 326 323 324 323 320 319 319 320 320 319 319
309 313 314 313 312 314 321 320 320 320 318 318 318 321 320 318 318 319 319 318 316 317 319 320 320 317 316 317 317 320 322 320 322 323 324 323 323 321 320 320 320 320 319 319 318
309 316 315 313 314 317 318 318 319 317 317 318 320 319 321 320 320 320 320 319 319 317 317 320 324 321 320 318 318 318 319 322 322 329 328 324 323 323 322 320 320 320 318 317 317
312 320 314 313 316 320 321 319 318 317 317 317 319 320 320 321 321 321 322 319 318 317 316 317 320 321 319 319 319 319 321 321 323 326 329 328 324 322 321 321 320 319 317 317 317
314 320 313 314 321 319 320 317 312 317 316 317 318 319 320 320 321 320 321 319 316 316 318 317 320 323 321 319 319 319 320 319 327 328 327 329 328 321 321 319 318 318 317 316 316
315 316 313 315 322 320 318 316 316 316 316 317 317 317 317 318 318 319 318 315 314 315 317 318 322 323 321 320 319 320 319 319 320 323 327 329 325 319 318 318 317 315 315 316 316
314 318 315 316 315 318 319 318 318 315 316 316 317 316 317 317 317 319 318 315 314 314 314 314 319 321 323 320 319 320 318 319 322 325 323 324 323 320 318 315 314 315 316 316 316
313 314 312 316 315 314 314 315 316 316 314 314 315 315 315 316 314 315 313 313 312 312 313 316 318 318 317 316 315 315 317 318 318 321 324 320 319 317 313 314 315 316 316 316 315
313 313 312 313 312 313 311 314 314 313 313 314 314 313 314 314 313 315 313 314 315 312 314 315 318 315 315 313 312 313 313 313 313 312 314 316 314 312 315 316 316 316 315 313 313
308 309 312 309 312 312 313 312 312 311 311 312 312 312 312 311 311 311 311 312 312 313 314 317 315 316 315 312 312 313 313 314 314 313 312 314 314 315 316 316 316 315 313 313 313

GFSSW_925_thetae_105.txt.gz
Theta_e
309 309 309 309 309 309 309 309 310 310 311 310 310 310 309 308 302 310 313 311 312 310 311 315 314 314 315 318 320 320 321 321 321 321 322 323 323 325 326 324 325 326 328 330 325
310 310 309 309 309 310 309 309 310 310 310 311 311 311 310 305 311 312 313 311 308 307 313 315 315 316 317 318 319 320 320 320 321 321 321 321 322 322 322 322 323 324 325 326 326
310 310 310 309 309 309 310 310 310 310 310 311 311 312 308 308 317 316 313 311 305 307 314 315 315 317 318 318 319 320 320 321 321 321 321 321 321 320 320 319 321 323 325 327 326
310 311 310 309 308 309 310 309 310 310 310 310 311 311 305 314 321 324 316 307 308 311 317 317 316 316 317 318 319 319 320 320 321 321 320 320 320 320 320 320 320 321 322 323 325
307 309 309 311 309 308 307 308 308 309 309 309 310 308 312 317 315 323 314 308 312 317 315 316 316 317 318 319 319 319 319 319 319 319 319 319 319 319 319 320 320 321 320 321 322
307 306 307 309 309 307 307 307 308 309 309 309 309 304 314 315 312 320 314 314 315 318 316 316 318 318 318 319 319 320 319 319 319 318 319 318 318 319 319 320 320 320 321 322 323
305 305 306 307 309 309 306 307 307 308 309 310 307 311 316 315 311 319 316 318 320 318 315 316 318 318 318 319 318 318 318 318 319 319 319 319 319 319 320 320 320 320 321 322 322
302 303 306 307 308 309 307 305 306 307 308 307 304 316 321 313 310 318 317 317 315 314 317 318 317 318 318 319 318 318 318 318 319 319 319 319 318 320 321 320 320 320 320 321 321
300 302 306 308 308 308 309 304 308 310 308 309 315 319 324 313 310 314 319 315 313 316 318 316 317 317 318 318 318 318 318 319 318 319 318 317 318 319 320 320 320 321 321 321 321
300 301 306 307 308 308 308 311 313 311 313 317 317 321 321 317 313 312 320 316 316 317 317 317 318 318 318 318 317 318 319 319 319 319 318 318 317 318 320 320 321 321 321 321 321
303 304 305 305 307 308 309 316 323 324 320 324 324 322 318 318 313 315 318 317 317 317 319 319 319 319 319 318 318 318 317 318 319 318 318 319 320 320 320 320 321 321 321 321 321
304 305 304 305 306 307 309 315 319 319 320 322 321 320 318 318 317 316 318 317 318 319 318 319 319 319 319 318 318 317 317 318 318 319 319 320 320 320 320 321 321 321 321 322 322
305 305 305 306 307 309 314 313 317 317 319 319 318 319 319 319 319 317 318 318 318 319 320 320 320 319 318 318 318 318 318 319 319 319 320 320 321 321 320 321 321 321 321 321 321
306 305 306 306 310 317 315 313 317 317 323 321 320 319 318 319 319 319 317 318 319 320 320 320 320 319 318 317 317 319 318 318 317 319 319 320 321 322 322 322 322 321 322 322 321
306 305 306 305 315 316 316 317 318 319 331 323 320 318 319 319 319 319 319 319 320 319 317 319 318 317 317 318 318 317 318 318 318 320 320 320 321 322 323 323 323 323 322 322 322
308 309 310 310 313 316 315 316 319 327 328 322 319 320 318 318 317 319 319 317 317 317 318 318 318 318 318 319 318 318 318 319 320 321 324 323 324 324 324 324 324 324 324 323 323
309 310 311 313 316 312 315 319 327 325 322 322 321 319 320 319 318 319 319 319 318 319 318 317 318 318 318 318 319 319 320 323 324 324 325 324 325 326 325 324 324 324 323 324 323
310 311 313 313 313 313 316 322 328 324 323 320 321 319 320 319 319 318 318 319 319 319 320 322 322 319 319 319 319 320 321 321 325 327 326 325 327 328 326 324 323 322 322 323 322
311 317 317 316 316 317 323 326 325 323 321 321 320 323 322 320 320 321 320 320 319 319 321 322 323 321 320 319 319 321 322 321 327 327 328 325 325 325 325 325 323 322 322 322 322
313 320 317 318 318 320 325 318 323 320 320 320 322 322 324 323 323 323 323 321 321 320 319 321 325 322 322 322 322 321 321 324 326 336 332 326 327 327 327 326 324 323 322 322 321
317 324 318 319 320 323 324 322 320 319 319 320 320 321 321 321 321 322 323 322 320 320 320 320 322 323 321 322 322 322 323 323 323 326 332 331 327 324 325 325 325 323 321 320 319
319 325 318 319 325 322 323 321 313 319 318 319 320 320 320 320 321 321 323 321 319 319 320 319 324 326 323 321 320 322 323 322 331 330 328 330 333 324 324 324 323 322 320 319 319
320 319 318 319 327 322 321 319 318 319 319 319 319 318 319 320 320 319 319 318 317 317 319 320 323 327 322 322 321 321 322 322 323 327 330 332 328 322 322 322 321 320 319 317 317
319 322 318 319 320 322 321 320 320 318 318 318 319 318 318 318 318 320 319 317 316 315 316 317 319 320 325 322 323 324 322 321 322 329 326 324 322 321 320 323 321 319 317 317 318
316 319 317 321 319 317 316 318 317 317 316 316 317 317 317 318 318 318 317 317 314 315 314 317 320 318 317 317 317 318 318 317 318 319 323 323 321 318 319 319 317 317 317 317 317
317 317 316 317 316 316 313 318 317 316 315 317 316 316 315 318 317 318 315 316 317 315 315 318 319 319 319 317 316 317 316 316 316 316 316 318 318 317 317 316 318 318 317 317 316
312 313 316 312 316 315 317 317 315 314 315 314 315 315 316 314 314 314 314 314 314 315 315 317 319 321 322 316 317 317 315 317 315 315 316 316 315 315 316 317 317 317 316 315 315

GFSSW_925_thetae_108.txt.gz
Theta_e
311 311 310 310 310 310 311 310 310 310 311 311 311 311 311 310 303 310 310 310 312 311 311 313 314 314 316 317 319 320 319 319 320 321 323 324 323 327 328 328 328 327 328 329 327
311 311 311 310 310 310 310 310 310 311 311 310 311 311 311 310 311 311 311 312 313 311 310 314 316 316 316 317 319 320 320 320 321 322 321 322 323 323 323 324 325 325 325 326 327
310 311 311 310 310 310 310 310 310 311 310 310 311 312 311 308 316 316 315 311 313 309 309 315 316 316 316 318 318 320 320 320 321 322 322 322 321 322 322 322 322 323 325 326 327
307 307 309 312 312 310 310 309 310 310 311 311 311 311 309 312 325 322 314 313 311 308 310 314 317 316 317 317 319 319 320 320 320 322 321 321 321 321 321 321 321 321 322 323 324
305 305 306 307 310 312 310 309 309 309 310 310 310 310 312 317 316 321 317 315 309 310 314 320 318 317 317 318 319 319 319 320 320 320 321 320 320 320 320 321 320 320 321 321 322
301 302 304 307 307 310 310 308 308 308 309 309 310 309 313 316 317 320 316 312 313 314 318 317 318 318 318 318 319 320 320 320 320 320 320 319 319 319 319 320 320 321 321 321 322
300 301 302 306 307 308 309 308 306 308 308 310 309 312 316 317 312 319 315 314 314 315 319 317 317 319 319 319 320 320 319 319 320 319 319 319 319 319 320 320 320 321 322 322 322
300 301 302 306 307 308 308 309 305 306 308 309 308 314 321 317 315 316 317 317 320 320 318 316 318 320 320 319 320 319 319 318 319 320 319 319 318 320 321 321 320 321 321 322 323
302 303 305 306 307 308 308 309 306 310 310 309 314 318 323 315 314 312 319 319 317 316 316 319 319 318 318 318 319 320 319 319 319 320 320 319 319 320 321 321 321 321 321 322 322
306 305 305 307 307 307 308 310 313 310 311 316 317 322 323 322 317 312 318 318 315 317 318 318 318 318 317 318 318 318 319 319 319 320 320 319 318 319 319 321 321 321 321 322 323
308 306 306 306 307 306 309 314 321 323 321 323 324 321 320 319 314 312 319 319 317 318 318 318 318 318 318 318 319 318 319 319 320 320 320 319 320 320 320 320 321 322 323 324 324
308 307 306 307 306 307 308 316 320 319 320 324 323 322 320 319 318 316 315 320 318 318 318 319 320 320 320 320 319 319 319 319 319 319 319 319 319 320 321 322 322 322 324 324 325
308 306 307 307 307 307 312 315 315 318 319 320 321 320 319 320 319 317 317 319 318 318 319 319 320 320 320 319 319 319 319 319 319 319 320 320 320 321 321 321 322 323 324 324 324
309 306 306 307 308 315 316 316 316 318 323 322 319 319 318 319 319 319 318 319 318 319 320 320 320 320 320 319 318 319 319 319 319 319 319 320 321 323 323 323 324 324 324 323 323
308 307 307 305 315 318 317 316 316 320 338 324 321 318 320 318 319 318 318 318 319 319 320 319 321 320 320 319 319 319 318 318 318 319 320 320 321 320 322 322 324 325 325 325 325
308 308 310 313 313 317 317 318 320 326 336 324 321 320 319 319 319 320 319 319 318 318 319 318 318 318 319 319 319 319 318 319 319 319 322 320 321 322 324 325 326 327 326 325 324
309 310 310 314 319 315 315 319 326 330 327 324 322 321 321 320 319 320 320 320 318 318 319 319 318 318 318 318 319 319 320 321 323 324 325 323 324 326 327 327 326 325 325 326 325
310 312 316 315 315 314 316 321 330 331 326 322 322 322 321 321 320 320 320 321 319 318 320 322 323 320 320 320 320 320 321 322 325 326 324 326 328 327 327 326 327 326 325 325 324
312 318 319 318 317 316 322 328 330 325 323 323 322 324 323 321 322 322 322 321 321 321 323 323 322 321 323 322 322 320 321 321 325 328 329 326 326 326 328 327 327 325 324 325 325
311 320 319 318 319 320 327 328 324 321 321 321 324 323 326 327 325 324 325 323 322 320 321 321 325 322 322 322 323 323 323 325 327 337 331 326 327 327 328 327 327 325 324 323 323
315 325 321 320 320 323 327 323 321 320 320 322 322 322 322 323 323 323 324 323 323 322 322 323 324 323 322 322 323 323 325 326 327 326 332 330 327 326 327 328 328 326 324 323 322
320 327 320 320 326 328 326 322 315 320 319 320 320 321 321 322 322 323 323 324 320 320 322 321 325 326 323 320 320 322 323 324 332 330 329 331 333 326 326 324 325 324 323 322 321
321 320 319 321 329 328 323 320 319 319 319 320 320 319 320 320 321 320 320 320 319 319 322 322 323 325 320 317 323 325 324 326 327 329 331 333 327 322 324 322 323 322 322 321 320
320 322 320 321 320 322 322 321 321 320 317 318 319 319 319 320 318 319 319 319 317 318 317 317 319 320 323 319 321 321 322 322 324 326 328 327 324 322 322 324 322 323 321 320 319
320 321 318 324 322 319 317 320 318 318 318 317 318 317 318 319 318 319 318 317 317 318 316 317 320 319 318 316 316 317 317 317 319 320 324 321 319 319 320 321 319 320 319 318 318
318 318 319 317 317 317 314 320 318 318 316 318 318 317 317 318 318 319 317 317 317 316 316 316 321 319 319 317 317 318 318 317 317 318 318 317 318 319 318 317 318 319 319 318 317
313 315 316 315 319 317 320 319 317 316 316 315 316 316 316 316 315 315 315 316 316 316 316 319 320 319 319 317 320 320 317 317 318 319 318 317 318 317 318 318 318 317 316 315 316

GFSSW_925_thetae_111.txt.gz
Theta_e
312 312 311 310 310 310 310 310 310 310 311 311 311 311 311 311 307 310 311 305 307 308 310 310 312 311 312 312 313 315 313 313 315 316 318 319 320 322 326 327 325 325 327 327 328
309 311 311 311 311 310 310 310 310 310 311 311 310 310 311 311 310 312 305 307 308 310 311 311 311 312 310 313 312 312 314 315 317 317 317 318 318 319 322 323 324 324 324 325 327
304 307 311 311 311 311 309 310 310 311 311 310 310 310 311 310 314 314 318 307 311 312 312 310 311 313 312 311 312 314 314 317 318 318 318 318 319 318 320 321 321 321 322 320 321
301 302 304 309 311 312 312 310 309 309 310 310 311 311 311 311 324 320 317 312 310 312 309 309 310 312 311 311 312 313 315 317 317 318 317 319 319 319 319 320 320 319 319 320 320
300 301 302 304 308 310 312 311 309 309 309 310 310 311 311 315 312 312 316 314 311 311 309 309 314 314 312 312 313 314 315 317 318 317 315 318 318 318 317 319 318 318 319 317 319
300 300 301 303 306 307 309 310 310 308 308 309 310 311 312 313 317 318 316 312 311 309 311 311 315 315 314 313 312 314 315 316 316 316 317 317 317 318 317 318 318 318 317 317 317
302 302 303 304 306 307 308 308 309 307 307 309 311 312 313 315 320 316 315 312 312 310 314 316 317 314 315 314 314 315 315 315 316 317 316 317 316 317 317 317 317 317 318 317 317
307 306 306 306 307 308 308 308 308 306 305 309 312 314 317 317 316 315 314 314 313 313 315 318 317 313 318 315 316 315 315 314 315 317 317 315 315 317 317 317 317 317 318 318 317
310 309 307 307 307 308 308 308 309 311 311 310 312 314 322 319 314 314 315 316 317 318 318 318 318 318 317 315 314 314 315 316 316 316 317 317 315 317 317 316 318 317 318 319 318
311 309 307 307 308 307 308 309 312 312 312 314 316 317 320 322 318 315 313 318 317 315 315 318 315 315 313 312 313 315 316 316 317 317 316 316 316 316 316 317 319 318 318 319 318
311 309 308 308 308 307 308 313 318 318 317 320 320 320 322 322 314 312 312 318 317 315 316 316 314 313 314 314 315 315 316 316 316 317 317 315 316 316 316 316 317 316 317 317 317
311 309 309 308 307 307 307 312 317 317 321 321 322 322 322 320 317 312 313 320 318 315 315 315 315 316 317 317 317 316 316 316 317 318 317 315 316 317 317 317 317 317 317 317 318
311 309 308 308 307 306 308 312 315 315 319 319 322 324 322 319 319 316 314 319 319 316 315 315 316 318 319 318 319 317 317 318 318 318 317 316 316 317 319 319 318 317 317 318 318
310 309 308 307 309 311 312 314 313 315 321 323 319 318 318 318 319 319 316 316 318 316 316 317 317 319 319 319 318 317 317 317 318 318 317 317 316 316 319 318 318 318 317 316 318
310 309 307 306 310 316 320 318 315 317 333 322 320 318 317 318 319 318 318 318 318 318 317 318 319 317 318 319 319 317 318 317 318 316 316 316 315 315 318 318 318 318 319 318 316
310 309 307 313 310 315 316 317 317 324 334 328 320 319 319 318 319 318 319 318 318 317 317 317 317 317 317 318 318 319 318 317 317 315 316 316 316 316 317 318 320 324 322 321 322
309 309 308 310 318 316 316 318 324 330 328 326 321 319 319 320 319 319 319 319 318 318 318 317 318 317 319 317 317 317 316 318 318 318 318 317 319 317 321 324 326 324 322 321 320
309 311 313 314 316 316 316 319 330 332 330 323 322 322 321 321 320 319 320 319 318 317 318 320 322 321 321 322 322 321 319 319 323 322 324 324 325 324 323 326 323 323 321 320 319
310 315 315 318 317 316 319 325 332 332 325 323 322 324 322 321 322 322 322 321 320 318 318 323 324 322 321 321 322 323 322 322 325 325 325 324 323 322 325 325 325 324 324 322 320
311 313 321 319 317 319 326 332 327 321 321 322 325 323 327 328 325 324 325 324 323 321 319 321 323 321 321 320 321 322 321 327 328 333 331 325 324 327 328 327 326 325 323 322 319
314 322 319 320 319 322 327 328 322 320 320 322 322 323 323 323 323 324 323 323 323 322 321 322 324 324 321 321 321 320 320 324 324 326 332 326 323 326 326 324 324 322 322 321 319
314 327 320 321 324 326 328 327 316 320 319 319 320 321 322 322 322 323 323 324 320 320 321 321 322 324 322 318 318 317 319 325 329 331 327 328 327 322 323 321 321 320 320 320 319
313 322 319 320 329 327 326 320 319 319 320 320 321 320 320 321 321 321 320 320 318 321 322 318 320 320 317 314 321 323 321 323 323 325 329 331 326 322 323 322 321 320 319 321 319
314 325 321 322 322 321 322 322 321 319 316 318 318 318 319 319 318 319 320 319 317 319 319 317 318 318 317 317 316 318 318 317 323 323 324 326 324 321 320 323 320 319 318 318 316
316 322 317 322 321 319 317 319 319 320 318 317 318 318 317 318 318 318 319 318 318 319 316 314 316 317 317 317 317 317 316 315 315 319 322 320 321 320 318 317 318 317 317 317 317
317 316 314 318 318 318 314 318 319 318 317 319 319 318 317 317 317 317 315 316 317 317 315 317 316 318 318 317 316 317 317 318 318 318 316 316 317 316 316 315 315 315 316 317 313
314 313 316 317 320 318 320 319 317 316 316 315 315 315 315 315 314 313 312 313 314 316 315 316 317 318 318 315 315 316 316 318 319 320 319 320 320 317 316 315 315 313 312 312 311

GFSSW_925_thetae_114.txt.gz
Theta_e
309 311 311 311 311 310 310 310 310 310 310 310 310 311 310 311 310 308 310 303 304 310 309 310 310 311 310 309 312 313 311 312 314 316 316 317 317 317 320 325 324 325 327 327 328
302 306 310 311 311 311 310 309 310 310 310 310 310 311 310 311 310 310 304 304 305 307 306 308 309 310 307 310 311 310 310 313 314 316 316 316 317 318 320 319 322 323 324 325 325
300 301 304 307 311 311 311 311 309 309 310 310 310 311 311 310 312 312 313 310 305 309 310 310 309 311 309 311 311 310 311 313 315 316 316 316 316 317 319 319 320 320 321 319 319
301 301 301 302 306 309 311 312 312 311 311 310 311 311 310 310 315 321 317 315 306 310 311 309 307 309 310 311 309 312 312 313 315 316 316 315 317 318 318 318 319 318 319 318 317
303 302 302 302 304 306 308 311 312 311 310 310 310 310 311 313 308 313 314 310 309 311 310 307 307 311 310 309 310 311 311 313 314 315 314 314 315 317 317 317 317 317 317 317 318
309 307 306 306 305 306 307 308 309 310 310 310 310 310 311 307 308 312 315 310 309 311 307 307 310 313 313 311 310 311 311 312 313 314 313 315 315 316 317 316 316 317 316 315 315
311 310 309 307 307 307 307 308 308 308 307 311 312 312 313 310 316 318 314 313 311 310 310 309 310 314 313 313 312 311 312 312 313 313 313 315 315 316 316 316 315 314 314 316 315
312 312 310 308 308 309 308 308 308 309 307 310 313 313 314 313 312 315 315 312 311 310 309 312 313 312 312 314 314 315 312 313 312 315 315 314 315 315 315 315 315 315 314 315 315
312 311 311 310 309 309 308 308 308 311 314 311 311 313 317 320 319 316 315 313 312 312 311 313 315 315 315 314 311 311 313 314 315 315 315 314 314 314 314 314 315 314 314 315 315
313 311 311 310 309 308 308 308 310 312 313 313 314 315 316 321 316 314 315 314 315 315 314 315 311 313 311 310 313 314 314 314 314 315 315 313 313 315 314 313 313 315 314 315 315
311 311 311 308 308 307 307 312 316 316 314 315 317 319 320 321 318 315 313 313 315 312 312 315 313 312 313 312 313 313 313 313 314 314 315 313 313 313 313 313 312 314 314 314 315
310 310 310 309 308 307 306 308 316 317 320 318 318 316 319 320 318 311 312 312 314 312 314 314 313 313 313 313 314 314 313 313 313 315 314 316 315 315 315 314 314 314 314 314 314
309 309 309 309 308 307 307 309 313 313 317 318 321 322 322 320 319 310 310 316 317 314 313 313 314 315 315 316 317 316 314 315 316 316 316 316 314 314 314 317 316 314 313 314 314
309 309 309 310 309 309 308 315 313 311 320 323 320 323 320 317 318 317 312 317 317 316 314 313 314 315 316 317 317 317 316 316 316 316 314 315 314 314 314 314 315 315 313 312 313
309 309 309 310 308 309 317 317 313 314 333 320 319 317 316 317 318 318 314 315 317 317 314 315 317 317 317 317 316 316 316 316 317 315 314 313 313 313 314 314 314 314 314 316 315
309 308 309 311 308 315 315 315 315 323 334 327 318 318 317 317 318 317 318 316 317 317 316 315 316 317 317 317 317 317 316 314 313 312 314 314 313 313 313 314 315 316 320 318 316
309 310 308 309 313 317 315 314 322 328 327 328 319 317 318 319 319 319 319 317 317 317 316 316 316 316 317 319 319 316 313 315 315 315 317 319 321 314 316 324 323 322 319 317 315
309 312 314 314 315 314 315 315 329 330 331 327 320 318 319 318 318 319 318 318 317 315 316 317 321 320 321 321 322 320 317 315 320 319 319 321 322 321 323 323 322 321 317 317 315
311 313 316 318 317 316 315 324 330 330 328 323 323 322 322 323 321 320 319 319 318 315 316 318 322 320 321 320 320 322 323 320 321 323 322 321 320 319 324 324 323 321 319 316 316
310 313 316 319 318 317 323 330 329 326 322 322 324 323 328 326 324 323 324 323 323 320 317 321 322 320 321 319 319 320 319 323 320 323 325 324 322 322 326 325 324 324 321 318 315
313 319 320 318 318 317 325 326 326 319 319 321 322 322 321 322 321 322 322 323 321 320 319 320 320 321 320 320 319 317 317 320 321 327 330 327 322 322 322 322 322 321 321 320 320
309 322 320 319 321 324 327 327 320 319 318 319 319 320 321 321 321 322 323 322 318 318 320 318 319 322 321 317 316 316 320 322 324 328 328 329 326 320 320 318 319 318 318 318 319
308 314 319 320 325 325 323 323 319 319 319 318 319 319 318 318 319 319 321 318 318 320 321 317 317 317 313 311 314 318 320 321 321 320 324 329 325 321 320 318 318 318 317 318 318
309 320 314 316 317 320 320 319 320 317 317 316 316 316 317 318 317 317 321 318 318 318 320 315 315 315 314 312 314 317 316 316 320 321 321 322 320 318 317 319 320 317 316 316 314
311 317 313 318 316 315 313 314 321 318 316 315 316 316 316 316 316 317 315 316 318 322 314 311 313 315 315 315 316 316 316 316 314 315 318 316 317 315 315 316 316 316 315 312 311
312 312 312 313 315 316 314 318 318 317 315 316 316 315 313 315 315 315 314 315 315 317 314 311 313 316 318 316 316 317 315 314 315 316 315 315 316 315 315 314 313 310 311 311 310
311 312 311 315 315 316 316 316 317 314 314 313 313 313 314 313 312 311 310 311 312 313 312 313 313 313 316 315 314 315 313 313 315 319 319 321 319 316 316 314 311 310 309 309 309

GFSSW_925_thetae_117.txt.gz
Theta_e
302 302 308 309 311 310 310 309 309 309 310 310 310 310 310 310 310 310 311 304 304 309 308 310 311 310 310 308 310 311 310 312 313 314 316 314 314 315 316 321 322 323 330 330 340
302 302 302 307 308 310 310 310 309 309 309 310 309 309 310 310 310 310 304 304 305 307 308 307 308 308 306 309 310 310 309 312 313 315 316 315 315 315 318 318 321 323 320 332 347
303 302 301 303 305 308 310 310 310 310 309 309 309 310 310 310 310 308 308 304 304 305 306 307 308 308 308 309 310 310 311 313 314 315 315 314 315 316 316 318 319 321 319 317 326
307 306 305 304 305 306 308 310 311 311 310 310 310 309 310 310 304 317 318 314 304 307 310 308 307 308 309 310 310 311 311 312 314 314 315 315 315 316 316 317 318 317 318 317 316
311 311 310 308 307 306 307 309 311 311 311 310 309 309 310 311 305 308 313 317 303 306 309 306 306 308 310 308 310 310 311 311 312 312 312 313 313 314 315 315 316 315 315 315 315
312 312 312 312 310 309 308 309 310 311 312 310 309 309 310 304 306 315 314 308 307 310 308 306 306 308 311 310 309 310 310 311 311 311 311 313 313 312 315 315 315 315 315 314 312
312 312 312 312 311 312 311 311 310 309 311 311 310 311 312 307 317 317 314 309 309 310 308 307 309 313 312 312 309 311 312 311 312 312 312 311 313 314 315 315 314 314 312 313 313
311 311 311 311 310 311 311 310 308 308 312 312 312 312 312 312 317 312 313 312 310 311 310 309 309 310 312 312 312 314 311 313 312 313 313 313 314 315 314 314 313 313 313 312 312
311 311 311 311 310 309 309 308 308 310 314 311 311 312 314 317 319 314 314 311 310 309 309 310 311 312 313 312 312 310 313 313 314 313 314 314 313 313 313 313 313 313 312 312 312
310 310 311 311 309 308 308 308 310 313 313 312 313 314 315 319 318 317 316 313 312 310 311 311 310 312 310 312 313 314 313 313 314 314 314 313 312 312 313 312 312 312 312 312 312
311 310 310 310 309 308 308 313 314 313 313 313 315 317 319 320 316 313 314 313 313 313 312 313 313 313 313 312 313 314 313 313 313 313 314 312 312 313 312 312 309 310 311 312 312
309 308 311 310 308 308 307 307 314 316 318 315 314 316 316 317 321 312 312 311 312 310 312 312 313 313 312 313 313 313 313 313 312 312 311 313 313 312 314 314 310 310 311 311 312
308 308 310 310 308 307 307 308 312 312 315 318 317 319 319 320 322 311 309 313 312 311 311 312 314 314 314 314 315 314 313 313 313 315 314 314 313 313 314 314 313 314 312 312 312
309 309 310 309 308 308 307 313 312 310 321 321 321 321 321 316 317 310 310 313 316 312 311 312 312 314 314 315 314 314 314 316 315 314 313 313 313 312 313 313 313 312 311 310 310
309 309 309 308 308 307 315 314 312 311 332 320 322 320 316 316 316 316 312 315 316 315 313 314 315 315 315 315 314 314 315 315 315 313 313 313 311 310 312 313 312 314 313 313 315
308 309 309 308 308 314 313 313 312 323 336 322 318 317 317 317 317 316 313 315 314 316 314 314 315 316 315 316 317 317 315 311 310 310 313 313 312 311 313 314 319 319 317 316 315
308 309 307 308 312 314 313 313 321 328 327 329 319 317 318 318 318 318 317 316 315 316 316 315 316 315 316 316 318 314 311 313 314 313 314 317 317 315 317 323 322 319 316 314 314
309 311 314 313 313 312 313 317 328 329 329 328 318 317 318 318 318 318 317 317 316 315 315 316 320 320 319 320 321 319 313 313 317 316 316 319 319 319 322 321 318 317 315 314 313
309 312 312 318 316 315 315 323 328 329 328 326 320 319 321 323 318 318 317 317 320 315 318 317 321 320 319 319 319 321 321 316 319 319 322 319 318 318 322 322 322 321 318 317 314
309 312 315 319 318 317 322 327 328 326 326 322 323 324 327 324 323 322 323 322 322 319 315 320 321 320 320 318 317 318 319 322 319 324 323 320 321 319 325 323 322 321 321 319 318
311 318 318 319 318 316 328 328 326 324 320 321 321 321 322 321 321 321 323 321 320 319 317 318 318 319 318 318 318 316 316 317 317 320 321 324 321 317 321 321 320 318 318 319 320
306 321 318 318 320 321 326 327 322 318 317 318 318 320 320 320 321 321 322 321 318 318 319 318 317 321 320 315 315 315 319 317 315 321 326 329 325 319 318 316 315 314 314 314 314
307 310 317 318 323 323 325 323 319 319 318 317 317 318 317 317 318 319 320 317 318 319 319 316 315 315 309 310 313 316 319 319 316 315 321 319 320 318 315 315 314 315 314 313 316
308 318 311 314 316 318 320 318 320 316 316 315 315 315 316 316 314 317 319 318 317 318 319 314 314 313 311 308 313 316 315 315 315 317 315 319 318 315 315 314 313 313 314 311 310
309 315 311 317 315 314 313 313 319 317 314 314 315 315 315 316 315 315 314 316 316 317 312 309 313 315 314 314 315 316 316 315 313 313 315 315 314 313 311 311 313 311 310 310 310
310 310 310 313 313 315 313 316 317 315 315 315 315 313 312 314 314 314 313 314 315 317 313 308 312 315 317 315 315 315 314 314 313 313 313 313 314 312 314 310 309 308 308 308 308
309 310 309 313 314 315 315 315 316 313 313 312 312 312 313 312 311 310 310 310 312 312 312 311 311 311 314 314 313 313 312 311 311 313 314 317 315 316 315 314 312 310 309 308 307

GFSSW_925_thetae_120.txt.gz
Theta_e
307 306 307 309 308 310 309 310 309 309 309 309 309 309 309 309 309 309 309 305 305 307 308 309 309 310 310 309 309 309 310 312 314 315 316 314 314 315 315 318 321 321 330 333 350
308 306 307 306 307 309 309 310 310 309 309 309 309 309 309 309 309 308 305 304 304 304 309 310 309 310 308 308 309 311 309 312 312 313 315 314 314 315 315 315 322 322 325 347 349
308 311 311 309 306 308 309 310 310 310 310 309 308 309 309 308 308 307 306 305 305 304 308 309 309 307 307 307 309 309 311 312 314 314 314 314 313 315 316 316 318 320 320 332 343
311 312 312 311 311 311 310 311 310 310 310 310 309 308 308 308 302 311 315 312 304 304 306 307 306 308 308 309 309 310 310 313 313 314 313 314 314 314 315 315 314 316 317 319 339
311 311 311 312 312 312 312 311 311 310 309 310 309 308 308 308 306 304 310 313 308 308 307 306 306 307 310 309 309 310 311 311 312 312 311 311 312 312 313 313 313 313 315 314 318
312 310 310 311 312 311 311 311 311 310 309 310 309 308 308 307 305 314 316 315 308 310 307 306 306 309 309 309 310 310 310 311 311 311 311 312 312 312 313 313 314 314 313 312 311
311 310 310 310 311 311 311 310 309 310 309 309 310 309 310 307 312 319 318 313 307 308 307 307 308 311 311 309 308 310 312 311 310 311 311 310 313 312 313 314 314 313 312 311 311
310 309 310 310 310 310 310 309 309 310 310 310 310 309 310 310 310 315 312 312 308 309 310 310 308 310 312 312 311 313 311 313 313 312 313 313 314 314 313 314 313 312 311 311 311
310 310 309 309 310 309 309 309 308 309 310 311 311 310 310 315 316 315 311 310 311 309 309 308 309 310 312 311 311 310 313 312 314 312 313 313 313 313 312 312 311 311 311 311 311
312 310 310 309 309 309 309 309 311 312 312 311 312 312 312 318 319 313 313 309 309 307 308 308 309 311 308 310 311 312 312 313 314 313 313 312 311 311 312 313 312 310 310 310 311
309 309 311 309 309 309 308 311 311 311 312 312 313 315 317 315 315 314 314 312 310 310 311 310 311 312 312 312 312 312 313 313 313 312 313 312 311 311 311 312 311 311 309 309 310
309 308 311 308 308 308 308 307 313 312 317 312 313 314 314 316 319 311 314 312 312 311 311 311 312 312 312 312 313 313 313 313 312 312 311 312 313 311 312 312 312 311 310 308 309
308 308 311 308 308 308 307 307 310 311 313 316 314 313 316 316 320 311 311 311 311 309 310 311 313 312 313 313 314 313 312 313 313 313 312 313 312 313 313 312 312 312 311 310 310
308 309 309 308 308 307 307 312 311 309 321 321 320 318 319 318 319 313 311 314 313 310 309 311 311 313 313 314 313 314 312 314 315 313 314 311 313 311 312 312 311 312 313 312 311
307 309 308 308 308 307 312 312 312 310 327 321 320 318 317 315 315 309 312 314 315 313 311 312 314 314 313 313 313 314 314 314 314 312 312 312 311 311 310 313 313 317 316 314 313
307 310 308 308 307 313 311 310 311 322 332 320 318 320 316 316 316 313 312 313 313 314 313 312 314 315 315 316 315 315 312 310 309 309 312 312 311 311 311 315 320 318 314 313 312
306 307 307 308 311 311 311 311 321 327 327 326 318 316 317 317 317 315 312 314 314 315 316 314 315 314 315 315 317 312 310 312 314 313 314 314 316 312 314 321 319 316 314 312 311
307 309 312 311 312 312 311 317 327 329 327 326 318 317 319 317 318 317 313 314 314 313 313 315 315 318 318 317 317 318 311 311 315 314 313 316 318 316 321 318 317 317 316 315 312
307 310 311 315 313 312 314 321 326 329 327 328 318 318 321 322 318 318 318 316 320 315 317 317 322 319 318 318 318 320 319 313 316 317 321 317 317 320 321 321 320 320 319 318 317
307 310 315 317 315 314 319 326 327 326 326 325 323 322 326 323 322 321 323 321 321 318 315 319 321 320 320 317 316 318 317 321 317 321 324 318 320 317 323 321 317 315 314 315 316
308 316 316 316 316 319 323 326 326 323 324 323 321 321 321 322 321 321 322 320 319 318 316 317 316 319 317 317 318 315 316 316 316 316 319 322 319 314 320 319 317 313 312 312 313
304 319 316 316 318 321 323 325 323 325 319 320 318 319 321 319 321 321 322 320 317 317 319 317 316 320 319 312 313 314 318 314 315 319 320 323 322 318 316 316 314 312 312 311 311
307 310 316 316 323 324 324 325 322 318 317 316 317 318 316 317 319 320 319 316 317 318 317 314 313 313 309 311 312 315 318 315 313 312 321 320 317 317 314 312 311 312 310 311 311
308 319 311 313 314 319 324 323 318 315 314 313 314 314 315 315 311 318 319 318 316 318 318 313 312 311 311 306 312 316 315 315 312 316 313 314 316 315 314 312 311 310 310 308 308
309 313 310 317 313 314 313 313 318 316 314 313 314 314 314 315 314 315 315 316 317 316 310 309 312 314 313 313 314 314 314 313 313 312 314 313 315 312 310 310 309 310 309 308 307
309 309 310 312 313 314 313 316 316 314 314 315 314 313 312 313 313 314 312 313 315 313 311 307 312 314 316 314 314 315 313 313 312 312 312 313 313 310 309 308 309 308 308 308 307
307 308 308 312 314 315 314 315 315 312 312 312 312 312 312 311 310 309 308 308 311 312 311 309 310 311 314 313 312 312 310 311 310 310 310 312 311 314 314 313 311 308 308 308 307